GFSSGP_700_spd_000.txt.gz
Wind_Speed
11 9 13 12 7 6 9 5 13 11 13 10 11 16 11 12 13 6 10 11 13 10 15 14 12 10 8 7 5 7 8 6 4 6 7 10 13 15 13 11 8 10 14 15 15 13 12 12 12
8 10 10 10 4 8 8 11 14 11 14 6 7 4 8 10 6 8 15 14 7 10 12 10 10 10 9 7 7 8 6 5 6 7 11 13 13 12 9 8 9 13 14 14 13 11 11 12 12
10 8 11 4 8 11 5 13 15 10 12 7 7 6 5 4 6 6 6 9 12 11 10 10 10 9 7 9 6 5 6 8 9 10 13 11 11 9 7 9 13 15 13 12 12 11 12 12 13
15 13 17 7 5 11 16 18 18 15 5 10 3 1 4 6 8 4 7 8 10 9 9 9 9 9 8 5 5 7 9 10 11 11 7 9 9 9 10 13 14 14 14 13 13 14 15 15 15
18 17 10 6 7 16 17 14 11 9 13 6 1 7 5 8 9 2 10 10 11 9 9 9 8 5 4 6 9 11 11 9 6 4 7 8 9 11 12 13 14 15 15 16 16 17 18 19 20
17 17 7 4 14 14 13 15 14 13 10 7 1 5 6 7 6 9 12 10 11 8 8 6 5 5 8 11 9 6 3 3 2 5 7 9 10 11 13 14 15 17 19 20 19 19 18 17 18
17 8 3 7 21 15 9 11 8 8 4 3 1 2 5 2 7 10 10 9 8 6 4 4 4 6 5 1 1 1 2 3 4 6 6 7 9 10 11 15 17 20 21 22 23 23 22 21 20
13 2 8 18 14 21 10 7 14 13 12 7 3 3 4 1 9 9 8 7 6 4 3 3 5 3 2 1 1 1 2 3 3 4 5 7 9 10 12 16 17 18 19 20 22 22 22 22 21
5 1 10 13 11 13 11 9 15 11 8 7 6 5 3 8 11 9 8 7 4 4 2 3 4 3 2 2 2 3 3 4 5 6 6 7 9 13 16 17 18 19 19 19 20 20 20 20 20
5 3 6 16 14 18 12 7 5 11 13 11 9 6 3 6 7 7 7 7 6 5 2 3 4 4 3 4 4 5 6 6 5 5 8 10 14 17 19 21 21 20 20 21 19 19 18 17 17
7 8 11 11 27 13 9 8 5 7 11 4 1 12 9 4 6 9 9 8 5 3 6 5 8 7 4 3 4 3 5 4 7 9 11 14 16 19 22 23 22 22 22 21 19 19 20 19 18
5 12 6 18 14 11 8 8 7 6 3 6 1 3 4 3 4 7 8 5 1 6 10 7 8 7 7 7 5 7 6 8 9 11 15 17 19 22 25 25 25 26 28 25 22 22 22 22 19
16 8 6 11 17 12 10 8 11 5 4 5 3 2 2 4 3 1 4 5 2 4 7 3 1 4 8 10 11 11 14 15 16 15 17 18 20 20 25 29 24 29 31 30 29 31 29 26 26
10 7 6 9 18 14 10 9 12 5 4 4 6 6 5 2 1 8 11 10 4 4 5 6 11 6 20 10 15 16 19 21 21 20 21 22 24 23 30 32 31 34 34 32 33 35 35 33 33
8 4 7 12 10 12 11 11 9 10 8 7 5 8 6 5 7 8 9 9 6 8 5 10 12 16 18 13 14 15 18 22 25 27 28 29 28 28 38 38 39 38 36 39 42 43 42 41 36
1 5 6 6 7 6 5 4 10 12 14 5 2 5 4 10 9 7 7 3 5 9 13 11 16 17 20 12 11 15 19 25 26 30 32 29 32 40 38 37 35 39 39 47 49 45 42 38 40
9 10 14 8 8 4 7 2 17 12 10 4 5 12 13 15 14 11 10 7 7 14 13 14 18 19 16 14 18 23 23 22 24 26 27 31 35 32 31 32 37 41 47 43 40 38 38 36 37
11 14 21 19 16 13 8 5 17 13 10 12 16 20 22 20 21 18 17 12 12 13 13 16 19 21 25 23 24 21 20 22 25 27 27 33 36 35 33 41 49 49 45 44 42 40 37 39 41
4 7 8 20 14 13 8 21 16 14 15 17 17 15 20 21 23 18 17 16 14 17 17 18 19 26 24 22 16 18 23 25 26 32 34 32 34 37 45 45 50 46 49 48 42 40 40 39 39
6 10 21 18 12 8 20 21 20 17 14 13 15 15 17 20 23 21 19 18 15 19 23 23 18 17 16 15 18 24 26 29 31 33 36 41 40 44 42 46 48 48 44 41 40 42 43 42 42
8 17 17 13 9 9 20 20 17 17 19 18 16 15 16 14 14 16 17 18 15 10 9 9 10 12 17 22 24 27 27 30 36 37 35 36 41 45 48 49 45 41 40 42 42 42 44 46 45
7 7 4 4 8 16 9 10 22 20 18 17 17 15 13 11 10 13 15 14 5 6 10 12 13 17 21 23 25 29 32 35 35 36 38 39 43 47 47 43 40 40 42 45 46 46 45 46 47
4 2 1 2 5 7 7 14 20 19 16 14 15 13 12 8 9 10 14 16 16 18 19 18 21 25 24 24 27 27 27 28 32 37 39 45 47 48 46 41 40 43 43 43 43 45 45 47 47
4 3 2 1 1 1 5 10 25 22 20 15 12 12 10 10 7 8 8 6 10 16 18 17 15 20 21 26 31 34 37 41 43 46 48 46 48 49 54 47 43 43 45 46 46 46 48 50 49
2 2 3 3 2 4 2 5 6 16 15 12 14 9 9 12 16 11 12 16 19 23 20 25 27 29 32 38 41 42 45 49 50 49 46 41 46 44 52 42 45 47 48 49 49 50 51 48 46
8 7 5 4 2 2 4 5 6 17 14 9 4 1 9 18 12 9 15 18 21 23 27 27 27 28 34 40 43 46 48 43 45 50 56 44 49 49 46 46 52 53 50 51 50 48 48 46 44
5 11 7 5 2 2 5 13 13 11 9 12 10 11 3 7 9 13 15 19 24 24 28 27 28 32 37 41 44 45 41 41 46 49 55 56 54 41 43 46 47 47 41 41 43 44 45 44 40
10 6 2 3 2 1 2 9 7 16 13 11 8 6 11 14 12 15 20 25 26 24 20 26 36 44 43 47 48 46 43 43 46 46 46 42 41 47 48 46 43 37 41 44 44 45 41 33 31
4 3 3 2 1 4 2 3 6 17 11 12 12 8 6 12 15 18 22 24 24 24 31 37 45 43 46 50 45 40 40 42 45 45 43 42 48 45 50 48 55 42 43 40 41 38 36 29 27
3 2 1 1 1 2 3 3 11 17 15 13 15 13 14 21 21 22 25 30 32 36 41 45 41 44 49 44 41 40 41 43 44 45 45 45 47 48 52 52 34 36 37 36 34 28 29 30 32

GFSSGP_700_spd_003.txt.gz
Wind_Speed
12 9 12 12 9 9 11 5 7 15 13 9 19 8 13 13 10 4 14 13 11 10 12 10 10 8 7 6 5 6 7 8 6 7 7 9 14 14 12 8 9 13 16 16 15 12 11 11 11
9 10 14 10 8 10 4 12 16 15 22 17 8 12 7 7 2 6 12 15 15 9 8 9 10 8 5 6 7 8 8 6 8 8 9 13 12 10 7 9 13 15 14 13 12 11 12 13 13
6 11 9 8 11 13 1 16 21 13 4 4 5 7 6 3 4 5 13 13 11 10 11 10 8 7 7 7 8 7 6 9 9 9 11 9 8 7 8 11 14 14 14 13 13 13 14 15 16
13 12 10 9 6 10 6 14 9 9 9 4 7 7 9 6 7 4 10 12 12 12 11 11 9 8 8 9 7 8 9 11 11 9 6 7 7 8 10 11 12 12 13 13 14 15 17 18 18
14 16 13 9 6 6 21 12 14 10 13 11 5 10 2 10 7 7 13 15 13 12 12 10 8 8 6 6 8 10 11 10 6 4 6 6 7 9 10 11 13 14 16 17 18 17 16 16 16
15 13 9 6 10 9 22 16 12 12 14 10 9 7 3 7 7 14 14 16 15 11 10 8 6 4 5 9 10 7 3 2 2 3 4 7 10 11 12 14 16 18 19 20 20 20 19 18 16
14 15 6 5 18 16 14 9 11 10 8 4 3 3 7 11 14 13 14 14 14 11 7 4 2 4 6 4 2 1 2 3 4 5 8 10 9 9 11 15 17 18 18 20 21 22 22 21 19
16 8 6 10 15 19 15 9 6 5 7 7 4 3 5 11 16 12 11 10 8 6 4 2 2 2 3 2 2 3 3 3 5 7 7 8 9 10 13 15 16 16 16 18 21 21 21 22 22
15 6 11 19 15 16 6 13 13 10 7 6 4 1 8 13 14 9 6 5 4 3 2 3 1 2 3 5 3 3 4 5 5 6 6 7 9 12 16 18 19 19 18 19 23 21 20 20 21
8 0 11 19 8 16 14 13 14 11 6 5 5 4 4 4 7 6 4 3 1 2 3 1 3 5 5 4 3 4 3 2 2 3 6 8 12 14 17 21 23 23 23 24 25 23 23 24 23
2 3 6 18 18 9 12 10 7 7 7 2 2 8 2 1 4 5 4 3 2 2 4 7 6 5 4 3 2 3 5 3 5 9 10 13 17 18 20 21 25 27 27 26 28 25 23 25 26
8 7 10 21 15 19 16 11 9 6 6 1 4 8 6 5 5 3 2 1 6 8 8 6 4 2 5 2 3 6 6 8 10 14 18 20 23 22 22 20 25 30 29 30 29 26 26 28 30
10 13 9 11 19 13 13 8 4 6 5 6 2 5 8 12 13 10 10 10 4 4 4 3 7 2 8 7 8 11 11 13 14 18 22 25 27 25 22 23 30 31 31 32 32 33 37 39 37
19 17 9 8 13 13 11 8 9 5 2 3 3 2 6 8 8 7 8 12 14 12 8 8 8 8 7 13 11 15 13 14 16 22 22 25 27 26 25 31 32 32 34 34 38 39 43 43 41
13 7 10 16 18 14 11 8 7 5 2 1 4 1 3 4 1 6 5 7 8 6 5 6 9 10 14 17 17 15 14 17 20 20 21 23 23 24 28 35 39 41 37 38 41 46 45 42 42
8 6 10 15 13 14 12 7 11 7 7 2 5 4 5 6 6 5 4 2 4 4 8 12 18 22 19 11 15 16 16 20 17 19 21 23 25 27 30 37 40 39 38 39 46 48 47 44 43
10 11 7 8 11 8 11 2 14 12 11 7 6 7 10 11 12 12 9 8 10 9 14 21 24 27 27 11 14 19 23 17 16 21 23 28 31 34 36 34 35 38 42 52 49 51 51 49 44
8 12 11 13 8 11 8 6 16 13 13 11 13 14 15 16 17 16 13 12 12 9 17 21 22 26 22 24 24 17 17 17 19 25 29 33 32 35 37 38 40 44 49 52 53 53 49 46 46
6 11 18 20 17 16 14 16 21 18 17 18 21 23 23 22 22 18 17 14 14 15 19 20 21 24 26 22 21 17 18 21 26 30 31 31 33 35 40 41 46 50 51 54 53 47 43 43 46
7 4 14 13 14 15 15 20 19 19 18 18 21 18 17 20 21 18 16 14 14 15 18 19 22 23 17 19 19 21 22 27 29 29 31 34 36 39 42 43 45 51 51 50 46 44 45 46 49
12 17 18 15 11 12 20 14 13 15 16 15 13 12 12 10 8 11 10 12 14 16 17 17 16 15 16 19 20 23 24 25 28 29 31 34 38 42 45 47 51 50 48 46 45 45 48 50 50
15 12 13 13 11 19 15 8 15 17 16 13 12 9 7 1 10 7 12 15 16 13 12 15 14 14 17 18 17 20 21 24 27 30 35 40 43 45 48 51 49 50 43 44 47 46 47 48 49
10 9 9 10 13 13 11 7 19 19 18 17 14 10 7 2 6 6 11 13 16 15 18 17 17 18 17 21 24 27 30 36 38 41 44 46 50 53 50 46 48 44 43 42 43 46 49 49 50
9 9 8 5 7 4 12 7 22 29 26 21 15 10 6 12 6 12 8 9 5 12 14 14 19 24 28 30 32 36 40 44 48 51 54 53 54 47 47 42 52 57 49 43 44 46 47 47 48
7 10 3 1 0 4 5 8 6 28 23 16 12 11 9 3 15 19 15 11 13 17 18 20 27 29 33 35 41 44 48 49 51 54 52 47 46 47 55 53 54 51 51 48 49 49 43 40 40
7 7 4 5 3 2 2 2 2 25 14 12 13 13 6 15 25 20 17 13 15 18 22 25 32 34 33 37 43 47 47 49 49 46 49 51 51 50 52 46 44 49 41 41 45 38 38 42 41
3 6 5 6 4 2 2 4 9 18 17 19 18 13 20 16 18 21 17 16 19 22 26 30 34 35 38 42 48 47 47 48 47 49 52 52 50 45 43 39 46 43 43 48 47 41 38 40 42
5 4 1 3 3 1 3 7 8 21 21 20 18 21 17 17 21 21 20 22 23 26 29 29 35 42 44 44 43 44 46 46 48 50 49 49 48 44 46 45 42 45 49 45 35 34 38 40 37
5 1 2 3 2 5 2 5 15 18 21 21 20 17 16 18 22 23 23 24 26 25 27 35 42 40 40 42 46 46 45 45 46 48 50 50 50 48 50 45 43 43 46 36 32 35 36 33 29
3 3 3 2 4 3 2 4 7 14 20 19 17 16 19 20 23 25 26 25 27 28 33 44 40 39 42 44 43 43 43 45 46 48 47 47 47 43 36 34 37 37 31 28 33 34 29 30 32

GFSSGP_700_spd_006.txt.gz
Wind_Speed
12 9 8 12 5 10 10 6 6 6 13 13 14 10 11 8 6 3 3 13 15 14 13 11 10 8 6 6 4 2 3 5 4 6 5 7 11 10 8 8 11 15 16 16 15 14 12 11 12
11 11 11 9 8 11 7 12 3 7 11 15 10 7 10 6 7 3 6 17 14 10 10 11 10 8 7 6 3 3 5 4 6 7 8 11 8 7 8 11 14 14 15 16 15 15 15 14 14
12 12 8 5 10 10 4 13 16 20 15 10 6 8 5 6 5 3 14 15 12 11 14 11 10 9 6 4 2 5 5 6 8 8 9 6 6 8 9 12 13 14 15 16 16 17 17 17 17
12 12 9 9 11 17 3 13 18 17 9 9 1 5 8 4 6 8 12 11 14 16 15 12 10 8 5 3 5 5 7 8 9 6 3 5 7 8 10 11 13 13 14 16 17 17 18 19 18
16 11 10 7 7 13 12 11 17 12 9 6 4 6 4 7 7 9 12 15 16 16 13 11 9 7 5 4 5 7 8 7 3 2 5 7 6 8 10 12 14 15 17 18 19 19 19 18 18
15 12 6 9 5 6 17 15 13 6 4 7 5 4 6 9 11 13 17 18 16 12 12 10 8 6 4 5 6 5 2 2 3 5 5 7 8 9 11 13 15 17 17 17 20 21 21 21 20
12 14 5 3 9 15 19 15 15 6 5 9 5 3 6 11 19 13 16 16 16 14 11 8 5 3 5 4 2 3 4 4 4 5 7 7 8 10 12 14 16 17 16 16 20 22 21 21 22
13 13 3 11 11 15 13 11 12 8 12 10 6 1 2 11 17 15 15 15 15 12 8 4 2 2 3 4 6 5 4 5 6 6 6 5 6 9 12 14 16 17 17 18 18 20 21 20 21
15 8 8 12 13 16 7 8 13 12 9 9 5 5 8 13 18 15 12 11 9 7 5 3 2 5 6 8 6 5 5 5 5 4 4 6 8 11 12 14 16 19 21 23 22 23 21 20 21
16 4 11 16 16 17 13 10 17 14 8 5 2 1 7 9 13 11 9 7 5 4 3 3 6 9 8 6 6 6 4 4 2 4 7 9 13 16 17 17 17 19 22 24 24 25 23 22 21
7 2 8 16 11 3 3 13 14 7 4 2 2 4 6 6 8 8 8 7 4 2 5 8 8 8 6 5 4 3 1 1 3 6 9 13 15 18 19 19 19 20 22 24 27 28 24 23 25
4 1 16 11 11 11 13 11 5 4 4 8 10 11 9 10 11 11 8 7 7 6 8 7 5 9 6 4 2 3 4 5 6 9 12 16 16 19 20 20 20 23 26 29 30 28 28 30 32
5 13 6 18 19 15 14 8 2 5 4 4 8 13 18 19 21 19 17 10 9 5 7 6 7 3 5 3 4 7 9 10 10 13 16 18 18 20 22 21 22 27 29 32 32 33 34 37 39
6 11 11 15 17 12 11 6 3 6 6 6 7 11 14 14 14 14 13 12 9 7 4 1 0 5 6 7 10 9 10 12 13 16 18 18 18 20 21 23 28 33 34 34 35 36 38 43 43
13 14 14 16 17 14 9 6 6 4 6 9 11 8 9 7 8 8 7 7 6 4 1 3 8 12 13 14 14 12 5 13 13 18 16 18 19 21 26 32 34 35 36 36 38 40 43 46 47
15 8 12 15 16 12 9 6 9 6 4 7 8 7 6 5 4 4 4 4 5 3 4 9 15 19 24 24 13 17 23 18 16 16 16 18 22 25 31 32 33 33 36 41 42 46 47 51 50
10 7 6 12 10 8 11 4 14 8 7 5 7 7 8 8 8 7 5 7 8 6 9 14 21 29 27 24 18 22 13 13 16 17 18 23 24 27 32 32 33 33 40 47 47 49 52 53 52
12 12 11 9 11 9 9 12 11 13 11 11 11 11 11 12 12 11 9 9 11 13 13 15 24 23 24 22 22 19 16 15 16 18 22 27 30 32 34 35 37 43 44 46 49 50 51 53 54
5 8 12 13 11 16 15 10 6 15 13 15 14 15 16 17 17 15 15 14 13 14 15 17 19 20 22 20 19 20 20 19 20 26 27 32 32 35 38 40 42 45 47 50 53 55 55 51 50
6 9 12 13 20 17 14 12 13 17 16 16 16 17 19 20 19 17 16 16 15 16 15 16 18 21 21 17 18 17 19 23 28 28 31 35 34 37 40 44 46 48 50 54 55 53 52 50 50
6 5 9 16 17 10 11 9 12 18 17 16 14 11 10 5 1 4 6 8 10 13 17 18 18 20 22 21 22 23 22 23 25 28 32 35 38 40 45 49 50 54 52 52 48 50 51 50 49
8 7 8 16 17 9 13 6 11 14 14 11 8 6 6 7 2 4 5 5 12 17 15 15 18 18 18 16 20 22 26 29 32 37 42 45 48 50 52 55 54 50 49 51 53 56 57 54 45
6 5 6 8 10 11 13 5 15 16 16 15 12 11 10 6 2 7 5 13 22 15 9 12 12 13 18 22 25 29 32 36 40 44 46 48 51 54 54 54 53 52 54 57 55 51 49 48 47
12 7 7 5 6 3 13 10 14 26 26 22 18 15 11 7 8 9 3 12 11 11 14 12 13 18 20 27 32 37 40 42 45 49 47 50 52 52 52 51 49 48 48 47 44 47 51 37 42
10 10 1 1 0 4 8 10 16 14 26 23 16 14 10 9 8 11 17 20 12 16 16 18 21 24 28 34 36 39 42 44 45 47 50 52 52 50 49 48 48 49 49 44 43 49 41 45 42
9 13 5 6 3 4 7 6 7 13 22 19 13 13 15 12 15 20 17 17 18 18 19 20 23 26 30 36 43 45 45 45 47 49 50 50 50 49 51 52 51 49 46 41 47 50 45 45 36
4 4 8 3 3 2 4 6 6 11 22 23 22 22 19 18 22 21 20 22 22 23 23 23 22 26 32 40 44 44 45 46 48 49 48 47 48 50 50 50 46 30 45 36 38 33 37 37 36
5 6 2 2 3 2 3 6 8 16 23 24 26 23 21 20 22 22 23 24 26 27 27 29 29 31 35 41 43 43 43 44 45 45 45 46 46 46 47 46 37 36 36 35 34 35 33 32 34
7 3 2 2 1 5 1 5 8 13 15 16 20 21 21 22 22 24 27 27 29 29 29 31 33 36 40 40 41 42 43 43 43 43 44 44 45 45 44 43 40 40 41 40 34 28 31 34 34
7 5 4 3 3 3 2 7 8 12 20 23 23 23 23 23 25 27 30 30 29 29 29 33 37 41 38 38 40 43 44 45 45 45 46 46 45 43 41 40 37 34 29 30 27 30 31 32 33

GFSSGP_700_spd_009.txt.gz
Wind_Speed
14 10 9 10 7 8 7 4 2 4 8 12 10 12 13 15 9 3 11 20 14 19 18 16 14 11 8 7 4 2 1 3 3 5 6 8 8 6 8 9 11 13 14 14 14 14 14 14 13
14 10 10 9 9 9 5 11 4 7 9 13 7 11 11 14 12 11 9 4 19 19 16 15 15 10 8 6 4 1 2 2 4 5 6 5 5 8 10 12 13 13 14 15 16 16 16 15 14
15 13 10 7 11 11 3 9 16 13 8 11 13 3 1 3 3 5 12 16 17 16 16 15 13 10 8 6 4 2 0 2 5 6 4 5 7 8 10 12 12 13 14 15 16 16 16 16 16
14 13 12 9 11 8 4 19 17 15 7 2 7 2 12 7 10 7 13 17 18 21 16 13 11 10 8 5 3 2 2 4 5 3 5 6 7 9 11 11 13 13 13 13 15 17 17 17 16
16 14 12 7 7 6 8 15 17 14 11 5 2 1 7 11 7 12 15 18 20 20 17 14 11 10 7 5 4 3 4 2 3 5 6 7 8 9 10 11 12 12 13 14 17 19 20 19 18
18 13 7 10 4 7 11 15 20 12 9 10 8 4 7 9 13 15 18 20 21 18 16 14 12 9 7 5 4 4 1 5 6 7 7 8 8 8 9 11 12 13 14 16 19 21 22 20 19
15 13 6 4 2 3 16 20 12 7 5 7 9 3 3 12 15 16 20 21 20 18 15 12 9 6 5 4 2 4 7 7 7 8 7 6 6 7 9 11 12 14 15 16 18 20 21 19 17
12 13 5 7 15 12 16 15 6 7 3 7 12 1 6 12 16 19 18 17 18 16 14 10 6 5 4 6 8 7 7 8 9 7 5 4 5 7 8 9 11 13 15 17 19 20 21 20 18
13 8 7 12 10 14 15 8 10 11 9 13 3 8 7 15 17 17 17 16 14 12 9 7 6 7 9 9 8 8 8 8 7 5 3 2 5 7 9 10 11 14 16 18 20 22 22 22 20
14 5 10 14 10 10 5 10 8 10 8 3 3 6 10 15 15 14 13 11 10 8 6 5 9 11 11 10 10 8 6 6 5 2 0 3 7 9 11 12 13 15 19 22 23 24 24 24 22
14 3 11 14 9 8 5 5 6 7 5 1 1 5 12 15 16 14 13 13 9 7 5 8 10 11 11 10 8 6 4 4 2 3 4 6 10 11 13 15 15 17 20 24 27 28 26 26 26
7 6 13 15 10 13 12 3 9 7 6 10 9 8 12 14 14 14 11 10 9 8 11 10 10 9 8 7 7 7 7 6 5 6 9 11 12 13 15 18 19 21 24 28 30 30 29 30 33
4 1 13 17 18 19 12 7 5 8 6 11 17 17 20 22 20 17 15 14 10 10 10 9 9 8 7 8 7 7 8 9 9 10 11 12 13 14 16 19 20 23 28 29 30 30 32 36 37
3 6 6 21 17 19 12 10 7 6 7 12 18 21 21 20 21 17 13 13 10 8 8 9 8 9 9 8 10 12 11 7 13 13 21 17 11 17 20 20 25 27 29 31 31 33 36 40 40
5 9 8 16 19 17 13 9 9 10 12 11 16 17 17 17 15 15 14 12 10 8 8 7 8 12 13 15 18 14 17 17 25 15 17 17 15 17 20 23 27 32 31 35 36 37 41 44 45
14 11 12 16 16 17 11 12 9 11 15 13 12 12 12 11 9 10 11 11 11 10 10 10 12 16 20 19 19 18 17 10 8 12 13 15 18 20 22 27 36 35 37 36 37 43 46 48 48
14 8 10 14 14 12 9 7 11 12 12 12 10 10 10 9 8 8 7 7 7 8 10 12 15 21 22 24 20 20 9 9 9 10 15 18 20 26 31 37 35 37 39 42 44 46 49 51 52
11 11 14 14 11 8 10 7 5 12 12 10 10 10 10 10 9 8 9 8 8 8 11 14 16 20 21 23 18 13 11 12 13 14 18 24 31 33 35 35 36 37 39 43 46 48 51 53 53
8 8 12 13 13 11 9 6 7 12 13 11 11 12 13 14 12 12 12 12 13 14 14 14 17 17 18 20 19 18 19 19 19 21 23 25 28 29 31 34 37 39 42 45 46 49 50 49 49
7 6 8 13 16 14 14 12 8 8 15 15 15 14 14 16 16 14 13 14 16 12 12 13 15 16 15 16 19 18 19 19 21 24 27 30 33 37 39 42 44 46 49 50 50 49 49 51 53
2 3 5 6 19 16 12 10 11 13 18 18 16 14 12 8 7 6 3 2 1 6 10 9 9 11 13 16 16 18 21 23 25 28 31 35 39 42 43 45 48 49 51 52 53 53 53 54 55
1 3 5 5 17 7 14 6 13 16 19 19 16 12 10 10 10 5 3 3 4 11 15 17 12 12 12 11 13 16 20 25 30 33 37 40 41 42 44 46 48 49 50 51 50 50 50 49 48
4 5 5 12 10 7 13 5 11 19 20 20 16 14 14 14 10 7 5 5 14 22 19 10 16 11 12 14 19 23 26 31 36 38 40 42 44 45 45 46 46 46 46 46 46 45 44 42 42
4 8 10 8 6 3 9 14 11 20 23 23 20 18 17 16 12 9 5 10 16 14 12 18 17 16 18 19 24 28 31 37 39 40 42 43 44 45 46 46 46 45 44 44 43 41 38 43 45
7 13 3 2 2 4 8 10 20 8 18 25 23 21 21 18 14 9 7 14 10 12 16 18 19 20 22 23 27 31 34 38 41 43 43 44 44 43 44 45 45 45 44 44 42 40 42 45 40
11 14 6 5 3 2 7 7 11 13 18 20 20 22 21 18 13 10 12 12 14 16 20 21 23 26 27 28 30 34 40 43 42 43 43 43 43 43 44 44 45 46 45 42 32 44 39 37 38
7 10 12 3 2 1 5 9 12 13 16 24 27 26 23 19 15 13 15 15 19 20 22 26 29 31 31 32 37 40 42 39 41 41 40 41 42 43 43 44 44 43 41 38 35 34 40 31 30
7 8 4 5 3 3 4 9 13 7 12 23 29 29 25 21 18 17 18 20 24 25 27 31 35 31 36 38 40 38 37 38 39 40 41 41 42 43 44 43 40 38 36 32 32 28 29 29 29
10 8 4 4 3 3 2 5 3 4 9 11 15 20 22 22 21 21 22 25 28 30 33 38 39 30 37 39 38 35 37 39 42 42 42 43 44 44 42 41 37 33 31 30 28 28 29 28 30
10 9 7 4 5 6 3 7 3 3 8 15 19 19 22 24 24 26 28 30 32 33 37 41 35 39 41 36 34 37 40 42 43 43 44 45 44 43 42 38 34 31 27 24 24 28 29 29 32

GFSSGP_700_spd_012.txt.gz
Wind_Speed
16 13 10 9 5 8 12 10 6 5 4 8 9 9 15 15 13 9 10 18 23 20 18 19 18 14 13 11 7 4 2 1 1 4 5 6 6 7 8 10 11 13 13 14 14 13 12 12 11
15 14 10 9 8 14 12 10 8 8 4 10 10 12 9 9 13 17 19 22 21 18 18 18 18 14 12 9 7 4 2 1 2 4 4 4 5 7 9 10 12 13 13 13 13 15 15 14 13
16 14 8 6 11 15 8 6 12 14 8 8 11 6 7 3 10 12 12 17 18 21 19 17 16 13 11 9 6 3 2 0 3 3 2 5 6 8 9 10 11 11 11 13 15 17 17 15 14
16 14 12 9 12 8 5 10 15 11 3 1 6 9 12 19 12 15 15 17 26 20 17 16 15 13 10 9 6 3 1 2 2 3 5 5 7 9 8 9 10 10 11 13 15 17 17 16 14
15 13 11 11 11 7 7 12 13 7 6 6 3 1 8 19 18 14 23 28 21 22 18 17 14 12 10 7 4 3 2 1 4 6 5 7 8 8 7 8 10 10 11 12 14 15 16 17 16
13 13 8 15 5 5 6 14 11 7 2 3 2 5 9 9 11 15 17 11 16 18 20 17 14 12 9 6 4 2 4 8 9 8 8 8 7 6 7 8 9 10 11 13 15 17 17 17 17
11 12 10 5 4 4 10 13 12 13 7 6 6 8 8 10 12 17 19 20 22 20 17 15 13 11 9 7 5 7 9 10 10 10 9 8 6 4 5 6 7 9 11 12 15 17 18 20 19
12 10 8 6 7 12 15 11 11 7 2 11 7 8 9 10 14 17 20 23 22 19 16 14 11 10 8 8 10 11 11 12 12 11 10 6 4 2 3 5 7 10 12 15 17 19 21 23 22
15 10 10 9 9 15 11 12 10 5 8 7 6 6 8 12 19 23 23 22 18 17 14 13 11 9 11 12 12 12 12 12 12 11 9 6 3 1 4 6 8 13 16 18 19 22 25 25 24
11 9 7 10 14 7 12 5 6 3 3 6 3 8 12 14 18 17 18 19 16 13 10 8 10 12 13 12 12 12 11 12 13 12 10 8 6 4 4 6 9 14 17 18 21 26 28 27 25
12 5 10 15 8 11 15 10 6 6 11 2 3 8 19 19 19 18 16 14 13 10 8 10 12 13 12 12 13 12 12 12 12 11 9 10 9 7 7 9 12 16 17 19 24 29 29 28 25
11 8 14 12 9 10 11 4 6 6 4 5 11 10 17 18 19 17 14 13 11 10 11 12 13 12 12 12 11 10 9 10 10 9 11 12 12 11 11 12 16 18 18 23 27 30 31 28 30
10 8 9 15 16 12 14 4 9 7 8 9 17 17 16 17 18 17 15 14 12 13 13 13 12 12 11 10 9 9 11 11 8 10 14 20 18 17 14 14 17 19 24 26 31 32 30 32 35
6 4 18 17 18 12 11 10 10 10 14 17 21 22 22 21 18 17 16 15 14 13 11 10 9 8 9 10 12 14 15 12 8 8 25 19 33 23 15 16 20 24 28 32 34 33 35 36 38
8 4 10 24 14 11 13 10 10 13 17 20 24 23 21 19 17 18 17 14 11 10 8 9 10 12 15 18 19 20 23 15 16 14 24 30 23 13 14 20 22 28 33 35 35 37 40 41 43
7 10 9 13 13 13 14 11 12 15 18 20 20 20 19 19 17 16 15 14 13 11 11 11 11 13 17 20 28 25 19 13 6 16 16 18 16 16 20 25 31 34 34 35 38 40 40 45 46
12 9 11 13 17 17 7 11 14 16 19 19 20 19 17 15 15 14 13 13 13 13 13 13 15 18 20 22 22 14 6 7 7 10 12 14 17 22 27 30 33 34 36 38 39 43 44 44 48
12 9 14 14 15 12 8 8 14 17 16 17 17 17 15 13 12 11 10 10 11 11 12 13 14 15 18 17 17 12 9 8 9 11 13 16 20 23 27 31 34 37 39 41 41 44 46 47 50
8 8 14 14 17 13 12 12 10 18 17 17 16 15 15 14 13 13 12 13 14 14 14 14 15 14 14 15 11 12 13 10 13 14 16 19 23 27 30 33 36 37 39 41 45 45 45 47 48
4 12 12 16 16 14 13 12 9 13 18 17 16 15 15 14 16 17 18 18 19 20 15 12 12 14 14 12 14 12 11 13 16 18 21 25 29 32 34 36 38 41 43 46 47 47 46 45 50
9 9 8 9 21 19 14 11 15 15 14 17 19 18 16 16 15 15 12 9 9 8 6 7 9 9 8 9 11 12 12 14 18 23 27 31 34 36 37 39 41 43 45 45 46 47 47 46 47
5 5 2 2 14 14 19 13 16 19 18 19 21 21 18 17 14 12 10 12 9 3 9 10 7 9 13 11 12 12 16 20 24 29 32 37 37 38 40 41 42 43 42 42 44 44 43 47 45
7 5 4 5 9 8 12 12 8 17 19 22 24 23 19 16 14 14 16 12 5 8 9 8 14 15 14 14 16 20 23 26 29 31 35 36 38 40 43 43 43 43 42 42 41 44 45 44 43
7 6 8 7 6 8 8 12 10 13 17 21 24 22 20 19 20 19 15 8 7 7 9 10 14 16 17 21 24 25 28 29 32 38 39 38 41 41 41 43 41 41 41 42 42 41 39 34 37
8 10 6 7 6 7 6 9 20 12 13 19 22 24 22 21 20 17 11 8 8 7 10 13 17 19 22 26 28 30 31 33 36 37 38 39 39 39 38 38 39 40 41 41 41 36 39 36 38
11 10 6 5 6 7 5 9 10 17 23 18 18 20 22 23 21 17 14 11 9 11 14 17 20 24 28 30 30 31 32 38 42 39 39 38 40 40 39 39 39 40 41 41 38 31 40 35 35
9 10 11 5 3 5 11 11 15 16 16 18 23 27 26 25 23 20 17 15 13 16 20 23 26 29 34 34 35 30 36 43 37 36 37 37 38 40 41 40 39 39 38 36 32 37 35 31 27
9 7 4 6 3 5 4 9 10 7 15 17 24 28 28 28 26 24 22 19 19 22 25 28 30 33 37 36 33 39 42 36 34 35 36 38 39 41 41 41 40 39 37 26 34 34 27 26 25
12 9 8 5 3 3 3 2 3 3 8 9 14 24 28 29 28 25 24 24 24 27 29 30 33 38 42 39 36 41 34 33 34 37 39 40 41 41 41 40 39 36 32 32 29 26 25 22 21
15 10 10 7 5 5 1 7 3 2 3 10 14 20 27 28 29 27 27 28 30 31 32 34 39 40 40 35 35 31 33 35 38 39 41 42 43 42 42 40 39 35 31 29 23 25 20 22 26

GFSSGP_700_spd_015.txt.gz
Wind_Speed
14 14 11 9 7 12 21 23 13 9 8 5 8 6 7 14 11 14 16 19 21 24 23 20 18 16 16 14 10 8 5 4 2 2 2 3 4 6 8 10 11 11 11 12 12 13 13 12 11
15 15 10 6 12 20 21 18 6 8 11 9 6 6 9 3 14 12 11 15 21 23 23 20 19 18 17 14 10 7 4 4 2 1 1 4 6 7 9 9 10 10 10 11 12 13 13 13 12
13 13 7 10 17 21 17 2 10 10 7 4 7 10 12 4 9 13 15 24 26 25 22 19 18 18 17 12 9 6 5 4 2 1 5 6 7 9 8 8 9 9 10 11 12 12 14 14 14
11 12 11 13 19 13 12 2 10 7 8 4 3 6 10 4 8 14 16 20 21 22 25 24 19 17 15 12 9 6 6 3 2 5 6 7 8 7 7 7 8 8 9 11 13 15 15 16 15
13 10 15 16 18 14 7 12 7 14 10 6 5 0 7 1 14 16 17 20 20 22 25 24 17 14 13 12 9 7 5 3 6 8 8 9 8 7 6 7 7 8 9 12 13 15 16 17 17
10 11 17 20 19 8 8 12 11 5 6 5 4 7 5 9 10 27 24 21 26 20 25 19 10 14 13 11 8 6 5 7 9 10 10 10 7 6 5 5 6 7 9 11 14 16 17 18 19
14 13 17 17 3 9 11 8 11 13 16 1 0 8 4 5 8 8 13 11 13 28 21 19 14 14 12 9 8 7 8 11 11 11 12 9 7 4 2 2 5 8 10 12 15 16 19 21 22
12 14 19 13 6 12 15 7 4 6 11 13 5 4 10 8 13 12 9 10 7 12 17 17 16 13 10 9 9 10 11 12 11 11 11 9 7 4 1 2 6 10 13 14 16 17 21 25 25
12 13 19 14 13 9 8 10 7 7 14 8 5 3 7 6 10 15 12 15 15 15 16 16 12 11 11 11 11 10 10 10 12 13 12 9 6 4 3 5 8 12 15 17 18 21 24 28 27
13 13 14 9 16 17 13 9 8 9 10 6 3 7 6 10 14 16 14 15 15 14 12 11 10 10 9 9 10 11 12 13 13 13 11 10 7 6 7 7 9 11 15 18 19 22 26 30 27
14 11 8 4 6 3 8 14 10 8 14 8 9 8 14 17 17 16 15 14 13 12 10 8 9 10 12 13 11 10 10 10 11 10 10 9 10 12 12 11 11 13 17 16 21 26 27 32 33
10 10 6 10 6 8 5 5 15 3 14 14 13 14 19 20 19 18 17 15 12 9 7 10 13 13 12 12 11 9 10 10 11 10 8 10 14 20 20 18 15 17 18 20 24 27 34 37 32
8 7 8 9 7 10 8 8 8 11 9 14 18 19 18 18 17 16 13 12 10 10 11 11 11 9 8 10 11 12 11 9 7 6 9 10 17 25 24 26 24 23 21 22 26 31 35 35 34
9 9 8 9 10 9 7 6 2 8 9 16 18 17 17 16 14 14 14 13 13 13 10 9 8 7 9 11 13 13 16 14 8 6 18 20 30 33 30 25 23 23 24 24 30 36 35 36 37
7 7 12 11 15 8 7 6 4 8 11 16 16 16 15 14 14 14 14 14 12 10 9 7 7 9 11 13 15 20 27 18 22 12 16 20 21 26 28 16 20 23 31 27 33 37 38 39 42
8 10 18 15 13 10 13 11 9 12 13 14 15 15 15 15 15 13 14 13 11 11 10 10 11 11 13 15 18 19 14 5 6 10 15 20 22 21 18 21 24 26 31 35 37 39 44 43 43
10 11 10 15 13 9 11 13 12 14 15 14 15 16 17 15 15 13 13 12 11 11 12 12 13 15 16 18 19 16 10 3 5 8 9 11 13 14 17 22 25 28 32 37 40 41 41 45 47
9 13 14 13 14 14 8 10 13 15 16 15 14 15 15 16 16 16 14 14 14 15 16 15 16 18 16 17 16 13 10 7 7 7 9 10 12 16 21 27 28 31 35 39 42 44 44 46 46
10 9 13 14 11 13 11 9 14 16 16 16 16 16 15 15 18 18 17 15 16 17 18 16 17 17 16 16 14 13 11 10 10 10 10 14 18 21 24 29 33 37 38 42 44 46 46 45 44
5 6 11 8 12 11 12 12 12 16 17 17 17 17 17 17 20 20 19 19 19 20 20 18 16 14 14 14 13 12 12 12 12 13 15 19 23 28 32 34 35 38 40 42 44 45 45 44 44
6 10 11 10 13 12 12 16 15 16 19 21 19 17 18 19 20 20 21 22 21 19 18 12 8 11 12 11 11 12 12 12 15 20 24 26 28 33 37 38 39 40 41 43 43 44 44 42 44
9 7 10 6 9 21 19 21 24 21 22 20 21 20 20 18 19 18 17 16 15 12 9 7 7 6 9 10 11 12 7 10 21 25 30 32 39 38 38 39 40 40 41 41 41 40 44 43 44
6 9 8 8 14 7 14 15 18 18 20 20 21 20 20 21 18 16 18 18 16 13 9 8 7 7 9 13 16 18 19 23 28 30 33 39 39 42 40 40 41 42 40 40 41 42 40 43 44
7 5 6 9 14 10 20 17 17 18 17 17 18 20 21 21 20 21 23 21 18 15 12 11 12 14 15 17 20 22 25 29 32 34 35 40 40 38 39 39 39 38 40 39 40 41 41 40 37
7 9 14 11 11 11 8 9 20 13 8 14 20 19 22 23 23 25 24 22 19 14 13 15 16 16 19 21 25 28 30 33 38 30 37 36 38 38 39 38 37 37 37 39 38 38 38 31 32
11 14 16 6 6 11 6 9 7 11 9 9 20 20 20 22 24 25 25 24 21 16 17 18 18 19 23 26 31 33 35 39 34 34 33 36 37 38 39 39 39 38 38 38 39 36 24 31 28
10 12 11 8 6 10 19 19 13 12 13 10 19 22 21 21 24 25 28 27 24 20 19 21 22 23 26 30 34 36 36 39 37 33 35 36 37 37 39 39 40 41 39 40 25 21 29 30 35
11 4 6 10 4 9 7 8 8 4 6 11 19 22 22 22 23 27 30 28 26 25 24 24 26 28 30 33 37 39 40 39 35 31 33 35 37 39 40 39 39 40 40 22 24 31 27 28 22
10 14 11 6 5 4 4 3 3 4 5 11 16 21 22 23 24 27 30 29 29 30 29 29 31 33 33 36 39 41 41 34 30 32 35 37 39 40 40 40 40 38 34 33 30 27 25 25 21
8 11 13 10 7 5 4 13 9 4 2 7 12 19 22 23 24 27 30 31 33 33 33 35 36 37 35 39 42 40 34 31 31 34 37 39 40 41 41 42 44 41 36 31 24 21 19 18 26

GFSSGP_700_spd_018.txt.gz
Wind_Speed
13 11 9 7 9 11 20 23 22 9 6 11 9 4 8 13 15 10 13 12 11 17 26 24 22 21 20 16 13 11 8 8 5 3 3 5 8 8 9 9 10 12 13 13 14 15 15 15 15
13 13 8 5 13 19 25 19 3 2 12 5 4 4 5 12 21 14 17 21 18 22 27 23 22 21 20 16 13 11 8 7 5 3 5 7 8 9 9 10 10 11 11 12 13 14 15 16 16
12 13 8 9 16 24 25 2 14 6 4 7 7 14 9 2 14 15 15 17 18 28 27 25 23 20 18 16 11 9 7 6 4 4 8 8 9 9 9 10 9 9 10 11 12 14 14 15 16
10 10 12 11 22 24 20 1 9 6 9 3 3 3 7 11 14 19 18 18 20 27 28 27 24 23 21 17 12 8 6 4 3 8 9 10 10 9 9 9 9 8 9 10 12 14 15 16 17
13 9 13 17 19 21 16 4 12 15 15 9 8 1 6 15 13 16 20 29 25 27 30 28 25 22 17 13 8 8 6 4 6 10 10 11 10 8 8 7 6 6 8 10 12 13 15 17 17
9 8 17 22 24 21 5 14 10 9 6 9 11 4 3 2 20 16 18 21 23 26 32 31 22 22 15 13 11 8 6 6 10 10 11 10 9 7 6 4 4 5 8 10 12 14 16 19 21
15 15 18 23 22 15 2 13 11 6 7 9 10 15 1 6 3 17 17 18 21 26 23 25 19 18 14 11 11 7 5 8 10 10 11 10 8 6 3 1 4 7 9 11 12 13 17 20 23
11 14 23 25 25 14 16 9 3 2 10 14 4 8 4 18 4 5 7 25 16 19 12 19 16 18 13 11 7 5 8 10 10 12 12 10 8 5 2 2 6 9 11 13 14 15 18 21 24
11 18 22 20 23 8 21 3 4 4 10 13 12 17 14 12 7 7 3 18 18 23 17 15 13 12 11 6 4 6 9 11 11 12 12 9 5 5 4 7 8 11 12 14 16 17 19 21 25
15 17 16 8 5 11 15 10 8 1 6 4 2 29 11 7 7 7 12 12 15 14 13 12 11 8 6 7 8 10 10 9 11 10 11 8 6 7 10 13 15 16 16 18 18 16 21 23 28
15 20 15 9 22 20 6 5 7 13 13 5 14 6 8 12 13 11 11 13 13 13 13 12 7 8 8 8 10 9 9 8 9 9 8 5 8 10 14 17 20 24 21 17 17 21 17 27 32
15 14 14 11 15 16 5 13 8 7 19 13 10 8 8 14 12 11 8 7 11 10 6 7 9 8 8 9 8 10 10 11 7 7 7 8 13 13 13 16 18 18 27 21 25 23 24 31 33
13 10 9 6 9 9 1 8 9 10 13 14 15 15 10 14 13 14 11 4 7 8 10 10 9 6 7 8 9 6 7 7 4 9 11 14 22 22 26 23 24 27 41 30 29 30 32 29 32
12 8 4 2 3 3 5 10 6 9 15 16 14 15 11 13 9 15 8 9 8 8 10 11 9 8 7 4 4 6 9 11 15 22 24 23 26 25 23 26 20 17 21 23 28 28 29 32 34
7 8 4 5 8 6 4 12 9 11 14 14 16 14 12 11 10 11 13 9 8 11 10 9 7 6 4 4 8 11 15 10 6 5 14 21 21 22 21 21 16 17 19 24 27 30 33 37 38
6 7 6 3 9 6 4 12 10 13 13 19 15 10 12 12 11 13 11 9 7 9 7 5 4 6 6 7 10 13 14 14 10 3 12 15 19 19 16 16 16 17 22 28 32 35 37 39 42
9 8 13 13 10 4 8 13 12 13 14 21 16 14 15 14 11 12 11 8 7 9 7 7 8 10 11 12 13 15 15 12 8 6 10 12 11 13 15 16 19 23 27 32 37 38 40 42 43
8 8 14 14 12 12 8 14 16 15 11 15 16 16 15 16 18 12 12 10 7 12 13 11 12 13 14 15 16 16 15 13 10 8 10 11 11 13 18 23 25 28 32 36 38 39 41 42 43
8 15 19 11 13 12 12 13 14 16 16 13 15 22 12 14 12 13 12 10 13 19 20 17 15 15 15 16 16 16 15 13 13 11 12 13 15 17 20 25 31 34 36 38 40 41 42 41 42
12 8 12 9 8 13 12 13 16 18 20 18 17 12 14 13 21 16 16 16 19 23 23 20 18 17 16 15 16 15 15 15 14 13 15 16 20 25 32 35 34 38 38 38 39 40 42 41 40
9 7 11 9 7 10 7 15 17 18 19 18 18 19 18 20 25 21 22 23 26 28 25 22 22 16 14 14 10 14 15 15 19 18 19 20 23 28 33 36 39 36 35 37 38 38 40 41 40
11 2 9 9 13 13 13 14 20 13 19 22 22 22 22 22 26 26 23 25 26 27 24 20 16 15 14 12 13 13 18 21 21 24 28 30 31 32 35 36 37 37 38 37 38 38 38 39 41
3 5 7 16 12 11 6 17 26 29 20 27 27 30 25 27 27 27 21 21 20 20 19 18 17 15 13 14 15 16 20 22 23 27 29 35 34 35 37 35 34 36 37 38 37 37 38 37 39
2 5 10 12 16 3 19 20 16 29 13 23 22 22 26 29 31 29 25 22 21 21 21 18 18 15 16 17 18 20 22 26 30 29 33 41 35 33 34 33 35 37 37 37 38 38 38 40 41
8 10 9 9 6 9 12 13 17 18 20 21 20 26 26 25 25 24 24 22 24 23 21 19 19 18 18 18 19 22 25 29 31 33 37 46 41 36 34 34 36 38 38 37 37 39 41 37 36
14 13 8 7 4 10 5 6 1 9 11 5 22 23 21 21 23 23 24 23 25 25 22 21 22 22 21 20 21 24 27 31 35 36 39 41 37 35 35 35 38 39 40 38 41 41 39 34 27
9 12 11 8 12 10 5 17 3 6 5 1 18 20 20 19 21 25 25 26 27 27 25 24 25 27 25 27 27 28 29 33 35 39 41 35 35 33 35 37 38 37 41 42 42 38 33 28 29
11 8 5 5 2 4 11 14 4 3 1 3 12 17 21 22 21 22 25 28 30 30 29 28 29 30 29 29 32 33 34 36 37 39 36 36 33 34 36 38 38 38 38 40 37 35 32 29 28
8 10 12 10 7 1 3 4 6 3 3 4 9 17 21 24 21 24 24 29 32 31 32 31 33 35 35 33 34 36 37 39 38 36 37 34 33 36 38 38 38 39 39 39 34 31 28 25 24
7 9 13 10 8 5 3 13 12 10 5 10 8 15 20 24 24 26 26 31 31 32 34 33 34 37 37 36 38 39 40 40 36 37 36 35 35 37 37 37 40 41 38 35 34 31 24 21 21

GFSSGP_700_spd_021.txt.gz
Wind_Speed
10 8 10 9 9 9 14 15 17 13 16 7 7 11 17 16 12 11 11 5 15 15 22 25 26 27 24 21 18 16 14 12 9 7 6 8 9 11 11 11 11 12 12 13 14 15 15 16 16
9 11 12 10 11 15 16 16 12 12 9 11 11 11 15 20 19 19 19 13 13 16 25 29 28 27 23 20 18 15 13 11 8 6 7 8 10 11 11 11 10 10 11 12 13 14 15 15 16
9 11 15 6 13 20 17 6 8 6 9 10 9 9 10 9 12 19 25 20 20 18 29 30 28 27 22 19 17 14 12 9 7 7 9 10 11 11 11 10 8 10 11 12 13 13 13 14 13
9 11 14 14 14 16 24 19 8 12 13 6 3 6 8 10 8 11 17 19 18 20 32 30 28 25 22 21 15 12 11 8 7 10 11 12 11 10 9 8 7 9 10 10 10 11 12 14 15
12 14 11 10 17 16 20 15 12 14 11 11 3 4 3 9 10 12 17 22 19 32 35 33 31 26 26 27 22 13 10 8 9 11 11 12 10 8 7 7 6 6 6 7 8 8 11 15 18
14 7 8 15 16 14 3 5 10 16 15 10 6 7 6 5 8 11 15 14 31 38 35 32 30 18 25 27 20 11 8 6 10 12 12 12 10 8 5 3 4 5 6 8 8 8 10 12 14
15 8 16 21 25 19 4 7 6 9 6 10 12 6 7 8 6 11 16 21 11 23 26 31 31 19 27 22 12 8 6 8 13 14 14 11 9 6 3 2 5 8 9 10 10 11 12 12 14
9 9 16 17 26 16 14 12 10 8 15 7 7 9 16 12 10 9 16 13 14 24 30 21 25 19 15 11 9 9 8 12 14 14 14 12 7 2 2 5 8 10 12 13 12 13 13 12 14
5 16 19 21 16 11 10 2 7 1 8 7 9 12 11 13 9 11 10 14 16 9 9 13 22 17 11 11 10 8 9 10 12 13 12 9 5 3 3 5 8 9 13 15 16 16 17 17 15
9 16 18 16 20 16 4 15 9 1 7 8 10 13 8 3 8 13 12 13 25 19 20 24 18 12 14 11 7 7 8 8 9 10 9 8 7 7 9 10 12 13 17 19 21 25 25 26 24
8 15 13 14 9 3 7 5 15 15 11 9 7 11 10 12 15 10 21 12 21 22 22 18 13 8 5 6 7 7 8 8 6 6 7 9 11 14 10 13 17 16 19 22 23 27 25 27 28
13 16 16 13 5 13 11 6 4 8 10 3 3 15 12 14 14 14 17 14 16 15 13 12 8 7 6 5 3 2 1 2 4 8 9 13 15 14 14 15 17 24 25 23 30 28 24 26 29
10 12 7 10 14 13 10 6 3 2 16 9 9 15 12 14 9 11 13 15 12 11 10 9 9 8 6 5 6 5 2 1 1 12 13 15 18 18 17 18 19 21 20 20 22 22 24 26 28
7 8 11 7 7 5 3 9 6 6 17 13 11 15 12 13 13 8 7 9 11 13 11 11 10 7 6 5 3 3 4 6 5 11 20 26 22 23 26 24 22 19 16 18 20 21 25 28 31
7 4 1 6 7 5 3 9 9 8 9 12 16 8 11 10 14 6 1 9 11 12 12 12 8 7 5 1 2 5 7 6 9 9 10 17 18 25 22 20 21 18 20 21 23 26 29 34 37
2 6 5 8 6 3 2 10 13 12 7 12 10 9 14 10 10 7 5 5 14 12 10 8 5 4 3 5 6 8 8 9 9 9 8 11 15 18 18 18 17 18 22 25 28 31 33 36 39
8 7 5 10 9 8 8 14 11 14 13 14 8 10 16 12 11 7 7 4 9 11 9 5 4 3 7 8 10 11 12 9 11 11 9 11 13 15 15 14 15 19 23 26 28 31 35 36 35
6 6 16 12 14 11 11 14 16 18 19 14 18 15 16 13 8 5 7 6 4 2 6 6 6 5 10 11 12 16 14 12 14 12 9 10 13 16 14 16 20 25 27 29 33 35 34 34 33
12 9 7 15 16 10 13 18 17 18 14 8 20 18 15 15 11 10 12 12 12 10 8 8 8 10 13 13 16 17 16 16 13 11 12 11 12 16 19 18 22 26 28 32 33 32 33 33 33
13 14 21 18 13 10 13 15 13 19 12 13 16 17 8 17 12 12 13 17 17 14 10 11 13 14 17 19 18 17 18 14 13 15 14 15 16 19 22 25 30 30 31 31 30 32 34 34 35
9 3 9 9 3 9 10 8 17 18 15 16 17 16 13 17 15 12 13 20 21 21 17 17 20 21 21 21 18 18 14 15 15 16 17 18 24 25 29 36 33 33 32 30 30 31 33 35 35
17 6 4 8 3 4 7 3 16 21 18 19 21 17 14 19 19 22 21 21 26 26 19 24 24 26 23 19 18 17 16 18 18 20 21 21 25 29 35 41 36 38 34 32 33 32 33 35 36
6 8 6 13 15 11 9 5 19 19 22 16 23 22 20 22 26 29 32 30 26 31 27 25 27 23 20 19 18 15 18 19 20 24 26 29 31 33 39 42 37 33 32 33 34 33 33 35 37
5 4 5 11 10 6 13 11 10 24 22 22 27 25 25 26 27 31 34 37 33 24 22 22 21 20 19 18 16 16 18 18 21 25 28 29 31 39 40 37 35 35 34 33 32 34 36 37 39
8 9 2 3 5 3 18 9 22 21 20 28 22 27 28 35 34 37 41 34 27 26 23 22 20 19 18 17 19 20 21 22 25 27 28 29 36 39 36 35 35 35 34 33 33 35 37 37 38
8 13 6 5 1 7 14 7 8 13 13 19 15 21 27 34 39 40 39 37 30 23 23 23 23 21 19 20 22 23 26 28 29 30 30 33 37 37 35 36 35 35 36 36 34 35 37 36 36
8 7 12 5 5 2 10 12 3 8 14 14 17 23 29 32 30 28 30 26 21 20 24 27 27 24 22 21 24 27 29 31 33 34 36 38 36 34 35 36 35 34 34 36 38 37 36 34 35
14 10 2 2 5 4 5 6 9 10 9 6 17 20 25 26 25 23 21 21 21 21 24 30 31 29 27 25 27 29 31 33 34 37 39 38 39 33 34 34 35 33 33 36 37 36 34 33 31
15 11 10 8 3 5 1 2 3 1 6 1 11 16 20 22 22 21 20 21 21 21 21 27 33 34 32 30 31 33 34 35 37 40 41 42 36 35 33 34 34 34 33 35 35 34 30 31 30
11 6 7 13 6 3 3 8 16 14 4 6 2 12 18 21 23 25 24 24 24 25 23 22 29 35 37 35 35 36 38 37 39 42 41 42 36 35 33 33 34 36 35 34 33 31 32 28 27

GFSSGP_700_spd_024.txt.gz
Wind_Speed
11 11 12 12 10 6 5 9 13 13 13 15 13 10 9 12 12 7 6 12 16 19 26 26 27 28 27 24 22 20 19 16 12 9 7 9 9 10 10 10 10 10 9 9 9 10 11 12 12
11 11 14 14 10 8 9 14 14 11 15 15 13 11 10 9 9 11 8 13 13 18 25 28 25 25 29 26 23 20 18 15 12 9 10 11 12 12 10 9 8 9 8 8 9 11 12 12 13
12 12 14 9 10 10 12 7 6 10 11 11 12 7 8 13 17 19 12 14 17 19 25 28 31 33 30 26 23 20 18 15 11 9 12 12 13 11 9 7 8 7 8 8 10 11 12 13 12
11 14 15 11 10 9 14 16 17 17 12 10 9 10 8 7 11 15 18 16 23 24 30 33 33 32 29 25 21 19 16 12 10 12 13 13 11 9 7 8 7 6 6 7 8 8 9 10 11
11 12 12 8 6 10 13 15 14 17 13 7 10 9 6 6 5 9 12 22 27 32 38 37 36 32 28 27 20 17 13 11 10 13 13 12 10 7 6 5 4 4 5 6 5 5 6 8 9
12 9 5 6 5 9 9 6 8 13 11 12 8 6 2 2 5 7 14 19 32 40 41 42 39 34 32 32 21 18 13 10 13 14 14 13 9 7 5 3 1 2 4 5 6 7 6 7 8
12 9 10 6 9 14 14 10 10 7 2 7 9 8 6 6 9 10 9 18 36 38 41 39 43 37 40 35 20 17 11 11 15 15 14 12 10 7 4 3 3 2 5 7 10 11 13 12 11
9 6 6 6 17 13 10 13 13 11 9 4 7 7 11 11 11 4 6 11 25 25 29 24 27 30 33 28 17 14 10 12 15 14 14 11 8 8 6 7 5 6 10 11 14 17 17 18 17
7 7 6 10 14 13 9 10 10 11 14 12 16 11 7 8 8 8 3 2 24 27 22 34 29 34 27 19 12 10 9 14 14 13 14 12 10 10 10 9 9 10 12 14 17 17 20 22 18
10 8 5 11 10 16 12 12 12 8 9 7 12 10 7 11 5 5 4 7 16 10 12 32 35 31 21 13 8 8 11 13 12 13 13 13 13 12 12 11 11 11 12 14 20 21 24 25 20
6 2 7 10 12 13 8 8 12 11 11 8 8 14 16 11 13 12 20 23 26 25 25 21 18 17 12 9 11 11 10 9 9 10 11 12 12 12 12 14 14 15 17 25 23 20 24 23 20
9 7 12 16 14 12 6 6 11 6 6 5 1 11 12 12 16 15 20 20 20 20 17 16 14 15 14 14 11 9 7 6 5 5 7 11 13 15 15 16 17 20 23 25 21 18 18 20 22
15 9 4 7 9 13 6 3 4 6 11 8 6 7 9 18 17 17 14 13 15 18 19 18 18 18 16 13 12 9 7 5 4 3 7 12 14 16 18 18 21 23 23 22 19 19 19 19 23
7 4 7 10 5 4 4 6 2 4 13 7 8 9 12 15 15 15 11 9 9 14 17 16 15 16 16 13 10 9 6 1 2 3 9 15 20 23 23 24 24 20 21 20 18 19 22 25 28
7 8 7 9 6 4 10 7 4 8 7 8 12 10 8 9 11 6 8 5 8 14 15 15 15 13 11 10 6 4 3 2 5 6 10 13 17 17 17 19 19 19 18 18 21 24 27 29 31
4 9 7 14 8 6 5 7 7 8 7 13 9 13 8 7 7 8 8 7 10 12 12 11 11 6 5 3 0 1 4 5 7 8 10 11 14 14 16 17 18 18 18 21 24 26 28 31 34
4 6 6 5 10 5 7 9 10 12 12 14 16 15 12 8 5 2 4 8 10 12 8 6 6 3 2 4 4 6 8 9 10 11 11 12 11 12 15 17 18 19 21 27 31 30 29 32 32
2 3 9 11 15 16 13 11 12 12 9 11 15 15 17 10 4 2 5 11 11 10 11 8 7 7 6 8 7 8 11 12 12 13 13 14 12 13 16 18 21 23 23 26 27 30 32 31 30
10 8 15 15 12 16 20 17 14 16 15 7 11 14 16 13 10 8 7 8 8 9 11 8 9 9 11 10 10 11 12 14 14 14 14 15 16 17 17 16 21 25 32 33 30 32 32 30 31
10 17 16 19 14 15 14 18 15 21 16 10 10 16 14 14 15 17 13 10 9 8 10 11 11 11 12 14 16 15 14 15 17 15 13 14 18 18 20 21 24 28 28 29 36 33 32 32 32
17 14 9 3 9 9 12 20 23 19 17 14 13 10 11 9 12 17 15 13 15 15 14 13 12 15 17 19 20 19 16 16 14 13 12 12 13 15 20 22 28 31 32 30 30 32 33 33 35
10 9 10 5 3 2 3 4 26 22 21 23 18 16 18 16 17 18 18 18 16 16 17 18 18 20 24 22 22 17 16 15 12 12 13 15 18 20 23 28 32 34 33 34 33 35 35 35 35
7 5 7 9 10 3 5 3 19 19 26 25 25 24 22 21 24 22 20 20 20 19 19 22 24 25 29 25 20 17 16 15 14 14 16 19 22 24 26 32 36 34 35 36 36 37 38 37 36
5 4 9 8 8 2 6 9 17 19 24 30 29 25 26 26 25 23 22 23 24 23 20 26 31 30 29 20 18 18 18 17 17 20 23 25 27 28 29 32 35 36 36 35 36 38 39 38 39
4 7 3 3 1 4 5 6 12 14 16 26 25 30 24 25 25 21 26 28 29 25 23 28 23 21 19 18 19 20 20 21 23 26 28 32 34 32 34 36 35 38 39 38 39 39 40 40 39
10 10 6 3 3 3 4 8 12 12 12 18 20 22 28 28 23 25 26 27 28 24 29 32 28 21 20 21 23 24 25 27 29 30 33 34 34 37 38 46 39 40 39 42 41 40 40 40 39
5 7 7 6 2 2 5 9 11 12 11 14 18 22 25 26 25 27 27 25 25 25 29 28 26 23 22 23 25 28 30 31 32 34 35 39 39 41 42 43 43 37 39 40 40 40 37 35 34
16 7 2 4 4 3 4 7 6 7 6 11 15 19 22 26 20 19 20 22 22 20 22 22 22 23 24 26 29 32 34 35 36 37 40 39 41 42 49 45 43 38 41 38 42 38 36 34 33
16 14 13 10 5 4 1 3 7 6 6 4 6 7 14 15 15 15 15 14 12 13 15 15 15 16 20 24 29 34 37 37 39 41 41 44 44 49 40 51 42 42 41 39 32 33 31 31 31
9 14 15 9 6 6 3 9 10 11 6 9 5 4 6 14 14 14 17 16 14 15 17 17 17 17 18 21 25 27 30 35 38 40 42 43 46 50 44 45 42 41 35 29 29 29 31 33 32

GFSSGP_700_spd_027.txt.gz
Wind_Speed
11 13 14 13 7 5 5 6 12 14 16 11 8 8 12 12 10 8 7 11 15 16 20 27 29 30 30 28 24 19 20 18 13 10 8 9 8 9 9 7 6 5 7 8 8 8 9 10 11
12 11 12 9 6 6 7 5 11 13 13 12 9 5 7 9 8 10 13 11 16 18 24 30 31 30 29 26 24 25 21 17 14 11 10 10 9 9 8 7 5 6 7 8 8 9 11 13 14
12 10 10 3 2 8 8 7 11 8 7 9 8 6 6 10 13 10 4 10 16 21 29 32 33 33 31 31 28 24 20 17 13 12 11 11 10 10 9 7 6 7 6 7 8 10 12 13 14
8 8 7 4 5 6 13 15 16 10 11 12 12 8 7 9 14 11 7 13 15 25 31 34 35 35 34 30 28 23 20 16 13 12 12 12 11 10 8 7 6 4 4 5 7 8 12 13 14
6 5 6 7 5 6 11 11 8 10 11 15 10 10 12 7 9 8 10 12 16 26 33 36 39 36 32 30 26 23 19 14 12 12 13 13 11 10 9 7 4 3 3 5 7 9 10 15 16
7 6 5 8 4 8 11 8 5 6 10 11 13 10 7 8 11 10 11 10 15 30 39 41 41 36 33 31 27 23 17 13 13 15 16 14 12 10 8 5 2 1 3 6 8 10 11 12 14
8 8 4 4 6 9 11 7 10 4 3 3 9 9 10 10 10 10 13 12 22 38 39 38 38 38 38 34 32 24 22 21 17 18 16 14 12 10 8 5 3 4 6 8 10 12 13 14 18
9 9 6 2 8 7 12 6 7 9 9 9 5 8 10 11 7 9 5 6 17 28 29 37 41 46 43 37 34 27 19 13 17 17 17 15 13 11 8 7 5 6 8 11 12 13 15 17 23
9 10 5 4 5 10 16 7 10 12 13 16 15 11 9 8 4 4 3 4 11 18 31 33 22 42 31 30 29 19 14 16 17 17 16 14 13 12 11 7 8 8 11 13 15 22 23 17 18
12 7 2 3 7 12 10 8 10 11 9 9 8 6 9 5 4 2 6 5 8 30 18 10 22 33 40 28 16 12 14 17 16 16 16 16 13 10 10 9 9 11 14 15 20 20 16 15 16
8 4 5 7 4 9 9 4 9 7 6 7 7 6 6 9 17 12 13 12 15 23 34 35 32 27 23 18 16 14 14 13 13 12 12 10 9 11 11 12 12 14 15 18 18 18 16 16 15
9 9 12 9 8 9 8 8 5 8 8 7 4 2 7 11 20 14 17 21 18 29 25 27 22 18 21 16 15 13 12 10 8 8 8 9 10 12 13 16 17 18 20 19 19 16 17 18 20
6 5 2 6 5 8 5 2 2 5 3 8 10 14 23 24 28 20 19 22 21 19 22 19 19 21 20 17 15 12 11 10 9 7 7 7 12 14 17 19 20 21 21 18 17 17 18 21 23
8 3 1 7 4 3 3 3 4 6 6 6 8 5 17 21 21 18 16 14 17 22 25 25 23 22 20 18 16 13 9 8 4 3 4 7 11 14 15 15 16 16 15 14 15 17 20 23 26
1 1 4 2 9 5 4 1 3 9 8 9 8 9 13 16 15 13 11 10 14 20 21 20 19 19 18 15 13 8 6 6 2 4 7 9 13 14 14 15 15 14 13 14 17 20 25 30 33
7 7 1 5 9 8 6 4 4 7 5 7 7 10 12 13 13 13 11 12 18 19 17 16 15 14 12 11 10 5 3 2 5 6 8 11 12 15 15 14 14 15 16 18 22 27 31 32 33
3 8 6 6 6 5 9 7 6 5 10 8 8 12 12 12 11 11 13 14 14 14 13 11 10 9 7 5 5 3 2 5 7 8 10 11 12 13 14 15 17 19 21 25 27 28 33 33 34
1 3 4 7 6 11 14 10 9 8 11 6 5 9 11 12 10 10 10 13 12 9 10 9 7 6 5 3 4 5 4 6 8 10 12 11 13 13 14 15 19 21 25 28 31 35 41 37 37
2 6 8 8 12 16 18 17 16 11 13 14 9 5 9 8 7 7 9 9 9 8 9 8 7 6 6 5 5 6 9 9 10 14 14 13 13 14 15 17 21 25 29 33 35 34 33 36 38
2 10 12 12 14 16 15 18 19 18 10 10 7 9 6 6 4 5 5 8 9 7 6 9 10 10 9 9 10 12 13 13 14 14 14 14 12 13 16 19 23 26 29 32 31 30 32 34 35
8 15 12 11 2 7 9 13 19 21 16 17 15 15 12 6 4 3 4 5 8 9 9 10 11 13 13 14 16 17 16 14 13 12 11 12 13 16 18 21 25 28 30 31 30 32 34 34 35
19 7 8 10 1 2 5 3 20 22 18 19 19 19 19 15 11 13 11 10 6 5 11 14 16 15 15 19 20 19 18 17 12 13 15 15 17 20 22 25 29 32 35 32 33 35 35 37 37
9 6 8 8 5 7 6 2 9 21 26 22 21 23 22 23 20 16 14 12 12 12 13 15 16 17 18 22 23 21 20 17 16 17 18 19 22 25 28 32 35 37 37 38 36 40 38 39 41
8 6 5 8 8 2 2 2 9 13 19 23 21 24 25 26 27 24 20 20 18 17 20 18 17 18 21 27 27 25 20 18 19 20 22 25 29 31 34 37 41 40 39 35 40 42 38 41 43
7 6 3 2 2 4 6 6 16 16 16 20 24 26 27 24 28 27 25 23 21 23 23 21 19 20 24 26 20 21 20 23 25 26 29 31 34 36 40 44 42 40 42 44 43 43 40 43 42
6 5 2 3 2 3 6 6 16 11 12 15 18 17 24 24 23 27 25 24 25 27 26 22 23 24 27 22 22 23 24 27 30 32 33 35 37 41 43 44 44 42 53 41 45 42 43 44 44
8 4 6 5 3 1 5 11 14 13 12 14 11 14 17 25 22 21 18 20 22 25 24 23 26 28 25 22 24 25 27 29 30 33 36 40 43 46 49 45 45 48 49 46 47 45 46 45 40
13 12 4 4 3 3 5 6 11 7 4 1 5 11 14 15 17 18 16 12 10 18 20 23 21 18 17 19 20 22 22 26 31 36 38 42 43 46 45 44 47 49 52 48 44 45 46 43 40
25 22 15 12 7 4 1 5 9 6 2 1 4 4 8 14 13 13 14 11 9 11 8 9 10 10 11 12 13 15 18 22 26 30 35 39 41 43 43 45 48 49 50 46 43 41 39 38 38
14 16 13 12 7 8 8 13 11 11 12 11 9 9 5 3 10 9 9 10 12 12 13 14 16 15 15 17 19 19 23 26 26 26 29 33 38 40 43 45 47 49 48 43 42 38 36 38 34

GFSSGP_700_spd_030.txt.gz
Wind_Speed
11 9 11 10 6 4 5 5 6 8 15 12 6 7 7 8 6 6 3 9 14 18 21 28 29 29 28 26 24 21 18 14 11 7 6 8 9 9 8 5 5 5 6 8 10 12 12 12 12
10 7 9 7 3 5 5 6 4 11 7 7 3 2 4 6 6 8 7 8 14 20 24 29 31 31 30 29 25 22 17 17 13 9 9 10 11 10 7 6 5 6 7 9 12 13 14 16 17
9 8 6 3 5 9 5 4 10 12 3 1 4 6 8 7 5 8 4 9 17 22 27 31 32 33 32 30 26 23 19 18 14 10 11 13 12 10 8 7 6 6 8 9 12 13 15 17 18
8 6 4 7 9 7 9 9 11 12 8 7 5 7 8 6 11 7 8 11 12 19 26 30 33 34 32 30 25 22 22 19 13 13 14 14 12 9 8 7 6 6 7 11 12 14 15 16 16
6 4 7 11 8 3 5 5 9 2 8 6 7 8 8 9 10 10 6 7 13 15 22 30 35 37 34 31 30 24 22 19 17 16 16 14 12 10 9 7 5 6 9 11 14 15 15 16 16
5 5 8 10 1 4 4 3 5 0 5 9 10 10 10 8 10 10 6 9 15 19 27 34 37 36 34 27 26 23 22 18 18 16 16 15 13 10 8 7 4 4 8 11 13 13 14 13 15
6 8 1 2 4 7 6 5 3 5 4 6 8 9 9 8 10 9 9 11 13 22 31 36 42 37 36 31 27 25 22 20 18 16 16 15 13 12 9 4 3 6 8 10 13 13 18 18 16
9 4 2 1 2 7 5 4 2 5 6 11 10 7 11 9 7 9 13 12 8 17 31 32 32 45 43 37 30 28 25 20 25 18 18 16 13 10 6 1 3 7 7 8 11 16 19 17 13
8 6 4 2 4 6 7 6 7 9 11 11 10 12 10 8 7 7 9 7 5 22 25 26 32 40 46 37 33 26 29 30 22 19 17 15 12 8 5 3 5 6 8 9 13 16 17 12 12
7 4 4 1 4 6 7 4 6 9 7 6 6 4 8 6 4 3 6 7 12 12 23 34 35 38 39 40 34 30 23 19 19 18 15 12 9 7 5 7 9 9 9 12 15 15 12 11 13
5 4 7 4 6 8 6 5 6 4 4 7 6 8 7 6 4 3 4 9 12 14 29 28 20 25 28 35 25 20 19 20 19 16 13 10 8 8 9 10 10 11 13 16 17 14 11 11 13
8 6 9 7 8 6 8 4 2 4 3 1 7 10 10 15 10 4 16 13 17 17 19 34 41 42 38 31 26 23 20 15 11 10 10 9 8 9 10 10 12 15 18 17 13 12 12 16 20
5 3 1 2 3 2 5 4 3 4 3 9 12 23 14 11 18 11 20 23 31 29 25 24 29 30 26 23 21 19 16 14 12 10 8 7 8 9 10 14 16 14 12 11 12 13 16 20 23
7 1 1 4 3 3 2 5 4 10 12 12 7 17 20 24 20 18 19 17 20 22 23 24 24 24 23 20 18 17 15 14 12 8 7 5 7 9 10 9 8 9 10 11 12 15 19 23 27
5 1 1 6 3 3 1 2 3 5 9 8 3 12 19 19 18 18 18 17 19 21 21 22 21 22 22 21 19 15 14 12 7 4 3 5 7 9 9 8 8 9 10 12 15 19 22 25 28
4 5 1 4 3 2 4 2 3 5 2 7 5 8 15 14 15 15 17 16 17 20 21 21 20 20 20 19 17 14 12 9 5 3 5 7 9 10 10 9 8 9 12 15 20 24 29 32 33
2 5 4 2 4 5 6 3 3 4 5 6 8 11 13 15 11 14 17 18 18 17 16 16 16 14 14 13 12 10 9 6 4 3 6 9 9 11 11 10 12 13 15 19 24 29 32 34 36
2 6 5 6 4 13 10 7 6 4 5 7 8 12 13 14 14 13 15 17 17 16 16 15 13 11 10 8 7 6 3 2 3 5 7 9 10 11 12 13 14 15 19 24 29 31 33 34 33
5 5 5 5 7 12 16 15 9 10 9 7 8 11 13 15 12 13 16 16 15 13 12 12 10 7 6 5 3 3 5 7 7 8 9 10 11 12 12 14 17 19 23 26 28 31 33 33 35
1 5 6 7 11 12 12 14 15 16 13 5 3 8 11 10 12 11 10 11 10 9 9 9 10 10 6 6 7 8 9 11 11 12 11 11 12 13 15 18 20 22 25 28 28 32 32 29 35
8 8 14 12 12 4 7 11 11 17 19 16 11 9 11 9 7 7 5 5 5 3 3 6 8 9 9 8 11 11 14 13 13 13 13 13 15 16 19 21 23 24 27 31 34 33 37 37 39
8 10 13 7 6 4 6 3 8 13 18 20 16 14 11 11 12 10 8 4 4 5 7 11 11 13 13 12 15 15 17 17 15 17 17 16 19 21 22 23 27 29 33 37 41 40 39 40 43
11 10 10 6 4 5 4 3 6 8 19 21 19 19 17 15 13 15 11 11 9 9 9 13 14 14 17 15 16 19 22 20 20 23 21 18 23 24 25 27 31 37 41 42 45 41 44 37 42
10 9 8 7 6 1 5 5 5 9 11 13 17 22 21 21 18 16 15 15 16 15 19 21 23 15 19 19 16 19 23 24 26 24 24 21 25 27 27 35 39 42 48 43 40 39 43 43 40
5 5 3 3 3 4 4 4 10 21 19 20 14 16 22 23 24 23 19 18 15 16 18 23 23 11 15 20 21 23 21 23 26 26 27 25 30 30 34 37 44 45 48 49 41 46 44 44 44
8 4 3 2 1 3 6 6 14 21 18 16 15 12 14 17 20 23 19 18 18 18 21 21 21 17 17 20 23 25 22 20 24 25 27 30 34 37 37 41 43 43 47 45 46 43 44 43 42
6 5 4 3 2 1 7 13 17 8 13 11 13 10 9 11 15 19 16 14 14 17 18 19 19 20 22 24 22 20 15 19 23 24 25 28 28 32 35 39 42 42 45 43 44 45 45 41 42
10 6 3 3 2 3 4 7 9 16 6 5 6 4 7 8 6 8 10 12 11 14 14 19 20 21 22 17 14 14 14 16 17 19 21 23 26 28 33 36 41 43 45 45 47 47 42 42 42
12 12 13 12 6 4 1 5 9 13 2 3 5 5 5 6 8 8 7 9 12 15 12 9 10 9 12 13 14 14 15 16 19 21 22 24 27 29 33 36 39 41 43 44 44 39 39 40 41
19 19 16 17 6 7 7 20 18 17 12 14 12 10 8 3 6 10 10 9 8 8 8 6 10 13 17 15 17 18 18 20 21 22 25 27 28 31 34 36 39 42 45 45 42 39 39 40 35

GFSSGP_700_spd_033.txt.gz
Wind_Speed
8 7 7 8 6 5 6 6 6 3 11 4 4 6 10 12 15 15 4 8 13 16 21 24 24 25 23 23 22 20 18 16 11 6 7 7 7 7 8 9 10 11 13 13 13 13 15 16 17
6 6 6 6 7 7 7 11 7 3 3 7 6 8 9 13 11 12 6 5 11 17 23 26 27 26 26 26 24 21 20 16 6 12 9 9 9 9 9 9 10 12 12 11 11 13 14 16 16
6 4 6 4 8 10 3 1 7 7 2 6 7 7 6 7 5 3 3 6 9 17 22 29 29 29 27 25 24 23 21 14 10 12 11 11 11 10 10 9 10 11 10 11 13 14 14 14 14
4 5 5 8 11 10 5 3 7 5 3 5 4 6 4 7 4 2 5 6 14 15 22 27 29 29 28 27 25 24 23 12 18 14 13 12 12 11 10 10 10 10 10 12 12 14 14 14 14
4 6 8 9 8 1 1 1 4 1 6 3 5 7 6 3 7 8 2 8 11 17 22 27 31 32 31 30 28 27 22 17 19 16 14 13 12 10 10 9 9 10 10 11 13 14 14 14 16
4 5 4 7 1 4 1 4 0 2 3 5 6 9 8 7 7 6 8 8 14 17 24 31 34 36 37 36 31 23 20 23 20 16 16 15 12 10 9 7 7 8 8 11 13 13 16 17 14
5 5 2 2 2 4 3 2 3 5 7 7 7 8 8 6 8 7 9 9 16 20 22 33 40 39 38 39 30 26 24 23 20 19 17 14 13 11 8 6 5 6 7 10 13 15 15 15 11
4 2 3 1 2 5 8 4 2 3 3 4 5 8 7 8 10 9 9 10 15 17 26 33 39 41 40 39 35 28 27 25 20 19 17 17 13 10 6 4 3 4 7 10 11 13 13 11 10
2 4 4 2 5 9 8 4 4 5 7 9 9 11 11 9 10 10 10 9 11 18 25 35 43 38 35 35 37 31 28 26 22 23 17 15 12 8 5 3 1 2 6 9 10 13 13 10 10
2 2 2 2 9 10 8 6 2 5 6 6 7 7 8 9 8 7 10 10 10 9 18 28 31 40 38 39 39 35 29 30 27 19 18 14 10 7 4 4 3 5 7 10 13 14 13 9 9
4 4 3 3 8 7 8 8 5 1 4 8 9 10 11 8 5 5 4 6 11 15 18 25 24 40 42 43 42 38 39 38 22 19 16 12 9 8 6 6 8 8 9 13 15 12 11 10 12
1 2 6 5 8 3 6 5 3 3 1 3 6 10 9 7 6 3 5 10 9 9 17 28 31 22 37 40 40 39 32 26 21 18 16 12 10 8 8 9 9 10 13 13 9 10 10 12 16
3 8 1 2 4 1 2 4 4 1 4 5 7 8 13 13 4 9 10 10 8 11 13 14 29 32 36 33 39 30 23 21 19 15 13 11 10 9 9 10 11 11 8 7 8 9 11 15 20
4 3 3 2 5 1 4 5 4 5 9 6 9 19 15 22 12 18 25 29 24 27 31 32 40 38 32 28 27 25 22 18 15 14 13 11 9 8 8 8 7 6 5 6 8 10 15 21 25
4 2 5 2 2 2 3 4 4 3 4 2 6 14 23 15 18 21 17 20 19 23 23 23 24 26 27 26 24 22 21 18 16 14 11 9 6 5 3 5 5 5 5 7 10 15 19 23 27
3 2 2 2 4 2 3 3 3 0 3 2 6 12 17 19 17 18 16 18 20 21 20 21 22 23 23 22 21 20 20 19 14 11 8 5 4 5 5 6 6 6 8 10 14 17 21 25 28
2 1 3 5 1 1 1 3 2 1 3 3 7 11 14 16 17 18 18 17 18 19 19 18 19 19 20 20 18 18 17 15 12 9 6 6 5 6 8 9 8 9 11 14 16 20 23 25 28
3 5 5 5 3 4 7 9 4 1 2 3 9 11 12 15 16 18 19 20 19 18 18 19 20 20 20 19 17 16 15 13 11 9 7 6 7 8 9 10 10 12 15 16 18 21 24 26 28
3 2 1 2 7 11 12 12 11 5 5 7 10 13 13 15 17 18 19 19 19 18 18 17 16 14 13 12 12 11 11 11 10 9 10 10 9 9 10 12 13 14 16 19 22 26 29 29 29
5 4 5 4 5 13 13 10 11 13 6 3 10 12 14 15 14 16 18 17 16 16 16 16 16 14 13 10 10 10 11 11 11 12 12 13 12 12 13 14 16 17 19 22 26 30 34 37 39
8 6 8 9 6 7 9 7 7 9 10 9 9 14 17 12 14 14 13 13 14 13 12 13 14 14 12 12 12 11 12 12 13 12 12 14 17 16 15 16 19 22 24 27 31 33 40 41 41
10 5 5 4 3 2 1 2 3 6 7 12 13 15 17 15 13 14 15 14 11 12 14 14 13 14 15 14 14 13 12 14 15 19 19 18 19 19 18 20 23 26 28 33 35 39 46 38 36
13 8 5 3 4 4 4 3 4 3 6 9 14 16 18 19 18 17 15 15 14 15 13 14 15 17 19 20 18 16 16 16 18 23 22 20 22 23 21 24 27 28 33 37 41 37 40 47 36
12 12 7 5 6 3 7 7 6 6 7 9 10 16 18 21 20 18 18 18 19 20 20 19 17 19 21 21 19 19 19 17 19 22 25 25 24 25 27 28 28 31 35 39 36 40 38 45 36
12 9 2 1 2 2 5 5 8 8 13 15 14 15 16 22 24 23 23 22 22 21 22 22 22 27 17 22 21 19 20 22 23 25 27 27 25 27 29 28 30 34 33 36 36 40 41 40 39
13 11 6 3 3 2 4 5 5 15 13 14 11 15 12 17 20 22 21 22 23 20 22 22 22 28 17 13 17 17 20 23 26 25 23 22 23 24 26 27 28 31 34 36 37 36 41 37 37
10 11 9 4 1 2 3 7 11 4 7 6 4 10 12 13 16 18 18 16 18 19 18 16 17 25 24 15 17 19 20 22 23 19 20 20 19 20 23 27 31 30 32 36 41 41 38 38 36
10 6 4 4 2 2 3 5 9 8 7 1 6 4 2 5 8 10 13 14 15 17 15 18 16 17 18 20 18 15 15 15 15 15 16 17 21 22 24 28 28 32 32 38 39 42 39 42 35
11 14 9 5 7 3 2 5 6 9 12 4 5 7 6 6 4 9 13 14 17 17 19 19 18 15 13 11 12 14 14 16 16 18 21 22 22 24 26 29 31 35 35 38 44 41 41 38 34
16 16 14 10 7 9 6 12 19 6 10 9 10 8 9 7 5 4 9 11 9 7 10 13 14 12 11 13 15 18 20 22 23 22 21 20 25 26 27 29 34 36 40 41 46 46 41 32 35

GFSSGP_700_spd_036.txt.gz
Wind_Speed
7 6 5 5 6 10 15 12 10 3 5 12 8 13 12 20 23 17 12 7 11 18 17 22 21 22 21 20 19 18 15 12 9 5 3 4 8 12 13 13 14 14 15 14 14 14 15 15 15
5 4 4 5 10 14 15 10 8 4 4 9 7 10 10 14 17 13 9 14 19 17 19 18 23 23 23 21 20 19 17 15 12 5 6 8 10 12 14 14 15 15 14 13 13 13 13 13 14
4 3 2 6 10 14 3 5 7 7 4 8 8 13 13 11 14 11 13 11 14 17 22 21 24 25 24 23 22 20 19 18 13 8 9 10 12 13 13 14 15 13 13 13 13 11 11 12 13
2 3 5 7 10 10 7 5 5 4 5 8 6 11 3 5 6 9 3 10 12 16 22 25 27 27 26 25 24 22 21 19 11 11 12 13 13 13 14 14 14 13 13 12 12 11 10 10 11
2 4 6 7 7 6 3 5 0 2 8 7 7 9 9 6 4 3 6 10 11 16 18 26 28 28 29 27 25 25 22 20 16 14 15 16 14 14 14 13 12 12 11 11 9 9 11 13 12
2 4 6 5 3 3 5 8 5 5 9 9 8 9 8 7 6 6 5 11 14 18 24 27 29 31 31 29 28 27 23 18 15 17 18 17 15 14 13 12 11 9 9 8 9 11 12 13 12
3 4 4 1 2 2 5 3 6 7 7 10 10 8 9 7 7 7 6 12 16 22 29 28 34 36 33 36 30 29 25 18 19 22 20 17 16 14 12 10 9 6 5 6 8 13 14 13 10
3 1 1 1 3 4 9 5 1 4 6 5 6 6 8 7 9 8 9 13 16 18 27 25 32 35 36 37 38 32 28 24 24 24 21 17 15 13 10 8 6 3 3 6 8 12 14 11 8
1 2 1 1 3 6 11 5 4 5 7 9 11 12 12 12 12 12 13 15 18 20 25 30 33 37 36 36 43 35 35 28 28 26 22 18 14 11 8 5 2 1 3 6 9 11 11 8 7
1 3 1 1 5 6 7 6 5 5 7 9 10 11 12 12 11 12 13 14 16 20 24 25 31 35 41 47 46 46 40 32 30 25 23 18 13 10 6 3 4 4 5 7 9 12 10 6 6
2 1 3 5 7 8 7 9 6 4 3 8 9 11 13 13 14 14 14 15 18 18 18 20 31 44 43 41 40 43 38 33 30 24 21 17 12 10 8 6 6 6 7 9 13 10 7 5 7
1 3 6 8 8 7 5 5 3 7 6 7 11 13 13 12 13 9 8 7 7 16 15 21 30 37 38 29 35 42 37 43 42 32 19 15 13 12 9 7 7 9 10 13 10 7 5 6 10
3 8 8 5 5 3 2 3 5 3 5 4 14 8 10 11 8 8 6 6 6 7 6 20 38 44 37 38 43 43 44 42 26 18 17 16 15 12 10 9 10 11 11 9 7 6 7 10 15
8 4 5 5 2 1 1 4 3 0 3 5 12 6 14 11 8 9 9 9 10 12 9 19 15 21 25 36 41 35 31 24 19 21 18 17 15 11 10 10 11 11 9 7 6 7 10 14 18
7 2 3 3 1 3 1 1 1 2 3 5 4 18 22 14 14 23 20 22 25 29 35 32 36 34 41 36 34 30 27 24 22 19 18 16 13 12 10 10 10 9 8 7 7 9 12 16 19
1 4 4 1 4 4 1 5 4 4 2 4 6 9 15 11 18 16 17 18 19 23 23 28 30 29 26 28 29 26 23 22 21 20 17 15 13 10 9 8 9 9 7 8 10 12 15 18 20
3 3 2 9 7 3 1 3 5 1 1 1 8 8 10 17 16 16 15 15 16 16 18 18 22 23 23 23 24 24 24 22 21 19 16 13 11 10 9 9 9 9 10 11 13 16 18 20 22
4 2 4 3 10 8 6 4 7 3 1 4 6 8 8 11 13 14 16 16 15 15 15 16 17 19 20 21 22 22 22 21 18 17 14 12 10 10 10 9 9 11 12 14 16 18 20 23 27
6 4 3 1 5 7 10 9 10 8 4 5 10 12 11 13 16 16 17 17 18 17 17 17 17 18 17 17 18 18 18 16 16 16 14 13 12 10 10 9 11 13 15 17 18 20 23 26 29
8 7 6 6 8 9 11 9 8 8 3 4 8 12 15 17 18 18 18 18 17 17 18 18 18 17 16 15 15 15 16 17 16 17 16 15 14 15 14 16 15 17 17 20 22 24 27 31 32
9 9 6 7 7 9 9 8 9 5 11 11 11 13 17 17 18 20 19 17 17 18 18 17 18 17 18 18 18 18 19 18 17 17 17 16 17 19 20 20 20 19 21 23 25 26 29 34 39
10 8 5 5 5 5 6 4 6 8 6 12 15 19 17 16 17 19 19 19 18 18 19 18 19 20 20 21 21 19 18 18 18 18 19 20 22 21 22 24 23 22 26 25 25 28 32 35 36
10 9 5 3 5 5 5 8 7 4 6 7 14 20 20 21 20 18 18 19 20 20 18 19 20 20 22 23 22 20 20 20 21 20 23 26 27 24 23 24 26 26 27 25 26 30 34 36 35
11 11 7 5 4 8 7 6 5 8 5 5 9 11 22 23 25 24 22 21 21 21 21 21 22 24 26 27 24 26 25 24 22 20 23 24 28 28 27 25 26 27 27 28 30 33 35 37 34
11 11 10 8 7 7 5 7 13 7 9 10 11 11 18 26 27 27 27 25 25 24 24 24 26 27 28 26 28 22 23 27 25 26 26 28 26 27 27 25 26 25 27 29 29 35 32 35 39
17 15 9 4 5 4 4 6 4 7 12 10 11 15 21 21 27 33 30 29 29 29 28 26 26 32 30 26 14 17 22 26 26 26 28 27 26 26 24 24 24 25 27 28 34 35 35 38 39
14 16 12 5 4 5 9 8 11 4 6 5 8 9 12 16 18 26 32 36 34 32 28 26 26 28 29 33 23 14 21 23 24 24 26 25 26 22 23 24 23 28 27 32 33 38 36 39 41
12 14 8 8 6 7 7 8 7 6 2 4 1 2 4 9 12 16 21 27 30 27 27 27 25 23 21 26 18 18 19 19 19 21 21 23 22 23 25 29 26 30 28 32 35 39 40 41 38
17 12 9 7 6 5 5 7 8 7 7 7 6 4 4 4 3 9 13 18 21 24 25 23 23 23 24 23 19 17 16 17 17 18 21 23 27 28 30 29 29 32 32 29 38 39 42 49 46
16 15 16 14 9 8 6 14 15 14 9 9 7 7 6 4 7 6 10 14 17 19 21 22 26 26 22 21 19 18 19 18 21 22 25 26 26 27 29 29 33 32 32 36 34 40 46 44 45

GFSSGP_700_spd_039.txt.gz
Wind_Speed
7 6 3 6 8 12 21 21 14 6 15 19 20 2 12 11 21 13 11 9 15 20 15 19 20 21 22 21 19 17 15 12 9 7 7 11 12 13 14 15 16 16 16 16 16 15 15 15 15
4 3 3 5 12 20 18 16 6 15 13 5 7 5 10 12 21 16 19 17 24 18 17 21 22 22 23 23 21 18 16 12 10 7 10 11 13 14 14 16 17 15 15 14 13 13 14 14 13
3 1 4 14 17 20 9 3 8 7 7 6 6 7 16 6 23 24 14 13 19 18 21 21 22 24 24 22 21 19 17 14 12 8 12 13 14 15 16 17 15 15 14 12 12 12 11 11 11
1 4 6 8 16 11 10 3 6 10 10 7 8 14 15 16 18 17 8 5 15 19 21 21 20 25 25 24 22 21 18 16 12 11 13 14 14 16 17 16 15 14 13 13 12 10 10 11 10
2 3 9 14 11 10 8 9 7 8 1 6 8 20 13 11 4 7 8 13 16 23 18 25 27 28 26 26 24 23 20 19 14 14 17 17 16 17 16 15 14 12 12 10 10 10 11 11 10
4 5 12 12 5 4 8 7 6 6 6 6 5 16 2 9 7 7 14 17 17 16 21 22 27 28 28 28 26 23 20 19 19 18 19 17 17 18 16 15 12 10 9 8 10 12 13 10 9
4 8 13 5 2 1 5 2 5 6 6 9 8 11 9 13 12 9 8 11 15 22 29 26 27 33 31 30 29 27 25 23 22 22 19 20 19 17 15 13 9 7 6 6 8 11 12 9 8
4 5 5 4 6 5 7 3 4 3 6 14 8 7 11 9 9 11 11 13 16 18 17 24 29 28 32 35 31 31 29 27 26 25 23 21 19 17 14 11 7 4 3 4 6 8 10 9 8
4 7 5 1 3 5 6 4 8 8 5 10 13 13 13 13 11 13 14 16 19 21 23 25 25 26 34 35 41 35 32 29 27 28 26 22 21 18 13 9 5 2 1 3 6 9 10 7 4
6 8 2 4 5 7 7 6 6 6 8 16 15 12 15 16 15 14 13 15 19 21 25 24 25 26 30 36 34 40 35 32 33 30 28 24 21 16 12 8 5 3 3 5 7 10 7 4 4
4 7 2 4 9 8 9 8 7 6 8 11 15 14 16 15 16 15 16 17 19 18 24 24 27 27 30 39 44 42 49 36 36 33 27 20 17 15 12 6 5 5 5 7 10 7 4 3 4
4 5 6 10 11 9 7 6 5 6 9 14 14 17 19 19 19 18 16 16 16 22 19 23 26 24 42 40 46 40 43 41 39 27 27 23 22 11 5 7 7 7 8 10 10 5 4 4 6
7 7 10 9 9 5 6 5 3 6 5 6 14 16 8 13 14 14 13 13 12 14 25 24 34 34 37 55 47 49 48 48 33 33 27 22 16 12 11 10 10 9 11 11 8 7 5 5 7
5 8 6 6 7 7 4 5 5 3 5 9 15 10 7 11 8 7 5 11 12 8 9 14 33 34 37 37 39 35 39 37 37 32 25 22 14 14 13 12 11 12 12 10 9 8 7 8 10
7 8 8 6 9 6 7 14 6 5 4 6 6 20 16 8 7 11 10 12 12 7 11 13 32 38 38 36 35 28 32 39 35 33 20 15 16 14 13 13 13 13 13 11 10 9 9 10 11
8 10 16 10 11 7 8 6 6 4 5 6 5 3 20 13 12 14 21 21 22 22 19 28 26 22 23 37 36 38 37 29 27 19 17 19 17 14 13 14 14 11 12 11 11 11 12 13 16
12 9 11 2 11 6 9 18 10 7 4 3 5 4 2 11 11 13 13 17 23 25 28 28 27 29 35 37 38 37 30 22 19 19 19 17 16 15 15 14 12 11 12 12 13 13 14 17 20
14 8 5 4 13 7 6 3 5 2 5 2 1 8 5 9 11 11 11 11 15 17 17 18 19 17 19 20 21 22 21 22 22 20 19 18 17 16 15 15 12 12 13 14 14 14 16 20 22
10 7 5 2 5 10 9 10 7 8 6 5 5 9 8 9 11 11 12 13 13 15 16 17 19 19 18 18 20 22 21 20 19 20 19 18 17 16 15 15 13 15 16 16 15 17 20 22 24
13 12 12 6 5 9 10 11 8 9 10 11 11 13 13 14 16 14 14 13 12 13 15 16 16 17 16 16 18 19 19 18 18 19 20 20 17 16 15 18 17 18 19 19 20 20 23 27 26
17 16 10 9 5 10 12 14 11 10 12 14 14 13 16 18 20 17 15 15 14 14 14 15 15 15 17 18 19 19 20 21 19 18 19 19 18 19 20 21 22 23 24 23 24 24 26 29 32
20 15 10 8 10 8 10 5 11 12 12 15 16 17 17 19 20 22 19 18 16 16 17 18 18 19 20 19 18 19 19 18 19 20 19 20 21 21 22 26 27 26 27 28 27 28 29 31 33
12 8 9 10 12 8 13 11 10 11 13 15 17 19 20 21 21 23 22 18 16 18 17 17 19 20 20 21 21 22 20 21 22 23 22 24 22 26 28 30 30 26 29 31 29 30 30 31 34
15 11 12 11 13 11 15 13 10 14 10 11 16 19 22 23 23 23 23 22 20 20 20 20 22 23 23 25 24 26 25 26 27 27 24 25 26 25 27 31 30 31 31 31 30 30 30 34 30
16 15 18 13 11 10 8 7 15 8 5 8 8 11 19 25 25 25 26 27 26 26 26 26 26 27 29 27 24 25 37 37 30 32 26 29 30 30 30 28 30 30 30 30 29 29 33 35 35
21 21 17 5 7 5 7 8 10 6 5 10 12 13 15 20 27 28 27 29 29 29 29 28 27 28 27 30 26 23 20 27 17 27 29 31 32 32 31 29 30 27 27 28 26 31 32 37 39
16 25 21 13 9 8 10 9 12 9 5 5 6 8 12 19 22 26 28 29 29 29 31 31 31 28 29 30 31 34 20 20 18 21 24 27 29 30 30 31 28 27 28 25 30 32 36 39 39
22 15 19 16 7 11 17 15 5 7 5 6 4 2 2 8 15 20 24 29 32 31 30 34 35 32 27 25 29 26 22 19 21 24 22 20 26 28 29 27 29 33 33 37 28 34 41 37 37
20 18 19 14 21 6 10 8 6 5 6 9 7 6 3 2 4 11 14 21 27 29 30 33 34 32 32 30 26 24 23 22 22 21 19 24 28 29 29 30 31 36 36 30 33 38 43 41 44
20 26 25 20 17 12 14 21 13 13 12 11 12 11 8 7 6 9 9 12 16 20 25 27 26 26 28 29 26 26 25 24 24 23 25 25 27 28 31 32 33 33 37 36 38 40 43 49 42

GFSSGP_700_spd_042.txt.gz
Wind_Speed
7 3 2 2 9 13 21 25 23 23 10 13 12 14 8 24 23 21 18 24 43 5 4 12 17 19 21 23 22 20 17 15 13 12 12 14 15 15 15 16 18 18 17 16 16 16 16 14 13
5 4 5 4 16 22 26 15 20 11 4 14 17 31 22 25 27 10 10 11 8 19 13 17 19 23 24 24 23 20 18 16 14 12 14 15 15 15 16 18 18 18 16 15 16 16 14 12 11
4 4 5 14 18 23 22 11 9 7 13 15 11 10 15 19 24 12 13 7 12 17 19 18 22 24 24 24 23 20 18 17 15 14 15 15 15 16 18 17 17 16 15 14 14 11 10 10 10
2 6 9 10 13 18 16 6 9 13 7 7 9 17 14 7 14 13 14 10 11 24 22 21 20 21 25 26 23 21 20 18 15 15 18 17 16 17 18 18 17 15 15 14 10 11 11 11 12
8 3 14 19 21 18 9 13 12 11 19 18 12 23 14 6 4 6 19 17 28 19 14 12 19 18 20 21 23 23 22 21 18 18 19 19 18 19 17 17 15 14 13 12 12 12 12 12 13
7 12 16 15 16 4 9 13 8 12 15 14 7 20 18 7 5 6 9 16 16 17 11 28 37 19 22 27 26 24 23 21 18 20 20 20 20 19 18 16 14 13 11 11 11 13 12 11 10
8 12 19 18 9 12 11 25 8 16 18 19 17 7 6 4 8 9 8 8 8 19 15 18 30 36 35 30 27 26 24 25 22 21 22 22 21 19 18 16 13 10 8 8 10 11 10 9 9
12 12 17 13 6 6 14 11 8 7 17 27 13 9 5 2 8 12 9 8 8 15 21 29 23 25 30 29 29 27 26 28 23 24 25 24 22 20 17 14 11 8 5 6 7 8 7 7 6
8 14 15 13 5 7 9 10 18 8 3 9 9 10 10 9 11 13 13 13 14 15 24 18 16 18 22 25 36 33 32 25 27 28 27 25 23 20 17 13 9 6 3 3 5 7 4 4 5
10 16 15 7 12 10 9 14 17 16 4 12 14 9 11 16 16 16 16 14 16 16 19 19 16 25 22 32 35 39 35 37 33 31 27 30 26 20 16 12 8 5 2 2 5 7 1 2 4
11 16 11 8 11 13 12 19 17 8 6 18 14 15 14 19 19 18 14 12 15 15 17 13 14 27 20 28 37 41 37 42 41 36 37 29 24 21 17 14 10 5 0 4 7 6 2 3 5
11 11 12 13 16 15 12 13 11 13 9 12 9 13 18 23 21 17 16 15 15 18 16 17 19 22 29 36 39 39 40 44 40 36 32 28 20 19 16 8 1 2 4 6 8 4 2 2 3
12 13 14 13 14 11 11 11 8 8 8 8 11 16 12 10 15 14 16 13 13 17 19 22 23 25 25 32 44 42 37 42 43 39 37 30 25 18 11 9 4 7 7 8 6 4 2 4 5
11 13 15 11 12 11 9 14 5 7 15 13 15 13 22 8 8 9 11 13 12 13 13 21 30 31 27 39 41 48 45 45 43 48 38 32 18 16 18 9 8 8 9 10 6 5 5 6 6
16 17 15 15 10 10 15 15 23 2 8 10 14 18 23 13 2 2 8 9 8 13 15 15 19 32 36 46 38 44 38 45 52 43 34 24 24 20 14 11 10 11 11 11 8 8 8 8 9
16 17 19 17 13 13 13 11 4 6 5 11 13 8 20 16 17 13 11 9 10 13 11 10 18 27 33 30 31 35 13 30 35 32 26 25 18 14 14 13 12 12 10 11 11 12 10 11 13
18 22 17 11 6 12 11 9 7 7 10 13 5 9 5 8 11 14 17 17 18 23 17 17 16 16 15 15 21 24 30 32 30 28 22 18 17 14 15 15 13 11 13 14 13 14 13 13 15
9 17 14 10 11 11 18 6 3 14 14 9 5 3 4 6 8 12 12 14 18 20 20 22 27 30 32 27 31 27 34 30 24 23 30 18 17 17 16 14 15 13 15 14 15 16 16 17 17
17 14 22 5 1 10 15 11 1 16 13 11 3 0 2 5 6 8 12 12 13 15 16 16 19 21 23 26 27 27 27 24 21 27 15 19 18 16 16 16 13 15 18 16 18 17 18 20 19
18 18 19 9 7 7 10 13 13 19 16 9 3 4 6 9 10 9 9 12 11 12 12 15 17 18 19 20 20 20 19 19 19 19 20 18 18 15 15 17 14 17 20 20 18 21 22 24 24
18 19 18 13 10 10 11 14 7 8 13 12 9 6 11 10 12 11 8 8 10 13 13 12 13 14 14 16 18 18 19 19 19 19 18 18 18 19 18 20 20 21 23 24 24 25 26 28 31
19 17 17 12 14 14 8 16 9 20 13 15 15 14 16 18 19 15 14 12 12 12 13 14 14 15 15 16 15 16 16 16 14 16 17 19 19 20 21 22 24 25 26 28 28 29 30 29 31
16 10 17 13 17 20 18 11 10 14 17 21 16 18 20 17 22 22 17 13 13 13 12 13 14 14 15 16 17 17 18 19 20 21 21 22 19 19 23 26 25 27 30 35 30 30 32 32 30
14 9 12 14 16 16 20 17 13 6 10 15 19 18 21 23 21 23 24 19 16 16 17 17 17 17 17 19 18 18 19 20 23 25 25 24 24 24 26 27 27 27 29 28 29 32 31 33 30
17 15 14 12 13 10 20 16 14 8 6 6 14 14 23 20 25 26 27 26 20 20 18 18 19 19 20 21 21 17 19 23 25 34 37 26 28 24 23 28 31 31 31 29 29 34 32 28 29
18 21 15 4 3 10 10 6 12 12 8 7 9 10 11 21 21 23 27 29 28 25 23 24 24 25 25 28 24 20 15 20 19 22 23 28 31 27 30 28 32 33 31 34 33 31 29 30 29
20 24 23 8 7 8 19 9 11 11 7 6 6 8 12 14 25 25 27 28 30 30 30 28 29 28 30 29 27 26 27 18 20 18 17 15 21 23 22 26 27 31 28 34 33 31 36 32 32
26 18 19 14 5 6 10 14 5 8 9 6 5 4 4 9 17 20 29 27 30 32 33 31 29 31 31 32 32 26 26 23 22 22 19 21 23 19 22 26 26 28 29 31 34 35 35 42 33
22 24 17 20 23 6 4 7 6 10 11 5 5 9 6 3 9 20 21 19 23 34 32 31 31 34 35 36 30 27 28 22 22 25 24 25 21 23 25 25 27 30 32 33 34 37 38 39 37
27 26 27 24 13 11 6 13 14 7 9 11 11 12 9 9 6 8 9 14 21 32 23 32 34 37 33 31 30 30 28 25 27 27 25 24 25 27 28 28 29 31 33 34 36 36 41 42 42

GFSSGP_700_spd_045.txt.gz
Wind_Speed
8 3 2 2 5 8 20 22 21 31 21 20 19 18 12 10 14 10 13 13 17 27 11 30 31 32 30 28 26 23 20 18 16 14 15 16 16 16 16 17 17 18 17 17 17 16 14 12 11
5 1 1 4 9 16 21 20 16 10 10 11 12 13 14 15 20 9 11 12 17 15 17 40 26 31 29 27 26 23 21 18 16 16 15 16 17 16 17 18 19 18 17 16 15 14 12 10 9
1 6 2 4 11 22 19 19 15 10 17 11 7 11 10 12 21 21 23 11 11 10 4 7 25 30 30 29 27 25 22 20 19 17 17 17 17 18 18 18 18 17 16 15 13 10 8 8 8
1 1 5 9 14 20 22 11 9 11 13 15 12 10 11 12 10 12 25 25 18 8 12 16 28 31 32 32 30 27 24 22 19 18 19 19 19 20 19 18 18 17 16 12 10 9 10 11 11
4 3 12 21 26 26 19 9 10 10 13 18 19 14 12 22 29 14 12 18 21 16 14 26 31 32 33 33 31 29 25 22 20 20 21 21 21 21 20 19 18 16 14 13 12 12 12 14 12
1 8 20 30 28 15 12 15 12 13 13 14 16 11 11 11 9 10 11 15 21 17 17 14 23 38 33 33 32 28 25 24 22 22 23 22 23 21 20 19 18 16 14 13 12 12 12 12 11
4 11 24 30 27 16 15 18 14 17 19 19 16 10 15 8 14 8 10 11 12 14 15 12 23 31 28 23 23 30 27 25 24 25 24 24 24 22 21 19 17 15 12 11 11 10 12 12 11
8 18 26 23 30 9 15 14 21 10 17 13 12 9 2 7 9 7 8 9 11 12 15 15 23 29 38 24 31 29 26 26 26 26 26 25 24 22 21 18 15 13 11 10 9 8 9 10 9
3 13 23 19 15 10 15 10 16 8 11 6 1 3 8 10 9 9 9 11 11 10 9 20 12 20 21 26 30 25 24 24 27 29 29 28 27 25 22 18 15 12 10 7 7 6 6 7 7
9 17 19 18 15 14 13 19 16 16 14 12 11 13 9 9 9 12 14 14 14 13 13 20 14 14 10 17 21 36 42 33 34 31 29 30 27 25 22 18 15 12 9 6 5 4 6 5 5
10 19 22 18 16 13 18 17 23 18 17 12 13 10 10 10 10 15 17 19 18 16 17 18 13 16 17 14 23 34 42 40 43 35 33 30 29 26 23 20 14 9 7 5 3 5 6 6 5
19 15 15 13 17 24 17 14 13 10 10 10 12 16 18 15 15 12 16 16 18 16 19 14 11 10 18 20 20 35 32 39 39 37 34 31 30 25 18 11 6 4 3 6 5 2 3 3 5
11 15 15 17 15 15 10 17 16 17 18 15 18 16 21 21 17 10 14 17 14 14 18 16 10 19 25 26 21 37 39 45 40 39 35 30 28 24 18 11 12 9 1 1 1 2 3 2 1
12 15 15 15 12 14 16 13 18 23 26 12 11 20 23 10 2 7 6 7 14 17 19 17 20 21 24 28 25 35 44 42 39 39 41 33 31 23 19 14 19 7 5 5 1 2 2 2 4
12 16 21 16 19 17 18 13 14 11 12 9 13 16 21 2 6 6 12 10 14 14 18 19 16 16 28 34 20 35 44 47 48 52 48 47 34 27 20 23 13 7 6 3 4 5 5 5 6
13 14 20 17 20 17 14 7 20 13 9 12 12 13 10 9 10 8 8 12 6 12 22 14 29 29 36 31 19 26 41 38 46 37 49 38 31 25 24 17 9 7 5 6 7 6 6 7 7
15 23 17 18 12 13 16 12 12 10 10 10 9 11 4 3 11 13 13 17 16 14 7 25 24 24 21 26 26 22 36 27 33 28 34 32 30 22 19 13 11 11 8 9 9 9 9 10 11
18 18 14 10 11 15 17 15 13 8 15 9 10 4 2 4 7 9 12 14 17 19 21 20 23 23 19 17 18 29 37 20 23 35 34 32 24 22 16 14 13 9 11 10 10 13 12 15 16
17 22 25 20 17 11 18 22 12 6 14 10 10 3 1 6 5 7 7 10 13 14 15 23 26 27 25 25 26 26 30 35 40 35 33 25 22 18 17 16 13 10 14 12 13 13 14 19 19
26 27 18 12 9 9 12 16 12 8 10 8 5 4 7 4 6 5 6 7 9 11 13 17 17 20 25 26 30 31 32 33 31 26 21 16 17 18 17 16 13 13 15 15 15 17 20 23 23
20 20 19 19 8 10 22 19 21 15 14 10 12 5 8 7 9 8 6 6 6 8 10 13 15 16 18 23 25 24 21 20 20 17 15 14 16 15 14 18 14 14 19 21 21 21 23 26 27
21 16 18 18 10 10 12 9 18 24 19 19 14 10 8 6 6 12 12 10 8 9 9 10 11 15 18 19 20 19 18 18 15 15 15 17 18 18 16 20 20 18 20 23 23 28 25 33 28
22 19 15 15 15 18 20 7 22 25 22 22 17 12 10 11 9 3 12 12 11 11 11 11 12 15 14 13 15 15 16 15 15 18 20 22 19 21 21 21 20 21 22 23 26 27 29 28 30
17 20 16 13 12 15 23 19 21 26 17 26 18 21 16 12 12 9 6 14 16 16 16 16 16 15 15 14 14 15 15 14 16 19 21 23 23 21 23 20 21 21 23 27 29 27 28 33 27
19 16 3 4 6 7 11 13 20 21 16 27 21 24 22 20 15 14 13 13 20 21 22 21 21 20 20 19 18 15 8 7 11 11 16 21 27 26 27 20 21 23 27 32 31 33 28 32 26
23 22 11 4 2 4 17 7 11 11 14 8 19 15 20 21 23 19 13 13 15 19 22 24 25 22 20 20 18 14 15 6 11 12 16 15 10 18 19 21 25 28 32 31 31 31 31 26 25
23 24 21 9 4 2 7 20 28 13 14 13 8 13 13 20 25 26 23 21 16 18 20 23 24 25 24 20 19 19 18 22 18 14 15 15 13 10 17 24 24 24 26 27 29 30 28 29 30
29 20 18 7 4 2 8 17 15 11 5 7 11 11 13 13 16 25 30 28 21 26 28 28 25 23 26 25 25 25 23 26 24 23 20 16 17 18 17 19 22 23 25 27 28 28 30 32 31
27 28 25 14 13 5 2 6 8 13 19 11 12 12 14 14 17 10 27 31 33 27 20 24 28 28 35 27 23 25 27 33 31 24 25 20 21 21 21 23 24 25 27 28 29 29 32 33 40
28 30 29 22 14 10 12 16 7 1 9 11 13 13 12 15 13 16 19 16 28 27 24 28 30 31 24 19 24 26 26 27 30 29 26 23 24 21 22 25 28 30 30 30 31 32 35 39 33

GFSSGP_700_spd_048.txt.gz
Wind_Speed
8 5 3 3 2 6 10 10 16 17 6 12 8 4 12 5 9 9 16 19 14 11 15 12 16 41 34 31 29 26 24 21 18 16 15 15 15 15 15 15 15 15 14 14 14 12 11 11 12
5 4 2 5 2 7 11 19 23 7 2 7 14 9 7 9 8 6 7 6 1 6 10 19 21 30 36 38 31 26 24 24 22 20 19 18 17 17 17 16 16 16 14 13 12 9 8 8 11
1 1 0 4 6 6 15 22 10 3 4 7 10 16 17 14 10 14 16 16 12 12 15 18 23 31 35 35 35 29 25 24 23 21 20 19 19 18 18 18 17 15 14 12 10 7 6 7 11
3 6 5 8 13 19 27 22 10 7 9 12 13 17 18 18 10 9 9 17 19 21 23 19 14 27 41 47 36 31 26 26 25 24 22 21 20 20 19 19 17 16 13 10 7 6 5 7 11
2 3 5 11 17 18 26 11 10 13 14 13 13 15 17 18 18 21 27 15 17 15 19 29 22 33 47 45 41 34 30 27 26 25 24 23 22 22 22 20 18 15 12 9 8 7 5 10 12
5 4 11 15 22 23 18 5 14 17 12 14 15 18 19 16 17 13 10 13 15 17 16 9 14 21 37 37 35 32 31 28 27 26 25 25 25 24 22 20 18 16 14 12 11 10 8 6 10
3 7 11 18 20 26 6 5 16 14 14 19 15 14 10 13 8 10 8 11 16 13 16 22 21 27 27 45 34 36 31 30 28 27 25 25 26 25 23 21 19 17 15 14 12 11 10 5 5
1 10 11 15 24 12 7 8 10 9 20 18 14 11 10 4 6 6 10 11 8 9 17 17 15 19 32 22 30 43 34 26 28 29 29 29 27 26 24 22 19 18 15 11 12 11 10 7 3
7 10 13 14 13 6 11 10 14 19 15 14 20 17 16 16 11 11 12 11 10 10 14 13 14 10 9 26 25 38 37 28 30 30 30 30 29 28 25 23 19 16 13 12 9 9 8 8 5
9 13 9 15 16 10 16 20 17 17 20 16 15 14 15 10 10 13 13 15 13 12 15 15 18 5 5 14 30 29 35 30 30 31 32 30 29 27 25 22 19 16 12 9 9 8 9 7 3
6 15 14 16 6 17 22 24 17 19 22 14 11 11 12 15 15 14 13 15 18 20 19 13 26 17 12 2 25 24 35 32 35 35 34 33 32 27 26 22 17 10 6 5 6 12 10 8 5
14 11 15 10 11 18 21 23 20 19 23 17 20 14 15 16 14 13 12 18 21 19 18 13 23 17 16 14 11 19 38 43 39 36 34 32 28 30 24 19 13 13 8 5 7 10 9 7 6
15 16 10 13 17 17 17 17 15 21 24 23 20 16 23 28 12 12 15 15 18 22 18 19 18 14 20 23 21 23 40 42 35 38 34 29 34 29 24 18 15 14 8 4 5 7 8 7 2
18 16 12 13 13 15 15 16 18 21 25 15 15 14 22 8 5 7 17 17 17 19 21 20 18 16 19 26 28 29 37 47 37 38 35 36 32 28 24 19 16 21 7 3 4 6 7 6 3
16 17 20 20 10 16 17 19 19 21 22 15 13 11 15 13 6 4 8 13 12 13 17 27 16 22 19 27 31 31 35 39 41 39 39 38 34 30 26 21 20 23 10 6 8 8 7 6 5
12 16 19 2 9 17 21 21 17 15 15 11 12 12 10 13 11 7 2 5 12 17 24 25 25 21 14 31 27 26 26 44 47 49 48 40 36 36 31 27 24 17 11 10 10 7 8 8 8
18 22 17 20 5 7 16 22 12 11 14 10 11 8 6 4 6 9 8 7 6 3 16 28 30 22 25 27 36 26 19 45 45 46 43 45 44 31 30 26 24 16 12 9 7 9 9 9 9
14 16 16 15 11 12 19 21 14 13 13 8 11 7 2 3 3 8 10 8 9 10 5 31 23 37 32 23 29 29 19 43 33 34 26 49 47 34 29 26 20 17 12 8 8 9 9 10 12
17 20 24 23 16 13 13 12 17 16 12 9 7 6 4 6 4 5 6 8 6 10 14 11 28 23 27 23 23 31 25 28 41 28 27 34 38 31 28 23 20 17 10 10 10 12 12 14 17
17 22 25 24 9 7 13 16 15 18 14 9 7 6 7 10 8 6 7 6 7 9 11 17 18 17 17 19 23 23 20 23 28 31 34 34 32 30 26 22 18 13 13 13 13 13 15 18 21
20 25 25 20 15 11 13 18 18 21 19 14 12 9 8 7 10 7 5 6 7 8 9 14 18 19 21 23 24 26 27 29 36 32 28 27 26 25 25 21 18 17 18 15 15 16 17 21 25
24 17 22 19 12 8 10 8 17 13 19 21 15 13 9 6 11 13 9 5 7 8 11 11 11 13 13 18 21 23 26 27 23 20 20 22 27 30 24 21 22 21 19 18 16 18 21 23 26
26 15 19 21 20 17 18 9 11 10 18 25 19 15 14 10 9 12 12 9 8 7 7 11 14 15 16 14 16 17 19 19 23 24 24 26 27 25 24 23 25 24 20 18 20 22 24 27 27
21 23 18 18 15 6 13 8 19 18 19 20 22 17 15 15 9 8 9 14 14 13 12 12 11 11 14 16 17 17 15 17 19 19 20 20 20 21 22 23 23 22 20 20 21 22 27 29 28
24 23 6 4 3 6 14 11 15 17 19 19 18 19 19 18 14 10 13 16 20 19 17 15 14 14 14 15 16 15 17 21 17 14 16 17 18 20 23 27 25 24 21 22 22 25 29 29 27
19 23 15 6 3 4 8 7 14 16 4 26 30 17 14 18 16 18 11 9 15 19 20 20 18 17 17 15 14 15 15 17 11 13 14 12 15 13 18 22 24 26 23 24 25 28 27 30 26
19 26 22 17 4 1 7 19 25 17 14 11 18 20 19 17 20 20 18 16 13 16 20 20 19 20 21 20 21 20 20 22 18 15 13 15 13 14 12 19 21 22 24 28 28 26 27 27 31
29 25 12 10 5 3 5 11 10 3 10 12 7 11 16 17 23 24 23 22 22 18 17 17 20 21 19 20 24 27 28 29 30 24 22 18 15 14 16 17 18 21 25 26 25 25 27 29 28
25 34 21 15 14 5 1 7 10 7 13 14 14 12 15 19 19 16 19 26 23 25 24 22 22 29 28 26 27 30 33 30 34 33 31 25 22 22 21 20 23 25 26 25 27 28 30 31 30
25 30 34 23 8 13 16 19 15 5 8 23 16 20 19 19 18 18 16 19 22 30 31 31 22 25 23 24 21 26 28 30 34 27 31 37 37 25 29 26 26 26 27 29 30 32 33 33 34

GFSSGP_700_spd_051.txt.gz
Wind_Speed
9 7 5 4 2 3 8 7 20 13 9 8 7 12 11 10 5 8 22 25 19 15 16 14 18 19 19 22 28 28 26 22 23 22 20 17 14 14 14 13 13 12 11 11 10 12 12 10 10
6 5 3 3 3 4 11 19 23 8 6 6 6 10 15 14 11 7 12 14 13 9 11 15 16 21 25 27 30 24 27 25 26 24 21 18 18 17 17 16 15 14 14 12 12 12 10 8 9
3 1 1 3 4 7 14 24 13 9 4 4 6 10 13 14 12 10 13 14 12 11 10 15 22 22 32 35 27 26 27 28 26 25 23 20 19 18 18 18 16 15 13 12 12 13 11 10 9
2 4 5 5 9 14 18 23 12 9 11 11 12 8 14 17 16 13 11 12 14 16 17 16 24 25 30 30 31 43 29 28 27 27 25 23 21 20 19 18 17 15 13 11 10 10 10 10 11
1 3 5 8 14 18 19 8 10 11 10 13 14 14 18 18 19 19 17 20 15 12 17 17 19 27 39 34 40 34 35 32 30 29 27 26 24 22 21 20 18 15 12 10 10 11 11 12 12
6 5 6 9 15 14 9 5 8 10 9 16 19 18 17 15 14 14 11 8 13 13 16 16 18 21 33 28 45 44 35 34 32 31 30 27 25 24 22 20 17 15 11 10 11 12 14 15 15
6 9 5 9 15 10 4 3 10 10 15 22 25 18 11 13 11 12 13 8 10 14 18 18 13 19 15 35 51 45 34 35 34 32 30 28 27 25 23 20 17 15 12 9 10 12 14 16 15
10 9 4 6 12 8 6 8 16 18 21 25 22 11 13 9 11 10 9 9 8 7 10 15 24 18 17 31 39 44 41 35 34 32 32 30 28 26 24 22 20 17 12 8 8 10 14 16 14
10 9 8 8 8 15 11 13 19 24 23 18 27 20 13 14 16 13 9 12 8 13 11 8 16 1 12 26 42 39 33 32 33 33 33 32 30 29 26 24 21 18 14 10 6 7 9 13 12
11 10 6 14 17 18 16 17 22 22 19 20 16 15 12 9 11 10 11 13 14 15 12 14 6 5 3 5 35 43 43 36 34 34 34 32 31 29 27 24 20 15 13 10 8 9 7 9 10
13 12 12 8 15 12 14 20 22 23 20 23 18 17 17 14 16 17 15 16 16 15 14 14 12 13 8 10 6 35 47 47 42 35 34 32 31 30 28 23 18 16 10 8 7 10 11 9 8
14 10 10 12 13 12 17 20 24 23 22 23 23 15 14 19 23 22 21 21 13 15 18 17 16 18 11 5 4 20 28 37 40 37 35 33 32 31 28 23 19 15 12 6 8 11 12 11 7
14 13 7 7 10 15 20 22 24 26 24 26 22 19 21 23 15 8 19 16 14 18 15 15 15 23 13 15 8 21 34 37 34 36 35 36 34 30 26 22 19 17 16 8 10 13 13 11 8
19 16 12 11 14 17 20 22 26 25 26 23 15 18 20 23 13 7 11 15 13 12 17 16 19 20 17 21 16 19 31 38 40 37 38 37 32 30 24 24 21 19 15 7 11 14 13 11 8
19 23 20 19 20 22 20 27 24 25 24 18 14 13 18 17 15 5 3 9 16 19 23 24 20 20 20 21 23 25 20 39 39 38 39 36 32 28 24 27 22 21 16 9 10 12 12 10 8
14 16 18 5 8 17 22 28 20 21 18 15 11 12 13 14 12 9 6 2 6 13 13 17 27 19 20 21 31 33 31 40 40 40 38 35 32 30 30 25 22 20 21 14 12 11 11 10 9
19 20 15 7 4 14 12 17 18 20 15 14 10 11 8 8 10 8 6 4 2 3 13 19 32 23 26 26 34 30 36 41 41 40 41 40 38 35 32 25 24 22 25 16 13 13 11 10 9
17 19 19 14 10 15 24 22 18 17 17 16 11 10 7 5 6 6 6 6 9 7 6 25 31 23 23 19 20 34 38 43 44 46 43 44 41 38 34 30 26 26 21 17 14 14 12 12 12
19 18 17 13 10 25 18 23 18 16 19 17 10 8 8 5 3 5 6 7 10 13 9 21 20 31 17 26 25 30 31 36 42 48 46 35 39 36 37 32 31 31 21 18 15 13 11 10 12
20 20 18 13 10 14 9 16 19 18 18 15 13 10 8 4 4 3 3 5 8 11 14 7 29 31 23 20 28 24 31 34 30 43 41 29 35 40 33 29 31 26 21 19 16 12 11 11 13
22 21 17 18 14 16 18 20 18 20 19 20 16 14 11 6 7 4 3 1 5 8 10 11 9 14 14 24 26 24 38 36 27 35 35 34 31 41 37 34 28 25 21 19 16 14 12 13 17
24 18 16 18 19 14 15 7 18 18 15 16 17 16 10 6 6 8 6 1 1 4 5 7 9 10 10 15 24 29 30 32 31 33 32 33 34 37 37 33 27 28 25 20 18 18 17 18 19
22 11 15 20 21 23 19 10 13 15 18 16 13 16 13 8 5 4 7 6 6 4 4 5 5 6 9 12 15 20 22 26 29 31 34 36 36 34 33 29 27 30 25 23 23 23 21 20 22
18 20 20 22 19 7 19 17 16 22 26 21 19 15 16 13 10 7 9 15 13 12 10 8 7 7 6 7 9 14 20 22 22 24 25 27 26 25 27 24 30 29 26 25 28 29 23 22 22
21 15 4 5 4 6 14 11 18 11 13 18 19 15 15 15 12 13 10 11 16 16 13 12 10 9 9 8 8 8 9 14 15 16 18 21 22 23 22 25 29 29 27 29 32 25 22 23 27
22 21 13 6 4 5 10 7 7 10 20 13 18 17 16 20 14 14 13 12 12 14 17 16 15 14 11 10 10 11 14 15 16 18 19 18 21 23 24 27 31 33 31 33 24 23 25 26 29
28 28 22 26 1 2 9 14 23 18 15 19 15 18 17 19 17 16 15 17 17 15 15 18 18 17 16 14 13 14 16 18 19 22 22 21 21 23 24 23 25 24 25 25 27 28 28 28 30
30 21 11 10 5 4 4 6 14 19 10 12 11 14 15 15 15 16 17 19 20 21 17 17 18 19 18 19 19 19 20 20 21 23 23 23 23 25 24 24 23 22 26 28 28 28 29 29 29
26 28 24 21 20 6 2 8 13 6 5 14 15 13 11 9 10 9 10 12 15 22 23 21 22 21 17 20 21 22 23 26 27 30 33 34 29 30 30 27 25 24 25 27 30 31 31 30 31
12 30 31 26 6 10 15 22 15 7 6 15 12 14 13 15 18 14 12 12 11 15 21 26 26 24 21 22 25 25 24 24 26 29 34 34 39 42 41 45 32 27 30 31 33 33 33 34 34

GFSSGP_700_spd_054.txt.gz
Wind_Speed
10 8 5 2 1 4 9 8 16 16 7 5 5 6 5 7 6 5 11 12 16 17 20 23 25 19 21 23 17 13 14 20 28 24 25 22 17 14 13 12 10 11 11 11 11 11 10 10 10
7 5 1 5 1 4 8 15 16 12 7 7 7 8 9 12 10 7 10 14 20 17 22 24 24 22 22 23 14 18 16 19 16 24 23 21 18 18 17 14 13 11 11 12 12 12 11 10 10
4 1 5 1 3 7 11 16 10 9 8 9 13 14 15 13 12 9 9 13 16 15 18 22 21 23 24 24 19 19 20 21 20 27 23 22 21 19 17 15 15 14 13 13 12 11 11 11 11
3 4 2 3 6 11 12 7 6 8 9 12 15 18 17 17 18 13 12 15 18 19 21 23 25 27 25 29 23 23 24 27 26 28 26 24 23 21 19 17 17 17 16 14 12 10 10 10 11
3 7 6 4 8 10 3 4 5 9 11 12 14 20 23 21 17 15 17 19 20 18 21 21 24 23 33 28 29 32 32 30 28 30 27 26 25 22 21 20 19 17 16 14 13 12 11 12 11
7 8 5 4 6 4 3 5 7 13 20 20 22 23 23 18 14 13 12 12 15 20 22 27 25 35 28 31 43 36 38 37 33 36 28 28 25 24 23 20 18 16 15 13 12 12 13 13 14
9 11 5 2 7 7 6 7 14 16 19 20 19 22 22 14 13 8 10 11 11 18 25 27 29 32 38 38 39 37 42 40 34 32 29 28 28 26 24 22 20 17 14 13 13 14 15 15 16
12 14 9 2 4 7 9 11 14 17 18 18 17 17 18 20 14 12 11 10 8 13 20 27 31 33 34 39 33 34 41 41 37 35 34 31 30 28 25 22 18 15 15 14 16 17 17 15 15
14 13 12 7 6 12 12 15 16 18 16 19 18 17 14 14 13 14 14 14 8 12 10 11 17 23 35 31 31 55 42 42 40 36 35 34 33 29 25 22 18 16 15 14 13 16 18 17 15
17 16 14 7 14 14 15 14 16 19 19 21 21 19 18 17 15 16 15 15 12 13 11 18 13 4 7 19 36 39 44 40 38 38 38 36 33 30 26 20 17 15 14 15 13 14 16 14 12
17 15 10 11 13 13 15 16 19 20 21 21 21 18 15 15 17 20 21 20 15 13 13 13 6 4 2 7 4 35 49 48 41 41 38 36 34 31 26 22 17 13 14 12 11 10 16 15 12
20 15 14 12 15 15 16 19 20 21 21 25 23 16 13 18 25 21 23 22 17 15 15 12 12 9 7 3 12 40 47 44 42 45 40 38 35 30 26 22 17 11 10 11 9 6 9 12 11
24 20 18 14 13 14 17 20 21 25 26 25 23 15 15 19 24 14 8 15 19 14 11 13 11 8 9 5 8 19 41 41 45 41 40 40 35 31 27 21 17 15 9 8 7 8 12 11 10
21 22 21 19 15 16 20 22 25 21 24 26 21 14 16 16 20 11 5 13 16 16 13 10 12 11 12 8 8 17 31 37 49 49 48 37 35 31 27 23 20 16 13 8 8 10 12 12 11
21 24 23 21 21 21 23 28 24 20 20 21 19 14 16 15 16 16 5 13 18 17 13 17 12 14 11 13 13 18 27 34 36 39 40 39 34 31 27 23 20 18 18 10 6 10 14 14 11
19 21 22 8 8 11 17 26 17 14 17 17 16 14 13 9 11 12 8 2 11 16 13 22 20 15 15 20 19 22 31 34 36 35 34 35 34 28 27 24 21 19 22 9 4 13 15 13 12
20 21 16 11 7 10 12 20 16 18 16 17 18 15 13 10 9 10 9 8 2 8 19 21 20 19 18 21 22 23 37 39 38 34 36 37 34 30 28 25 24 23 26 14 11 13 14 14 14
22 18 21 17 11 12 18 17 11 15 14 15 17 16 11 10 7 8 8 7 8 4 9 24 28 26 23 23 24 31 35 41 37 37 39 37 35 34 33 29 25 28 21 17 20 15 14 14 13
18 14 15 19 14 16 16 18 8 13 16 15 11 10 10 8 6 6 8 8 9 12 10 21 24 28 22 27 37 35 39 42 41 38 37 42 48 45 35 30 31 26 23 19 17 17 16 16 14
22 21 21 19 14 14 15 17 16 16 16 15 15 13 12 7 6 3 4 6 9 13 16 3 21 30 15 19 24 23 34 42 40 45 47 45 49 43 37 33 30 30 23 22 20 19 17 16 15
25 24 21 18 15 16 15 22 17 16 19 18 14 13 14 11 7 6 3 1 4 9 12 11 16 21 27 26 28 21 33 41 34 45 48 48 52 40 45 36 33 32 27 24 24 22 19 17 17
31 23 17 18 19 13 17 11 22 18 23 20 17 12 11 10 7 7 5 3 1 4 7 10 9 8 11 23 26 20 40 34 26 41 48 47 44 31 31 33 31 31 29 27 26 25 22 22 21
31 19 18 15 20 24 22 13 19 19 21 23 19 14 10 10 7 3 7 8 5 3 2 5 9 9 6 12 9 20 27 34 31 29 36 31 40 28 30 35 38 36 32 31 30 27 25 25 25
19 16 13 16 20 8 23 19 13 18 24 24 20 17 12 13 9 7 6 8 8 7 4 3 5 7 9 10 9 7 13 20 28 32 31 29 32 34 33 35 39 37 33 31 29 28 29 29 31
25 17 1 2 2 6 13 16 25 21 22 17 12 15 12 13 15 12 7 3 2 7 7 6 5 5 7 9 11 12 14 16 15 18 21 23 25 28 30 32 34 33 31 32 32 33 33 34 37
27 26 9 6 4 4 9 8 11 7 8 16 18 16 16 13 19 16 12 8 4 2 7 9 8 7 6 7 8 10 12 13 15 15 17 18 20 22 25 27 29 30 30 32 36 34 34 35 39
23 18 25 17 3 2 8 12 17 25 25 16 18 11 15 15 16 18 17 15 11 9 6 7 12 12 11 11 10 10 11 12 13 14 15 16 19 22 25 28 30 32 34 39 39 37 39 33 29
33 14 16 11 5 5 4 6 11 9 20 13 9 13 13 15 15 18 18 17 16 16 15 15 12 17 17 16 16 17 18 18 18 19 20 21 23 24 25 28 30 32 32 39 34 30 30 30 32
23 31 24 14 13 4 2 6 10 14 5 8 8 9 9 12 13 14 13 13 13 17 21 19 19 16 17 15 19 22 23 24 24 25 25 27 27 28 27 33 34 35 34 34 35 31 31 31 31
11 13 25 23 8 10 11 16 12 10 3 6 8 10 11 11 10 11 12 12 12 8 12 18 23 22 20 21 17 25 26 25 28 30 31 31 31 32 32 35 39 41 36 37 38 34 31 31 33

GFSSGP_700_spd_057.txt.gz
Wind_Speed
9 7 3 3 4 5 6 5 7 6 6 5 5 5 5 6 7 7 9 10 11 14 16 14 16 21 22 20 18 18 22 21 21 21 24 18 14 13 12 13 12 12 12 12 11 12 11 12 12
8 5 3 5 3 2 2 7 6 4 3 6 7 10 11 15 14 12 13 14 12 17 19 19 21 21 24 20 21 18 21 19 22 23 23 20 16 14 14 14 14 13 13 13 12 10 10 9 9
6 3 6 4 3 2 4 4 3 3 5 8 11 14 16 16 17 18 16 15 14 15 21 23 21 23 23 22 21 21 25 16 21 27 21 19 18 17 15 15 16 15 14 13 11 10 10 10 9
6 6 5 6 2 3 5 1 3 5 10 13 10 14 18 21 21 20 18 17 15 17 18 21 23 25 26 24 25 22 29 23 22 19 28 19 21 19 17 16 15 15 15 11 10 9 9 9 10
7 8 10 6 3 3 2 3 3 8 13 15 18 20 21 21 20 20 18 19 18 19 23 23 28 30 31 29 29 31 26 24 24 20 24 22 24 22 19 18 17 15 12 10 10 11 11 11 11
9 8 7 5 3 4 3 2 6 10 14 17 19 18 21 19 14 14 16 17 19 22 24 27 30 33 31 30 30 34 31 29 28 27 27 29 27 23 21 19 20 16 12 11 11 11 12 12 12
11 11 11 6 4 3 1 2 6 10 13 15 16 15 21 14 16 16 12 13 15 17 23 27 32 36 39 37 39 35 34 34 31 31 28 26 28 25 23 22 20 17 15 13 13 13 14 14 13
13 14 15 11 5 3 6 7 9 11 15 17 18 14 20 15 15 15 16 15 13 13 20 24 30 40 39 45 44 37 40 42 34 35 28 26 28 26 26 24 20 17 16 15 14 15 15 16 15
15 17 19 15 7 7 9 11 9 13 16 19 20 17 22 16 15 14 14 15 16 16 20 21 27 39 45 38 39 39 36 38 36 33 31 31 30 29 28 24 20 18 16 17 18 16 16 16 16
18 21 19 16 9 10 10 14 13 15 18 18 18 17 20 16 15 13 14 15 15 16 19 15 1 13 24 23 21 34 40 32 47 40 36 35 32 29 28 25 22 21 19 19 18 17 15 15 14
20 20 14 14 12 13 11 12 14 16 19 18 18 18 20 16 17 19 24 19 21 17 17 12 10 5 4 4 7 25 38 41 39 36 39 35 33 32 29 27 26 23 20 18 17 18 17 15 13
21 17 15 15 13 15 15 15 15 21 19 20 16 20 20 18 20 21 19 14 19 17 14 14 13 10 10 6 5 23 45 49 41 43 39 37 35 32 26 25 23 21 19 18 17 17 9 11 13
23 20 20 18 17 17 19 19 18 18 17 19 18 20 19 17 20 19 12 7 13 13 16 15 16 12 10 7 3 19 40 37 44 41 38 38 35 30 26 24 23 20 17 15 14 10 13 14 13
21 21 24 22 18 21 20 21 21 14 17 16 17 17 18 17 18 19 10 7 11 16 15 16 10 6 8 6 3 19 44 48 47 50 40 38 35 29 23 25 22 18 15 17 12 13 16 16 14
21 23 24 24 20 23 23 27 21 16 9 8 13 13 17 16 14 16 12 5 15 15 16 13 15 10 13 6 10 16 41 45 46 48 43 47 42 25 26 25 20 17 20 13 10 14 13 14 14
20 22 25 21 20 13 15 22 14 11 10 10 10 10 16 14 12 11 11 7 3 15 17 12 18 12 14 12 11 18 36 38 37 48 52 50 37 28 29 24 20 19 18 13 11 9 13 15 15
21 17 19 16 14 10 9 19 13 16 11 8 10 10 12 12 8 8 6 7 5 3 13 15 21 18 15 16 18 17 32 37 36 42 52 43 38 34 30 25 20 21 18 15 13 10 9 14 17
22 21 23 20 16 15 12 17 12 13 10 9 9 9 8 11 6 6 4 4 4 3 7 16 27 28 27 24 23 20 26 36 29 37 41 39 41 37 32 28 25 25 21 17 17 13 11 14 18
20 14 18 18 16 18 16 17 13 9 8 9 9 10 8 11 7 5 3 3 5 6 8 17 27 27 29 25 21 29 26 34 32 33 36 37 38 37 34 31 28 28 23 19 18 17 17 17 19
27 21 22 20 19 17 16 18 17 13 11 11 12 13 10 12 9 9 5 3 4 8 12 11 27 28 25 26 22 28 24 39 39 37 36 39 37 38 37 36 32 28 27 23 22 22 17 18 20
30 26 23 20 16 15 18 20 18 18 16 14 11 13 11 10 10 9 9 3 1 7 12 7 15 27 22 20 29 31 32 41 42 42 40 40 41 44 44 39 38 35 31 26 23 23 19 20 21
32 26 22 20 16 9 11 10 20 24 24 16 13 10 10 10 9 8 9 6 2 3 8 9 5 16 29 16 20 27 29 26 35 37 47 47 49 50 51 48 50 39 31 32 27 24 21 23 23
33 25 21 19 17 17 15 12 13 10 19 16 14 14 15 12 10 7 9 10 6 2 4 7 9 8 14 19 24 25 29 26 35 33 48 38 49 50 52 52 33 37 36 28 33 28 24 26 27
20 18 9 10 13 9 14 13 14 11 10 11 10 11 13 12 13 11 9 11 9 6 5 5 5 8 7 9 13 17 28 28 32 29 29 42 39 32 44 48 29 34 35 31 31 30 30 29 31
18 12 3 5 5 8 10 11 27 24 24 19 13 7 10 10 17 15 8 4 7 7 6 6 6 6 6 5 6 8 16 27 32 38 26 34 38 34 34 31 28 28 34 36 35 35 34 33 35
32 29 10 7 6 5 7 7 13 8 5 6 14 15 15 14 16 19 12 9 7 6 7 8 8 8 8 7 6 5 8 10 17 25 25 34 28 31 24 35 34 33 38 40 42 39 37 39 41
16 22 28 7 1 1 4 8 15 21 20 14 15 13 14 15 14 20 17 14 11 7 4 7 9 10 10 10 9 8 8 11 13 15 17 18 21 21 24 26 29 31 33 35 37 40 42 45 43
24 14 14 15 6 8 3 6 11 14 16 13 10 9 12 15 16 17 20 19 17 15 13 12 10 13 14 15 15 13 13 13 14 16 17 17 19 21 22 25 29 31 34 37 40 42 42 44 47
23 25 16 12 16 4 4 6 6 5 7 4 5 6 9 14 15 14 18 18 18 19 20 20 19 16 17 21 20 20 18 17 18 18 19 20 22 24 26 29 32 35 37 39 42 43 44 43 39
16 17 27 14 6 7 10 16 13 10 16 13 9 6 7 7 11 13 12 13 16 14 17 21 20 20 18 19 21 21 20 23 23 25 24 27 28 28 31 33 35 36 38 38 41 46 44 43 43

GFSSGP_700_spd_060.txt.gz
Wind_Speed
8 8 4 3 3 5 5 4 3 4 3 4 4 4 6 8 8 12 13 14 13 12 19 19 19 19 19 17 11 18 20 19 20 16 17 14 15 11 9 11 14 14 14 14 13 12 11 11 12
7 6 3 6 5 10 5 5 3 4 5 5 6 8 11 12 12 15 16 16 17 17 19 22 23 23 23 20 22 22 20 20 19 17 19 13 12 15 12 12 15 14 14 13 12 12 11 12 13
5 4 5 5 9 10 6 5 5 3 1 4 7 8 11 14 17 18 19 18 16 16 23 25 27 27 27 25 27 26 22 24 23 22 22 13 12 14 14 14 15 14 14 14 14 14 13 13 14
5 5 8 8 9 9 7 5 5 3 4 7 10 11 15 17 20 20 20 19 17 20 20 28 31 32 29 31 28 27 25 27 22 23 22 16 13 15 16 17 15 16 15 14 14 12 12 12 12
8 8 11 12 11 9 7 8 5 3 6 10 11 9 15 18 20 20 15 17 18 22 20 23 30 30 31 34 31 28 28 28 21 22 22 18 12 17 17 17 17 16 15 15 14 13 11 11 11
9 10 10 15 12 9 8 8 4 3 7 10 11 13 14 18 19 14 15 16 17 21 24 25 34 33 36 35 34 31 31 33 26 25 19 17 17 17 19 18 18 17 17 15 13 12 11 12 11
12 10 12 12 11 9 9 10 7 8 8 11 16 18 18 19 19 17 17 15 13 19 24 25 37 36 43 38 37 32 35 36 31 28 21 19 20 18 19 20 19 19 17 15 13 12 11 11 12
14 12 12 14 13 11 10 11 10 9 10 13 15 12 15 22 20 18 17 16 18 18 20 26 32 34 42 33 40 35 34 37 33 31 26 23 21 21 22 22 20 19 16 15 14 14 13 14 15
19 15 15 15 16 11 12 10 15 12 13 16 16 15 19 21 19 17 18 16 16 17 21 22 22 21 28 26 35 34 40 40 40 32 29 26 23 25 25 24 23 20 18 15 16 14 15 15 15
21 18 15 13 17 13 11 11 12 14 14 16 18 18 17 20 18 16 16 18 17 18 18 21 19 23 26 38 34 41 44 40 46 36 31 30 30 30 27 27 24 21 19 20 18 16 16 15 14
21 23 15 11 17 13 12 11 14 13 14 14 19 18 17 19 18 18 22 24 20 24 19 21 19 15 4 17 37 31 31 40 32 41 39 35 33 33 31 30 27 25 24 23 21 18 17 16 15
23 22 17 13 16 18 13 15 18 19 18 14 15 14 16 19 19 20 21 22 12 17 22 18 18 13 6 4 6 13 26 41 39 38 42 41 34 32 33 30 28 27 27 23 19 18 17 14 14
27 19 16 16 18 19 17 18 20 20 18 18 16 13 15 16 17 19 21 17 5 12 18 19 20 13 9 9 11 12 34 41 35 38 44 45 34 35 32 28 29 27 25 22 20 19 15 12 14
14 22 20 18 20 18 21 17 22 13 19 16 12 11 14 15 16 17 19 14 6 11 14 16 13 12 11 13 12 15 28 44 41 43 43 35 38 35 31 30 28 26 25 22 21 19 15 13 15
20 16 17 20 20 18 19 22 21 14 10 7 9 10 12 14 15 15 14 12 3 11 16 11 11 12 12 14 9 11 28 47 44 40 39 38 37 38 33 32 29 26 23 21 20 14 11 15 16
18 19 23 17 18 19 21 24 12 12 11 14 10 10 10 14 13 12 11 9 4 6 11 14 13 16 11 12 8 7 30 40 35 37 40 40 37 35 32 30 27 24 21 21 16 11 15 17 17
17 22 21 17 15 14 16 13 13 11 15 12 9 9 10 11 13 10 10 7 4 1 6 15 17 17 16 15 10 7 35 41 41 43 45 46 47 42 33 28 26 23 24 20 17 16 14 17 18
22 20 20 17 11 16 16 19 13 14 11 11 10 9 10 10 12 11 9 8 6 3 3 9 15 21 17 16 15 13 36 36 44 41 48 44 47 54 36 30 27 25 24 22 20 16 15 15 16
19 17 16 15 15 17 18 19 17 12 11 10 8 7 11 12 10 13 11 9 7 8 9 10 17 23 25 18 16 18 19 36 38 35 39 49 43 36 34 33 30 27 26 21 19 17 14 15 15
26 19 18 14 12 15 20 21 19 16 14 13 11 10 9 14 9 11 12 10 9 8 12 15 17 24 28 23 24 19 19 23 33 32 39 40 43 37 37 36 33 28 27 25 23 21 18 17 17
28 26 20 18 10 12 14 22 22 19 21 18 16 12 10 10 11 12 11 12 9 7 9 10 8 19 24 26 24 22 29 26 30 33 35 35 43 42 40 37 33 29 28 28 25 22 20 20 19
27 24 22 18 15 15 9 19 21 19 21 20 18 20 12 6 10 12 11 11 10 7 5 5 1 17 22 22 26 28 26 28 27 33 35 38 46 45 45 40 37 36 32 31 29 25 26 23 21
26 15 17 17 18 17 18 14 20 17 17 16 16 19 17 14 10 13 10 13 11 8 5 1 6 10 19 26 23 28 30 29 30 38 38 42 42 46 47 45 40 39 40 42 38 36 31 24 24
9 10 9 12 15 16 19 18 12 18 14 7 7 12 15 15 14 16 14 11 10 10 7 3 5 9 10 15 19 20 29 30 32 40 34 42 44 47 50 45 48 46 46 48 43 46 37 27 26
20 16 9 10 10 11 7 15 22 12 16 14 12 13 11 10 14 18 14 9 8 10 9 7 6 8 10 9 8 10 15 23 28 30 27 30 39 45 43 42 44 47 47 45 41 36 32 29 32
24 26 12 8 10 9 12 10 11 6 7 3 5 10 14 14 15 17 17 13 10 11 11 10 9 8 8 9 10 10 9 11 25 31 29 27 21 27 33 34 30 36 35 36 34 43 38 36 38
18 31 22 13 3 5 10 9 14 10 11 10 9 12 13 16 19 19 20 17 14 10 9 11 10 10 10 9 9 10 10 10 10 17 27 30 29 29 34 29 40 29 35 32 33 41 42 41 42
14 11 14 19 13 12 11 10 11 4 11 8 7 8 11 14 17 20 19 20 17 13 11 11 12 13 13 13 12 12 10 11 12 13 12 15 19 23 26 26 28 39 35 36 38 42 43 44 44
27 19 13 14 22 11 10 9 8 6 2 1 4 10 5 9 14 19 18 20 19 20 19 18 17 16 15 18 18 17 16 16 16 15 15 15 17 20 22 24 27 30 34 35 38 39 40 44 45
21 21 27 20 13 14 14 14 11 7 9 14 10 9 5 3 10 16 19 19 19 19 21 20 21 23 22 19 23 24 23 22 21 20 19 19 18 20 21 24 27 29 33 36 39 41 41 43 46

GFSSGP_700_spd_066.txt.gz
Wind_Speed
11 8 8 5 6 11 21 22 8 2 5 6 8 5 9 6 9 6 9 7 13 16 9 8 11 18 20 20 19 19 19 13 11 13 13 11 8 8 9 11 13 11 12 11 12 12 12 12 12
11 8 6 2 14 17 25 5 1 4 5 7 10 8 7 7 6 3 16 18 17 19 15 11 14 20 22 24 22 22 22 19 15 15 13 13 11 9 9 10 12 11 11 12 12 12 12 13 13
11 7 5 9 18 21 24 5 4 5 10 8 6 7 9 12 13 18 22 21 22 21 22 18 18 20 23 25 24 24 25 21 20 18 16 14 11 9 9 9 11 11 13 13 12 12 12 14 15
9 7 11 16 21 24 27 14 5 8 8 8 7 8 10 16 17 23 20 21 22 22 24 23 20 20 24 29 31 28 26 22 26 20 19 17 12 10 7 9 12 13 14 13 12 13 13 14 16
13 10 18 19 23 25 19 12 10 10 10 6 9 10 12 16 18 19 21 21 18 17 20 22 19 21 26 31 32 29 32 28 27 26 23 20 19 12 9 10 13 16 15 15 14 14 15 16 15
14 12 19 21 22 24 17 11 9 10 11 11 13 9 8 20 22 21 22 19 17 16 19 20 21 23 26 33 34 34 38 33 31 29 26 21 19 19 19 12 15 16 17 15 15 15 17 15 14
23 19 24 22 21 23 15 12 10 10 10 11 5 8 13 21 19 22 24 20 17 17 16 19 19 24 25 26 32 39 34 34 35 30 24 22 19 17 20 14 17 18 17 17 16 15 16 16 15
22 22 25 26 25 25 18 11 11 11 11 13 12 12 11 15 20 23 26 21 17 15 17 20 20 19 25 27 31 42 49 31 39 34 25 23 19 16 21 18 20 19 19 18 17 17 17 16 16
22 28 32 26 22 20 17 15 11 13 15 14 13 14 19 22 22 22 25 21 18 20 20 21 21 21 22 24 27 34 43 43 23 29 28 27 23 22 20 20 20 20 19 18 18 18 17 17 17
29 33 31 23 23 18 12 10 9 12 14 13 15 14 21 21 21 21 20 22 28 26 24 24 23 21 20 22 26 26 27 49 39 40 35 29 23 21 26 23 23 23 22 20 20 18 18 18 18
29 39 27 23 20 15 17 17 14 15 16 14 10 15 10 19 23 19 20 19 29 29 30 25 26 22 19 18 19 28 28 26 18 34 33 30 26 26 30 27 27 26 23 22 21 18 18 16 16
30 32 31 28 26 18 17 18 19 18 16 15 17 21 20 23 20 19 19 20 28 30 26 16 18 20 17 15 17 22 19 26 30 33 33 32 31 30 29 26 27 26 24 22 20 20 19 18 18
32 30 30 30 25 25 20 21 21 22 20 16 17 24 17 20 19 19 18 20 22 22 15 9 12 16 14 11 11 9 10 22 38 35 36 34 31 31 30 31 30 26 23 21 21 21 21 20 18
27 28 31 28 29 23 23 24 21 24 20 18 17 22 20 19 16 18 19 18 19 18 10 5 11 14 17 12 9 3 14 18 40 36 37 34 32 33 31 31 27 25 23 22 21 21 21 20 17
27 34 28 32 29 30 23 26 28 23 21 20 20 20 17 16 15 15 18 15 14 15 8 4 8 11 12 14 10 6 8 6 23 30 36 37 33 35 34 30 30 26 25 24 23 21 20 20 19
29 25 33 30 27 25 24 34 24 21 22 19 20 17 15 18 14 15 15 13 11 11 9 6 10 11 11 13 14 12 11 13 20 36 36 37 33 39 36 32 30 27 26 26 26 23 23 21 19
22 29 28 28 24 25 25 29 22 17 11 18 15 16 17 19 16 14 13 12 11 9 9 7 9 12 13 14 15 16 13 17 24 34 36 31 35 35 39 38 37 30 30 29 28 26 24 21 21
22 24 26 26 25 24 26 26 21 16 16 18 18 16 19 19 19 19 14 13 12 8 8 9 10 12 12 17 18 17 16 14 19 30 29 33 41 39 45 41 28 35 30 31 30 28 27 23 21
23 27 28 30 21 21 24 22 22 22 19 21 15 15 17 18 19 21 15 14 13 8 9 9 13 15 14 17 19 18 11 8 17 19 35 32 36 37 56 45 43 37 32 31 30 29 27 24 22
25 27 28 25 18 11 14 19 20 21 21 20 20 15 16 18 20 22 16 13 13 12 9 11 13 16 16 18 18 14 11 7 13 31 35 27 36 34 45 50 44 36 34 33 30 28 28 22 22
29 29 27 27 20 17 15 22 24 24 23 22 22 18 15 18 20 25 17 14 13 13 9 10 13 16 14 19 19 15 16 9 23 31 33 24 26 33 47 54 46 40 36 35 30 29 34 26 23
32 26 27 27 26 23 20 18 19 22 23 24 24 23 20 18 18 24 21 13 12 12 9 9 11 13 10 14 20 19 17 11 14 21 28 32 25 28 43 44 46 43 40 36 38 40 32 29 28
25 19 22 24 26 26 27 21 19 14 17 24 22 23 22 22 22 23 24 14 13 11 10 9 7 10 6 9 19 25 22 16 17 16 20 24 29 28 29 37 43 41 41 42 41 39 34 33 32
14 23 24 24 24 20 28 26 22 22 16 17 15 15 16 24 21 21 25 18 14 10 8 9 5 6 3 3 8 16 25 23 22 23 22 21 29 26 33 36 44 45 46 47 46 38 35 39 33
23 17 12 10 16 11 23 22 24 18 8 4 9 9 11 16 20 19 25 22 16 11 8 8 6 4 2 1 7 11 15 21 20 20 26 26 24 26 33 34 46 52 52 47 49 40 37 32 34
24 29 14 6 4 15 28 13 28 20 16 8 9 8 11 15 16 17 24 24 16 13 9 8 7 5 3 1 2 7 13 18 17 20 25 27 24 23 27 29 35 52 53 53 46 43 42 38 43
24 36 34 27 20 11 14 27 14 8 8 7 7 8 8 11 16 15 22 24 17 16 11 8 8 7 6 4 4 3 6 9 12 15 23 26 29 24 29 27 33 35 42 49 43 48 40 44 39
23 21 20 16 4 6 5 14 7 14 13 10 7 6 5 10 9 20 17 20 17 18 15 11 9 8 6 6 6 6 6 7 8 11 15 18 30 28 30 32 30 34 42 46 42 42 43 50 39
21 28 21 16 21 4 1 6 11 7 11 11 11 3 1 1 5 13 18 19 19 20 19 14 11 8 8 8 10 9 10 10 9 8 8 11 19 28 28 31 30 31 35 39 37 43 45 41 36
23 27 26 13 17 27 21 2 3 9 12 13 6 9 9 8 1 7 13 16 21 19 21 17 17 15 15 15 15 15 14 15 14 11 10 12 11 15 20 23 25 26 28 30 32 34 38 40 42

GFSSGP_700_spd_069.txt.gz
Wind_Speed
8 7 9 8 7 8 16 14 11 6 5 6 9 8 7 8 11 11 8 9 9 11 13 12 10 12 18 21 20 20 21 20 17 17 15 15 12 11 15 17 17 15 14 13 13 12 12 11 11
10 11 9 8 10 12 14 9 9 7 5 6 6 10 11 9 12 15 20 19 24 23 18 17 15 14 19 21 22 24 24 24 20 19 18 15 14 12 14 17 16 15 13 14 14 13 13 13 14
12 12 16 6 12 24 13 2 4 5 6 9 10 6 8 17 17 18 18 23 26 32 25 22 21 19 20 23 25 28 24 27 24 22 18 17 15 13 11 15 17 15 14 14 13 13 13 13 14
13 14 13 17 19 17 19 12 12 7 6 8 3 9 7 11 17 18 19 26 26 26 28 23 24 24 24 24 28 30 29 30 26 25 21 20 19 17 15 14 16 16 14 15 14 13 14 16 16
18 17 18 17 21 20 13 16 15 7 5 3 5 8 14 17 17 22 23 25 23 21 21 21 20 23 24 27 29 32 32 31 25 26 24 26 20 16 13 14 17 19 17 15 15 15 15 17 17
22 20 14 25 23 18 22 30 26 18 9 13 14 18 16 17 17 22 23 21 22 20 18 18 19 21 22 26 30 34 39 35 26 29 37 35 24 18 13 14 17 18 19 18 18 17 17 17 15
25 24 22 22 22 25 23 22 17 12 10 8 11 11 13 17 18 21 21 24 22 19 17 20 19 19 21 27 29 36 37 36 34 32 34 28 24 24 22 14 14 17 19 19 18 18 17 16 17
25 23 28 29 32 35 18 17 19 17 10 12 18 16 18 20 22 25 26 24 22 19 18 18 18 20 20 25 28 30 33 31 36 39 32 35 23 23 22 23 18 19 19 20 19 19 18 17 17
22 27 35 29 26 25 18 23 15 10 11 16 17 21 19 18 19 23 23 25 22 18 19 21 21 20 24 25 26 28 28 30 36 39 28 30 28 25 24 24 20 21 22 21 20 21 19 18 18
29 34 39 29 24 26 24 22 17 12 11 13 14 20 21 18 18 21 26 27 24 22 21 22 20 22 24 24 23 26 27 28 27 42 38 45 29 28 25 28 24 23 23 22 22 21 20 20 19
31 40 34 33 26 30 33 23 12 15 15 16 17 15 15 19 23 28 25 27 27 24 27 23 21 21 23 20 20 23 29 36 35 29 30 40 34 29 26 30 31 28 27 26 24 22 20 20 20
29 32 30 29 29 29 26 24 26 15 11 14 16 21 22 23 29 23 23 26 24 24 27 23 15 13 18 18 17 20 21 30 29 25 42 42 36 32 32 30 32 30 29 26 24 22 22 22 22
28 28 26 29 28 29 27 27 26 23 19 16 16 20 25 24 23 23 23 23 21 20 23 15 7 7 15 14 14 14 16 13 25 22 42 43 37 32 29 34 29 27 26 26 24 24 25 25 22
27 27 30 30 31 33 33 33 25 29 25 25 21 26 28 26 26 24 20 18 16 15 17 10 3 9 12 11 12 13 7 11 19 28 48 45 37 33 28 30 32 28 28 26 24 25 26 25 22
29 34 33 36 34 33 32 36 34 27 26 23 23 26 27 27 24 20 18 17 15 12 14 10 4 6 9 10 11 8 2 8 22 33 39 35 36 32 28 30 31 31 29 26 26 26 26 25 23
25 30 33 33 32 30 26 38 38 28 26 27 23 26 29 26 17 17 17 15 14 12 10 10 7 8 9 9 11 11 9 9 22 36 36 31 29 34 31 31 32 31 30 28 27 27 27 25 24
25 24 26 26 24 28 27 36 31 27 27 26 27 27 26 25 23 18 16 14 12 12 10 9 8 8 10 11 12 12 14 12 18 16 26 35 32 33 32 36 34 32 31 30 29 29 27 26 24
18 20 22 26 20 22 32 37 35 25 21 16 17 30 25 26 25 22 21 13 11 10 11 11 10 9 9 12 13 14 16 15 15 19 30 35 38 38 30 36 38 34 31 31 31 28 25 25 24
18 22 24 27 29 28 29 33 31 32 22 20 25 25 21 22 24 24 26 12 11 10 9 11 12 10 10 13 15 16 16 16 19 22 35 34 37 36 29 34 43 38 38 34 31 29 28 28 26
28 27 29 34 35 20 21 31 35 25 23 25 30 28 20 23 25 25 27 15 11 10 10 9 12 13 14 14 16 19 18 17 16 23 33 37 36 36 32 35 44 48 39 40 38 33 33 31 25
23 27 27 26 28 16 24 28 21 23 26 29 22 23 26 23 27 25 22 16 12 11 9 8 10 14 17 14 13 17 16 16 18 27 31 32 31 35 39 32 40 37 43 39 35 34 32 32 25
21 19 25 24 23 25 25 16 21 19 21 22 29 22 23 23 24 21 21 19 10 11 9 6 9 12 14 13 8 15 12 12 13 22 29 34 36 31 35 29 42 43 49 49 30 29 30 31 32
20 13 16 16 17 24 31 19 25 23 25 19 27 33 30 27 26 26 25 21 14 11 8 6 6 9 10 8 6 13 15 13 10 12 21 32 28 26 32 35 44 49 47 41 37 36 37 36 39
15 13 16 18 16 8 25 19 18 24 24 17 17 31 33 33 30 26 24 21 17 10 9 6 4 5 7 5 1 5 15 14 12 15 18 20 23 27 28 29 43 53 49 46 44 36 35 40 40
15 4 3 2 5 3 16 22 29 24 22 19 8 20 26 17 32 27 25 22 19 10 9 6 4 3 3 3 1 1 3 12 15 13 15 13 18 18 22 22 27 41 47 45 39 41 44 44 42
19 21 6 6 3 2 18 11 21 18 16 13 13 9 11 12 24 26 20 18 21 12 10 6 4 3 2 1 2 0 2 4 7 11 18 17 22 16 24 22 28 33 39 47 44 45 44 45 47
17 18 28 11 10 2 8 14 27 14 20 17 13 12 12 13 19 18 16 16 13 11 10 7 5 3 2 1 0 1 1 2 3 6 10 13 16 22 23 21 28 29 37 43 44 48 48 47 46
18 18 10 12 3 4 7 17 7 4 15 8 9 11 11 8 11 18 17 13 8 10 11 11 7 4 4 2 1 1 2 2 3 5 7 8 11 19 26 21 26 26 31 34 44 51 50 50 51
17 19 11 8 13 2 2 5 13 17 20 24 18 17 13 10 11 10 15 18 9 8 11 14 10 7 6 5 4 4 5 5 4 4 6 7 8 12 21 26 25 28 30 32 35 40 45 44 43
18 17 20 7 2 13 10 9 7 7 16 17 17 18 17 13 9 11 11 11 11 14 12 15 15 13 10 11 11 10 10 10 9 8 8 9 8 9 11 16 21 26 26 27 33 36 39 42 42

GFSSGP_700_spd_072.txt.gz
Wind_Speed
13 14 13 10 7 10 15 9 8 3 11 13 15 14 16 15 15 14 15 8 7 8 12 14 12 11 14 16 17 22 20 22 21 20 20 17 17 16 18 19 18 16 15 14 15 15 15 15 15
16 15 13 13 9 13 11 5 10 9 16 16 11 10 11 14 17 18 19 16 18 20 24 24 19 16 16 19 22 25 23 26 26 23 22 19 18 17 16 18 19 18 15 16 17 16 16 15 15
19 16 15 9 16 27 14 7 10 3 7 8 12 15 19 18 13 13 16 21 25 26 28 24 25 22 20 22 26 28 27 28 27 25 24 22 20 18 16 18 20 19 17 18 17 17 16 15 14
21 18 18 20 22 18 15 15 7 13 12 13 19 13 11 14 11 12 15 20 23 21 21 20 21 24 24 26 29 31 30 30 29 27 27 25 22 20 19 19 20 20 20 19 18 16 16 16 14
21 21 24 22 26 24 22 17 14 13 20 22 14 12 12 13 15 18 19 21 21 23 19 19 17 20 24 28 30 33 34 34 32 31 30 29 25 21 20 19 20 22 20 18 18 17 16 15 14
23 23 24 29 30 23 22 13 18 23 23 16 10 13 14 15 15 17 19 18 21 24 21 19 19 20 20 24 28 33 36 38 37 35 35 37 31 28 23 20 21 23 21 21 19 18 17 16 14
26 28 34 32 28 27 16 7 20 15 28 21 19 19 17 18 15 17 18 21 22 22 21 19 18 20 21 22 27 31 36 41 38 34 24 36 26 36 23 21 20 20 22 22 21 18 17 17 15
28 31 37 36 27 30 16 7 10 20 22 19 17 19 17 14 15 18 20 18 21 22 21 21 21 22 22 24 25 29 30 36 33 24 27 30 21 27 21 18 20 22 23 22 20 19 20 18 15
28 35 41 37 33 32 16 12 3 15 20 19 21 21 17 18 15 16 18 19 24 22 21 18 20 25 25 25 27 26 28 30 34 31 22 27 36 29 26 25 20 21 25 24 22 20 20 18 18
34 44 45 37 33 31 23 20 14 18 21 21 22 17 16 18 19 17 21 24 30 23 18 18 21 24 26 27 28 26 25 27 27 27 27 26 36 35 26 27 25 27 25 25 23 23 23 20 19
38 48 40 37 33 30 29 24 17 21 24 28 22 20 18 16 17 18 22 28 25 22 20 22 22 21 24 28 27 24 22 26 27 26 29 21 34 39 31 34 33 26 28 28 29 27 25 20 18
39 41 38 36 34 31 30 25 26 22 22 18 22 22 20 18 18 22 26 24 23 22 20 21 21 17 16 22 22 22 23 25 26 32 34 34 34 39 33 33 34 29 29 29 28 26 24 22 20
37 36 36 35 32 27 24 27 26 25 17 23 16 20 19 17 20 25 27 27 21 20 18 18 17 10 10 19 21 20 22 24 26 34 39 41 53 40 36 34 37 35 33 31 30 27 25 25 22
33 29 29 29 29 27 30 30 32 27 23 25 26 22 21 21 23 26 26 25 20 17 16 15 9 7 9 15 17 17 17 24 28 29 28 32 45 42 37 31 33 35 32 33 28 26 27 27 24
30 31 31 32 31 32 31 41 38 28 25 26 27 26 27 23 30 24 29 24 16 16 15 11 9 8 11 12 15 14 14 15 20 19 31 44 44 40 34 33 33 31 33 30 29 29 29 27 26
23 28 33 35 32 34 27 41 34 28 27 31 27 24 25 30 28 24 23 18 15 15 16 11 9 8 10 12 14 13 12 6 16 22 36 45 43 37 33 30 35 31 34 31 32 31 30 28 26
27 29 30 31 29 26 23 33 31 27 27 30 34 30 31 31 28 28 23 18 18 16 15 12 9 6 8 12 14 14 11 6 19 24 40 42 39 35 31 30 33 36 35 34 33 32 29 30 29
24 18 23 24 26 24 30 33 33 32 31 34 30 27 32 34 32 29 22 19 18 16 15 13 9 7 6 8 12 13 13 11 18 24 29 28 33 36 32 31 34 37 37 36 35 32 31 29 29
22 22 21 23 21 20 29 31 32 28 30 33 30 26 22 24 32 24 24 20 14 16 14 14 10 7 8 9 12 16 15 17 17 18 21 27 29 34 36 37 36 37 39 38 35 34 33 32 31
26 27 26 26 26 17 26 31 26 25 29 30 30 29 26 24 28 25 22 12 11 16 14 13 12 9 9 10 11 15 17 17 17 22 22 31 37 41 33 37 35 40 38 38 38 37 36 34 33
23 32 32 27 27 27 27 34 28 18 15 26 27 31 25 32 29 23 20 14 10 14 12 13 11 9 11 10 9 11 17 17 23 22 21 35 39 40 38 36 31 42 43 42 38 36 35 35 34
32 28 19 23 23 17 8 9 29 18 15 20 26 31 31 26 34 24 17 14 13 10 11 11 11 8 9 8 4 7 12 14 15 20 24 39 37 35 36 34 32 36 44 45 43 40 38 32 34
27 29 21 19 16 15 21 10 31 19 23 20 28 21 34 29 34 30 17 11 13 11 10 10 9 8 6 4 0 9 14 14 11 14 25 33 36 37 33 34 38 36 46 49 47 47 44 34 33
17 13 21 17 17 8 22 9 24 25 23 23 26 21 22 36 32 30 21 16 17 16 11 9 8 6 5 2 3 7 13 13 13 13 15 27 25 29 31 33 41 33 42 45 44 39 43 38 30
23 8 4 7 6 6 14 14 30 19 21 25 22 18 22 32 33 31 25 21 21 17 10 10 8 5 4 2 1 6 9 13 13 12 11 8 26 31 25 25 35 38 43 42 41 44 36 35 39
20 18 3 4 3 1 14 7 20 19 31 29 19 16 16 24 35 29 26 22 20 13 10 11 7 4 4 1 1 4 7 8 9 12 11 11 9 18 22 25 22 28 39 45 41 38 43 34 33
10 15 23 3 3 2 9 11 23 25 22 23 14 15 10 22 26 24 26 21 12 11 10 11 8 5 5 3 2 3 5 6 5 6 7 13 16 19 20 17 20 22 25 31 45 46 44 43 44
13 14 5 11 2 4 6 5 5 13 21 24 23 20 21 22 17 18 24 15 8 7 9 13 10 7 7 5 3 2 3 3 2 2 3 6 10 18 22 22 24 24 25 28 35 41 44 48 48
14 12 11 8 9 1 2 4 10 11 7 19 23 22 22 21 22 21 17 12 11 5 7 11 13 10 8 9 5 3 1 1 2 3 4 4 7 12 19 26 28 23 28 29 31 36 41 46 49
17 16 14 7 7 15 3 5 15 17 17 20 18 23 23 21 23 23 22 18 13 7 4 5 14 14 13 12 10 8 7 7 7 6 6 7 8 9 13 17 25 29 28 32 36 38 40 40 40

GFSSGP_700_spd_075.txt.gz
Wind_Speed
21 19 17 13 9 10 14 7 6 6 8 12 12 16 16 15 17 15 14 13 9 7 6 10 12 13 12 13 15 18 20 23 23 23 23 20 22 18 17 17 18 16 15 14 15 15 16 18 15
22 20 19 15 12 17 14 1 3 10 15 14 15 17 15 16 17 20 21 18 14 14 17 22 23 21 17 17 20 21 22 25 25 24 23 23 20 20 18 17 18 18 17 16 16 17 18 17 16
22 22 21 13 20 28 12 9 4 4 10 13 13 17 16 17 18 18 16 15 16 18 22 20 18 20 21 21 23 24 24 26 27 27 26 25 21 21 19 19 19 20 19 18 18 18 18 18 17
24 24 24 24 20 18 19 16 5 6 14 16 16 20 20 21 19 18 13 12 14 16 16 20 16 15 18 22 25 26 28 30 28 29 28 27 25 21 20 20 21 21 20 19 19 18 18 16 14
26 28 30 30 30 27 22 19 18 13 11 18 19 24 27 17 17 15 15 14 16 18 19 21 17 16 17 19 24 27 30 32 31 33 32 29 28 24 21 20 22 22 21 21 21 20 18 15 13
26 28 29 34 35 27 24 19 21 17 23 21 28 26 23 19 16 14 17 16 17 19 18 19 18 17 17 18 20 27 29 32 34 37 37 35 31 28 25 22 21 22 23 23 22 22 17 14 14
28 30 38 38 34 27 23 21 16 18 22 21 26 26 21 19 16 14 17 18 17 16 18 19 20 20 19 18 19 22 26 32 36 44 40 39 41 36 23 23 22 21 25 24 23 20 17 16 14
30 32 40 40 34 33 24 24 13 9 12 13 21 22 22 18 16 15 15 16 14 19 23 22 21 22 22 23 21 21 25 33 37 26 22 41 39 33 34 32 22 23 25 24 23 22 19 16 15
30 37 46 44 39 34 26 24 14 10 9 13 19 24 21 15 16 17 16 16 18 22 23 24 22 21 25 25 26 23 26 28 34 39 38 21 22 30 32 25 25 25 25 24 23 22 20 20 19
34 44 49 45 36 31 31 29 20 19 12 13 17 21 23 19 18 18 18 19 20 22 21 25 24 24 25 27 28 27 25 27 29 32 34 29 21 19 31 32 25 26 25 24 24 24 21 21 21
39 50 44 42 33 33 32 32 25 26 19 7 9 16 30 24 23 17 18 18 23 21 22 25 24 25 24 23 26 27 26 26 27 27 27 23 24 25 22 36 33 30 26 27 26 24 23 23 19
42 44 42 40 35 35 32 31 33 27 20 11 10 18 22 25 24 16 20 20 24 24 22 24 23 23 23 19 19 24 25 25 26 26 26 25 26 25 33 39 34 30 30 29 27 27 24 21 21
40 43 40 37 35 36 33 35 31 32 25 19 16 18 16 19 18 18 19 19 22 22 21 22 21 20 19 16 13 17 21 21 22 23 26 27 27 24 36 40 36 34 34 33 33 30 25 24 21
34 31 41 37 36 36 33 33 29 33 27 25 20 18 23 23 19 21 20 21 23 23 20 20 18 17 15 12 10 15 18 18 21 25 28 27 31 31 24 39 41 37 33 32 31 29 26 25 23
28 36 38 33 32 33 27 35 37 30 30 26 23 19 23 26 25 26 20 22 21 16 18 18 17 15 14 13 11 13 17 20 22 28 36 38 37 36 33 42 38 38 36 31 30 30 25 24 23
20 26 34 34 31 31 24 45 36 30 29 27 23 22 24 26 24 22 23 23 19 17 18 18 17 14 14 12 14 17 19 21 22 17 22 25 33 37 44 40 38 39 36 34 35 32 30 28 24
27 33 29 29 30 27 22 36 34 27 28 29 26 24 25 29 27 26 28 26 22 16 19 18 16 13 14 14 14 16 18 19 19 18 23 26 31 40 43 38 35 37 37 37 36 34 31 27 24
17 26 21 25 22 19 25 33 33 30 30 32 32 29 28 28 30 29 31 27 22 18 18 18 16 13 13 14 15 14 15 15 18 11 19 31 37 43 43 37 34 34 36 37 36 36 31 26 24
23 27 29 30 23 22 27 34 39 39 36 33 35 29 27 27 23 32 30 27 23 20 16 17 16 14 14 13 14 16 14 13 10 13 10 32 37 40 41 34 32 36 35 37 36 36 31 30 30
25 24 32 32 24 24 22 30 33 39 35 32 32 30 25 28 24 22 29 29 16 14 15 16 16 14 14 14 14 15 15 14 14 10 15 19 30 37 39 34 32 33 36 37 37 36 33 32 31
28 26 25 29 29 31 29 39 39 36 31 25 27 27 26 26 22 23 23 23 17 13 11 14 15 13 13 14 15 14 15 18 19 18 19 19 23 20 33 37 35 35 36 36 36 35 33 33 33
27 25 28 24 22 22 17 11 29 27 30 27 17 24 28 27 25 25 23 19 15 16 12 11 13 12 10 11 14 11 11 16 15 16 19 20 26 35 30 39 40 42 39 40 38 37 34 34 36
26 20 20 21 18 18 21 19 32 27 30 26 17 22 19 19 28 24 25 24 16 15 13 10 11 11 8 8 10 9 10 16 15 15 19 19 30 29 32 37 36 36 31 39 41 39 44 39 38
14 16 17 23 19 10 21 18 15 26 30 24 22 18 17 20 19 30 26 29 22 19 16 10 10 9 7 6 4 7 8 11 11 8 10 16 25 38 37 32 37 35 36 29 42 46 46 43 40
12 12 3 5 7 6 3 16 25 13 19 18 21 25 28 24 20 22 30 29 25 24 17 11 10 8 6 4 1 3 9 9 12 10 8 9 27 39 40 32 35 30 32 38 38 42 45 40 43
15 21 6 4 3 3 20 8 13 8 16 24 23 28 27 25 24 28 32 28 27 24 14 12 10 8 6 3 1 3 5 10 11 11 9 8 14 23 28 31 28 32 30 34 28 40 42 46 41
9 17 20 5 5 1 5 8 25 21 21 27 31 25 25 20 23 26 29 28 26 22 12 12 12 9 6 5 3 5 5 5 7 9 10 12 10 16 24 25 19 18 19 25 26 37 42 43 44
6 10 6 7 3 2 5 11 4 3 7 25 29 26 21 12 20 23 22 24 23 15 13 14 14 12 10 8 6 5 5 4 4 4 5 7 11 17 17 17 15 15 22 22 27 29 35 41 39
9 9 9 5 5 2 3 0 1 7 2 10 15 24 20 20 18 21 24 27 20 18 16 14 13 14 10 9 8 6 4 3 2 2 3 5 8 13 23 22 23 22 22 25 25 28 32 33 34
13 14 14 5 3 8 2 4 8 12 9 9 6 14 21 17 22 26 29 31 23 22 17 15 12 16 16 16 14 12 10 8 5 5 5 6 7 8 11 20 24 26 29 26 29 31 28 28 32

GFSSGP_700_spd_078.txt.gz
Wind_Speed
22 20 19 17 11 10 17 5 3 8 6 9 13 18 15 14 14 13 16 21 13 6 7 9 13 14 12 11 12 12 14 17 20 22 22 22 22 24 22 21 19 15 15 14 15 14 13 14 16
23 22 20 20 16 18 18 11 6 13 16 14 12 15 15 15 15 16 20 19 17 14 15 17 20 20 18 15 15 15 16 18 17 20 22 21 23 24 20 21 21 17 16 16 15 14 14 15 16
24 22 21 18 24 28 24 13 8 6 12 18 13 15 16 14 12 16 17 12 9 10 12 14 16 15 15 17 18 17 18 19 19 22 26 25 22 21 22 22 22 18 17 17 16 15 15 16 16
24 24 24 27 26 14 26 14 12 5 7 15 16 13 16 17 15 18 15 13 11 12 14 16 15 14 14 15 17 18 20 22 23 25 30 21 24 23 24 21 21 20 18 17 17 16 17 17 15
25 27 30 31 34 31 26 15 23 21 14 15 19 18 20 18 19 18 16 13 14 13 17 14 13 12 14 13 16 19 21 24 26 28 26 25 29 29 24 23 21 21 20 20 18 18 18 17 15
26 28 30 37 40 31 28 26 27 20 17 18 23 24 25 20 19 16 16 14 13 14 12 14 14 13 14 13 14 16 21 24 27 31 32 31 33 33 26 25 22 23 22 22 21 19 17 17 16
27 31 39 40 39 29 23 28 27 20 15 23 26 31 27 22 19 18 17 15 14 12 13 19 17 15 15 15 15 17 20 26 31 33 36 35 33 32 27 25 26 24 24 23 21 19 18 18 17
29 32 40 40 37 39 26 31 26 21 15 13 13 14 22 22 18 16 14 14 12 11 16 18 19 20 17 17 19 19 20 25 34 35 37 43 37 29 38 33 27 27 22 21 20 20 20 18 18
31 37 44 41 37 38 27 28 26 24 18 7 10 19 19 22 16 16 15 15 13 14 17 17 20 23 21 21 22 24 25 27 29 32 34 33 37 25 38 38 32 33 25 25 24 23 21 20 21
32 42 45 42 38 37 31 30 26 29 24 14 15 13 24 17 16 17 18 17 14 14 17 19 21 24 22 23 23 25 28 28 29 30 33 35 34 27 20 27 29 29 27 26 24 23 22 23 21
37 44 41 40 37 34 33 32 29 33 33 18 12 18 19 21 19 19 21 18 16 16 17 21 23 25 24 24 22 24 27 29 29 28 29 28 27 19 20 22 38 31 29 28 28 25 24 21 19
38 40 40 40 36 37 37 36 36 35 32 22 17 16 14 17 24 25 22 17 18 17 16 21 23 24 24 23 19 17 22 26 26 27 26 23 22 22 23 22 36 33 31 30 27 26 24 23 21
38 38 38 37 37 38 35 39 38 40 31 27 27 22 15 13 15 16 16 19 18 17 19 21 22 23 22 20 16 12 14 21 23 24 24 23 22 23 25 23 24 35 33 30 27 25 25 24 24
32 31 33 34 34 36 38 41 39 38 28 31 31 25 17 17 14 15 17 18 17 16 18 17 20 22 21 19 15 9 9 14 19 22 21 22 23 23 30 24 35 41 34 31 28 25 25 23 23
25 31 31 31 32 30 31 49 45 35 30 32 31 28 22 17 20 18 16 20 16 14 14 16 20 21 20 19 15 10 10 13 17 17 19 21 24 27 27 31 28 42 36 33 31 28 25 26 24
26 28 29 21 18 22 29 58 35 30 29 30 32 31 25 20 18 16 17 18 18 17 16 16 19 20 19 20 16 13 14 16 19 21 21 24 30 32 34 37 27 42 38 35 32 29 29 27 24
22 24 30 32 24 21 25 45 32 30 26 30 33 30 25 22 22 20 19 20 19 21 20 17 20 19 19 19 17 14 15 17 20 22 22 22 27 38 40 38 30 41 39 36 33 29 29 28 28
18 19 22 23 14 13 23 38 31 28 23 27 30 31 29 26 23 23 21 21 21 24 20 18 19 18 19 18 18 16 15 17 19 20 23 23 22 29 40 38 36 40 40 37 35 31 31 28 28
28 30 35 32 29 30 29 35 31 29 32 35 35 33 32 33 27 26 24 24 25 25 21 17 18 17 19 17 18 17 18 17 19 16 14 17 24 31 43 35 43 39 38 36 35 34 34 33 32
21 26 32 31 26 27 31 43 37 30 33 35 38 36 32 33 33 31 27 24 25 25 20 16 16 16 17 16 16 18 19 19 18 11 11 6 22 23 34 36 42 38 37 37 38 36 36 34 32
20 25 30 31 29 29 33 48 40 35 36 35 29 32 30 32 28 28 25 17 21 21 17 14 14 15 15 16 15 16 17 18 16 12 6 4 18 18 26 44 38 36 35 38 38 36 36 35 33
18 18 23 23 22 18 15 14 29 30 31 30 28 25 21 28 27 28 21 19 18 18 17 15 13 13 13 14 15 15 13 12 13 11 5 6 9 25 18 37 36 38 38 38 36 36 35 33 32
17 17 21 19 23 25 20 15 6 13 22 25 21 21 18 19 28 25 20 18 18 15 17 15 12 10 10 12 14 11 7 9 14 13 13 13 15 17 23 21 38 38 37 35 35 35 34 32 33
13 16 16 16 20 9 23 19 7 13 19 20 17 17 12 10 16 26 27 25 23 18 18 17 13 10 8 9 11 9 5 7 12 12 12 15 19 22 22 27 26 28 37 41 37 36 35 35 39
14 11 4 2 4 5 5 13 19 16 14 10 18 19 17 15 17 18 22 31 24 24 22 18 12 9 8 7 8 6 5 8 10 9 8 8 11 21 26 27 31 34 32 30 33 40 46 43 40
10 17 5 3 2 4 11 6 3 7 12 16 19 21 21 19 20 22 19 24 28 26 23 21 14 11 8 7 5 4 2 7 7 9 7 8 7 18 21 29 28 30 29 28 25 27 31 37 39
5 15 15 7 6 3 5 10 14 17 18 16 18 20 21 23 22 28 25 24 26 26 23 21 13 12 9 7 5 4 3 4 5 6 6 7 6 11 22 23 26 29 28 33 28 32 32 29 41
10 6 3 7 3 2 6 3 6 12 9 18 22 23 25 19 21 28 29 28 31 28 26 23 17 15 13 11 9 8 8 7 6 5 5 6 8 7 18 22 20 20 21 19 20 27 23 31 36
12 6 5 5 4 1 3 0 3 7 12 10 11 15 27 22 23 24 29 28 31 29 26 25 21 18 16 13 13 11 10 10 8 7 6 5 6 8 11 16 18 16 16 18 22 23 25 29 31
11 11 10 6 3 6 2 6 6 7 14 11 7 13 16 22 25 23 27 27 27 28 27 26 23 20 18 17 17 14 12 11 9 8 7 6 5 5 8 15 18 21 20 20 23 24 26 25 27

GFSSGP_700_spd_081.txt.gz
Wind_Speed
22 21 19 18 12 11 18 12 14 10 7 10 16 18 15 12 7 7 11 14 14 9 8 10 12 13 13 12 11 10 9 9 12 13 14 17 19 17 11 18 18 14 13 11 12 13 14 14 14
23 21 20 20 18 18 18 15 15 13 16 12 13 18 17 14 13 14 12 13 11 9 10 13 15 16 19 20 18 14 14 13 14 15 15 18 19 20 22 20 19 16 13 14 13 13 13 15 15
22 22 21 18 26 25 23 15 9 11 16 18 16 16 18 17 14 10 12 13 10 6 7 11 14 15 12 12 14 15 17 16 16 16 17 20 22 22 22 20 19 19 14 14 13 12 13 15 16
22 23 25 29 29 13 19 12 14 10 5 11 17 16 19 18 14 10 13 12 12 8 12 14 13 12 10 10 9 14 16 18 19 20 21 23 23 20 22 24 23 21 16 14 14 14 15 16 16
23 25 29 31 35 32 24 10 19 18 11 9 17 22 22 19 15 13 13 12 14 12 11 11 10 10 10 9 8 10 15 19 21 23 24 25 25 23 28 24 21 21 17 16 17 17 17 16 14
25 27 28 34 38 32 27 26 27 25 24 20 21 25 25 20 20 16 15 13 16 14 10 10 11 10 11 10 8 10 13 19 23 25 26 27 27 25 31 24 22 20 19 18 19 19 18 16 15
27 28 36 37 35 31 22 28 28 26 25 20 22 23 24 24 23 20 16 14 14 15 11 12 13 12 13 13 12 12 15 19 24 27 28 30 31 28 29 28 29 23 21 20 21 18 17 17 17
28 29 29 35 31 34 25 30 28 28 22 17 18 17 24 26 28 23 17 13 13 11 8 12 13 14 15 16 15 14 18 22 25 30 30 34 29 29 19 29 25 26 27 22 19 19 18 18 19
29 33 37 35 30 33 27 28 25 23 23 24 13 10 15 18 23 24 19 13 9 9 9 10 13 16 18 20 17 16 21 25 27 30 31 32 34 31 31 25 34 37 32 22 19 21 20 20 21
33 39 39 36 34 35 32 32 28 29 26 19 15 12 16 20 21 23 19 12 12 11 10 10 14 16 18 21 19 20 23 28 30 29 28 29 30 30 27 25 32 35 29 26 22 21 20 22 24
36 42 38 37 34 33 33 33 31 33 32 22 25 20 20 22 24 22 21 15 12 12 13 10 13 16 18 21 20 21 22 26 30 30 28 26 25 28 26 15 17 33 32 37 26 24 25 24 22
37 38 36 37 34 34 37 35 38 37 36 24 27 28 26 21 27 28 24 20 16 13 14 13 16 16 17 21 20 20 19 19 23 27 27 25 22 20 22 15 16 27 33 40 31 27 24 23 23
34 33 34 34 35 36 37 40 37 42 34 25 29 30 29 21 23 28 27 26 19 15 13 12 15 15 17 20 20 17 16 14 19 22 25 25 22 21 23 25 20 26 34 34 30 26 26 26 26
30 26 28 29 30 32 36 37 37 37 34 28 31 32 31 24 20 22 25 22 18 15 14 10 13 15 17 19 20 16 13 12 14 19 21 22 22 21 24 24 24 24 37 35 28 27 26 26 25
27 29 28 27 25 30 27 36 37 30 31 34 32 31 32 29 24 22 20 18 16 14 14 11 13 16 17 17 20 14 12 14 12 16 19 19 20 23 25 25 29 27 18 33 32 30 29 27 26
22 24 24 17 19 18 20 22 13 16 20 27 28 28 32 33 27 26 24 20 16 18 17 14 16 15 17 16 18 14 12 14 14 17 19 20 21 24 25 27 32 24 30 33 34 30 30 30 28
21 17 19 19 21 22 25 22 26 24 24 24 21 26 31 35 31 26 24 22 17 18 19 17 18 16 18 16 18 15 12 14 16 19 20 21 21 24 26 35 32 31 26 35 34 33 30 30 28
13 15 15 17 19 22 26 32 25 23 25 25 24 25 30 34 33 27 25 23 22 19 22 21 21 17 18 17 18 14 14 15 17 19 21 21 23 25 25 41 34 37 31 40 38 34 33 32 29
27 28 25 27 25 29 32 34 32 26 26 25 27 29 29 31 33 29 27 27 26 25 23 20 21 18 18 18 17 14 14 16 18 20 21 20 26 28 33 45 39 38 33 42 39 33 34 34 32
23 25 25 25 16 17 26 37 34 34 35 30 28 31 31 32 34 34 31 30 28 28 24 20 20 18 19 17 16 14 16 18 18 17 18 17 23 23 29 39 43 41 37 44 40 35 36 33 31
21 21 20 21 21 22 29 39 29 24 29 30 32 30 29 27 33 34 35 33 30 29 24 20 16 17 18 17 15 14 18 17 15 12 13 15 16 27 29 32 30 35 42 43 38 37 36 31 33
17 15 13 15 12 7 9 14 20 25 22 23 30 29 27 20 24 27 36 35 32 26 22 18 17 19 18 17 13 13 16 16 10 7 11 5 2 12 17 35 36 38 42 38 35 34 36 33 32
12 11 12 13 12 12 13 12 10 13 22 14 14 22 20 19 22 26 32 34 29 23 23 20 19 18 16 15 12 12 13 11 7 10 10 5 1 7 10 20 36 43 38 36 36 35 35 32 33
9 11 12 12 8 5 11 18 13 9 12 12 4 13 16 16 19 25 32 31 25 24 23 22 20 18 14 13 11 10 9 8 8 10 8 9 8 9 9 9 20 37 41 40 37 34 33 32 31
12 7 2 1 3 4 4 11 18 17 18 15 9 17 18 17 15 24 30 30 27 23 23 22 22 19 14 13 10 9 5 7 9 10 10 10 13 16 16 14 19 23 33 35 38 38 39 38 36
7 7 4 3 2 3 4 8 4 5 8 8 10 16 14 17 17 15 24 28 27 26 26 25 20 17 13 13 10 8 5 9 9 11 9 8 10 12 22 21 25 24 23 19 27 26 42 44 39
4 8 11 5 9 5 6 6 12 15 10 15 10 9 14 15 19 19 19 21 24 33 31 31 24 20 16 14 11 8 5 8 10 11 10 9 8 9 17 18 14 29 28 26 25 16 15 24 27
9 6 5 7 3 4 4 4 5 15 14 12 11 19 17 15 18 19 21 22 26 24 33 33 27 22 17 15 13 10 8 7 9 10 9 8 9 6 14 13 11 15 24 18 28 25 20 22 25
8 9 4 4 4 2 3 2 3 10 8 15 14 10 11 16 17 14 24 31 27 26 33 34 30 24 19 18 16 13 11 8 7 7 6 5 3 5 8 15 17 17 16 16 24 17 20 19 26
6 8 7 3 2 5 2 6 8 6 6 18 14 12 11 10 18 17 21 32 32 25 33 35 31 25 21 19 17 16 14 12 10 9 7 5 3 2 4 8 14 19 18 17 17 24 22 19 22

GFSSGP_700_spd_087.txt.gz
Wind_Speed
19 19 17 15 10 14 23 22 16 13 11 12 12 11 9 14 8 8 9 12 10 11 11 9 10 10 12 15 14 14 15 13 13 13 14 13 11 11 10 9 9 8 5 5 7 10 11 11 11
18 17 17 12 19 25 24 17 17 12 14 13 13 16 16 13 13 7 11 11 12 11 10 7 9 11 14 15 17 20 18 16 15 16 15 16 14 12 13 12 11 8 7 7 8 10 12 13 12
18 15 11 14 29 32 26 16 17 14 17 11 11 11 11 14 15 11 17 14 11 10 9 7 9 12 13 14 12 11 14 17 17 17 16 18 15 12 15 15 13 12 11 10 10 10 11 13 12
18 17 18 26 30 21 24 24 15 15 12 12 13 12 12 14 10 12 18 13 10 9 9 8 11 13 10 9 8 8 9 15 18 19 17 17 16 18 19 18 16 15 14 12 12 10 12 11 11
17 14 23 27 31 30 26 19 15 15 15 12 9 14 14 13 17 17 18 14 11 10 11 10 12 11 9 8 7 7 8 12 17 18 17 18 19 20 20 19 19 18 18 17 14 13 14 12 12
19 19 28 31 31 28 24 24 22 20 20 18 17 15 16 16 15 19 22 17 13 10 11 11 12 10 10 7 6 7 8 9 14 18 18 20 20 21 22 22 22 21 22 22 16 14 15 12 13
24 24 31 33 31 26 20 21 25 26 26 26 22 25 15 15 21 22 20 20 15 12 11 11 11 11 12 8 6 7 9 10 13 17 19 21 23 25 25 27 27 24 28 19 16 16 15 13 15
23 27 35 33 31 31 24 22 23 23 23 19 21 22 16 25 25 26 27 24 21 15 14 12 10 10 12 10 8 8 8 11 13 18 19 24 26 27 28 27 27 28 27 29 28 20 17 14 16
18 29 38 32 27 28 21 23 20 22 23 22 21 22 20 26 18 30 30 29 24 20 17 14 12 10 11 10 10 11 10 11 13 16 21 25 28 29 29 29 29 33 28 33 33 26 22 18 18
28 29 33 27 24 21 21 21 18 20 20 21 23 24 24 28 28 28 30 29 30 25 21 18 15 13 12 11 11 13 13 13 14 16 19 27 29 29 30 28 30 32 19 26 26 33 30 23 21
28 38 27 25 22 24 21 25 24 26 30 26 24 21 21 21 20 24 32 26 30 27 26 23 18 15 14 13 14 14 15 15 15 17 18 24 28 32 31 31 33 22 21 23 27 29 33 27 23
33 31 26 27 28 26 25 24 28 28 29 25 26 26 24 27 26 28 27 25 31 29 29 26 22 17 18 17 16 15 15 15 16 17 20 22 26 30 31 30 32 30 25 24 25 34 38 28 27
31 28 30 27 26 27 27 31 33 33 29 29 29 30 30 29 29 29 28 26 27 29 32 29 26 21 20 18 16 15 16 16 15 16 21 23 26 28 29 28 27 25 24 21 23 27 43 32 29
25 20 28 25 27 28 27 29 30 31 29 30 31 32 29 30 28 30 29 27 28 27 33 33 28 25 22 19 15 15 16 16 14 16 19 23 24 26 29 27 27 24 24 20 20 32 34 33 30
23 29 28 29 28 29 25 32 32 30 29 32 32 30 30 32 31 33 31 29 29 29 30 37 30 28 24 21 18 17 16 17 14 15 19 20 22 24 27 28 25 24 25 24 24 28 35 32 32
20 24 27 22 20 19 22 32 19 18 18 21 25 27 28 29 30 30 33 33 30 28 32 41 34 31 27 24 22 18 17 17 15 15 18 18 19 22 25 26 25 25 22 25 26 32 39 32 31
22 27 25 21 18 17 19 23 16 14 16 20 19 21 23 24 25 28 30 34 31 30 33 41 34 31 29 27 23 20 17 17 16 16 19 19 18 20 25 26 27 27 22 25 22 35 37 31 32
21 25 25 23 17 17 21 27 25 24 28 31 30 27 26 25 23 26 28 31 31 31 36 39 33 32 30 30 25 21 18 17 17 18 19 19 19 21 24 27 29 29 28 28 27 28 37 33 31
26 27 25 25 23 26 28 31 29 26 27 30 31 29 29 26 24 23 26 29 32 30 36 36 34 34 34 28 26 22 19 18 19 20 21 20 21 23 26 28 29 32 29 30 35 26 34 29 32
24 28 30 28 22 23 25 29 27 29 31 32 30 28 29 27 24 25 26 29 32 36 38 38 33 34 33 28 26 24 21 18 20 22 23 21 23 26 29 31 32 32 31 34 34 32 29 34 37
24 26 27 26 23 24 28 33 27 18 17 20 23 28 28 27 25 26 26 30 31 40 40 40 38 35 32 30 28 25 22 20 22 23 24 23 24 26 30 32 34 37 33 36 37 40 36 33 36
25 21 23 21 19 19 11 18 21 17 16 12 11 14 17 23 27 26 25 30 31 39 39 41 39 36 31 29 27 25 21 22 23 24 23 24 23 21 23 27 32 38 39 38 43 42 40 35 43
23 17 15 16 19 21 23 18 22 13 8 5 3 5 6 16 20 24 24 28 31 34 42 43 40 34 29 27 26 23 22 23 24 22 21 17 16 17 15 18 33 38 37 39 40 50 39 36 36
16 14 17 18 19 18 27 22 17 10 5 3 5 6 5 5 11 18 22 26 28 34 44 45 41 33 27 26 27 21 21 23 24 19 15 15 16 17 13 12 12 24 33 37 41 39 39 40 35
17 15 9 11 8 10 7 9 18 3 2 1 4 4 6 11 14 12 16 21 23 31 43 46 42 36 27 27 26 20 20 20 21 15 14 15 17 16 13 10 7 19 27 27 30 43 40 40 36
20 20 13 9 8 10 6 9 9 6 6 2 5 8 8 10 12 18 15 13 21 32 39 47 40 35 28 30 24 21 21 18 18 12 13 16 15 13 12 13 8 12 17 24 32 40 41 39 38
24 22 22 24 28 18 15 14 9 8 2 3 9 11 14 13 17 17 21 11 22 30 38 38 41 38 32 30 25 22 20 16 14 12 13 15 12 12 12 10 12 9 18 16 20 26 36 43 41
23 15 14 15 6 10 17 22 14 10 4 8 10 15 15 13 16 17 18 15 14 31 34 34 35 33 36 30 26 22 19 14 13 13 11 11 9 7 9 11 14 11 10 19 26 29 36 39 41
21 18 12 11 15 5 6 2 6 7 6 9 14 16 16 13 16 19 17 20 18 25 26 29 31 37 36 32 28 22 17 14 13 13 11 10 7 6 6 6 10 12 10 14 16 19 31 25 27
16 19 21 15 15 12 6 3 5 6 9 12 18 16 17 14 12 18 16 19 21 19 23 20 31 35 35 33 29 22 17 15 13 13 12 10 7 5 3 4 10 12 10 10 21 15 15 20 16

GFSSGP_700_spd_090.txt.gz
Wind_Speed
15 16 15 12 10 13 21 24 21 24 11 13 15 8 8 12 7 4 13 16 11 14 15 14 13 12 11 8 9 10 11 15 13 13 13 12 12 11 11 9 7 5 5 4 4 7 8 9 10
14 14 15 8 18 22 25 20 20 23 12 12 15 16 14 14 5 11 12 14 14 16 16 15 12 12 12 11 12 13 15 15 15 14 14 14 13 12 13 11 11 7 8 5 5 7 9 11 10
14 13 9 10 23 34 27 20 25 7 14 11 6 9 10 12 11 6 14 17 17 16 15 14 8 10 11 11 10 9 10 16 20 18 17 13 15 16 14 15 13 10 9 7 8 9 11 12 12
15 14 17 24 28 22 24 21 25 16 14 17 15 13 8 11 13 16 16 20 18 15 11 9 5 9 10 8 7 6 7 10 15 18 17 16 17 17 16 16 14 15 13 10 9 11 11 8 8
18 14 23 22 28 29 28 29 21 18 15 11 9 13 10 14 20 15 19 21 14 13 8 7 5 9 9 6 6 7 7 9 12 16 18 19 19 19 19 17 16 17 16 14 13 12 11 9 7
22 20 26 30 28 25 24 22 24 26 20 15 18 14 14 12 8 16 18 21 17 14 10 8 6 6 7 6 5 7 8 9 11 15 19 19 20 21 20 19 20 21 20 21 18 15 12 11 9
24 24 32 29 29 26 23 19 25 25 21 21 23 21 19 21 18 21 16 21 21 19 13 9 7 6 7 8 7 6 8 10 12 14 17 20 21 22 22 22 24 23 21 23 22 16 13 12 11
25 26 32 32 31 30 22 26 23 23 26 22 22 25 22 22 29 26 24 26 23 21 17 13 10 7 7 8 8 8 8 9 13 15 15 19 22 23 23 24 24 23 23 23 16 19 19 16 13
22 32 40 32 30 29 21 26 25 21 25 27 18 23 19 24 29 27 25 29 30 27 22 18 15 12 10 11 10 10 10 9 11 14 15 19 22 23 24 24 24 25 26 27 25 25 27 18 19
28 37 35 27 26 27 25 23 18 22 24 23 25 21 22 25 25 24 23 32 35 30 29 23 20 16 12 13 11 11 11 11 12 14 15 19 21 23 24 24 26 28 28 30 20 20 27 26 23
28 42 32 28 27 26 25 24 21 26 28 23 22 18 25 31 29 28 32 28 33 35 34 30 24 21 16 15 13 13 13 13 14 14 14 18 20 23 27 27 27 29 29 34 22 24 26 33 27
30 30 32 32 28 29 30 26 29 31 31 27 27 28 28 25 27 28 25 29 28 29 34 32 29 25 21 18 16 15 15 15 15 15 15 17 20 22 25 27 29 27 28 29 19 20 30 21 34
28 31 31 31 32 33 30 31 32 34 30 29 30 30 31 34 32 28 30 27 22 28 32 34 34 27 24 21 17 17 15 17 17 17 16 17 20 21 25 25 30 31 28 27 23 20 24 28 35
24 28 28 31 29 33 31 35 34 36 31 34 34 34 35 34 34 33 31 29 29 27 31 36 35 29 28 25 19 17 16 16 18 18 18 17 19 20 25 26 26 28 25 24 20 19 20 25 38
24 26 27 31 30 32 29 40 37 33 32 34 34 34 33 33 35 33 34 32 33 30 28 40 36 32 31 27 23 20 18 18 19 19 19 18 18 20 22 25 26 26 22 22 26 22 22 25 41
24 24 28 27 24 27 28 45 31 27 22 26 25 29 31 32 31 33 37 37 33 28 30 38 37 35 32 29 28 24 22 20 20 19 19 19 17 19 19 26 25 23 23 22 27 25 24 25 32
23 31 30 31 25 26 24 33 24 20 20 21 20 20 21 23 26 28 30 31 36 33 33 38 38 35 34 33 31 29 25 22 22 19 19 18 17 17 20 23 23 23 24 24 21 26 17 30 35
23 25 27 28 23 21 32 35 28 28 29 32 28 27 27 26 26 24 26 26 27 35 34 39 38 39 38 36 35 34 26 23 23 21 19 18 16 18 21 22 23 26 26 27 24 25 18 29 33
24 29 31 29 30 31 26 28 33 32 32 38 35 34 32 29 27 25 23 26 25 30 32 44 44 40 36 34 38 33 27 24 22 21 21 19 18 19 23 25 26 28 28 27 25 22 26 34 36
26 26 28 28 26 26 33 39 35 33 36 39 35 33 29 25 26 24 25 27 33 33 35 45 43 39 35 35 36 29 28 26 24 22 23 21 20 22 25 28 28 28 29 30 30 28 29 30 31
26 24 24 25 23 27 30 37 38 34 38 27 27 21 20 26 26 27 26 28 27 34 38 41 43 37 35 37 32 31 29 29 24 23 24 22 24 26 27 28 29 30 30 30 31 31 34 27 33
28 22 22 23 25 23 22 23 29 23 23 17 12 13 15 17 25 25 21 25 27 33 41 41 44 38 37 35 30 31 29 26 24 25 24 24 26 28 28 27 29 31 32 32 30 30 34 33 26
28 19 20 22 21 24 27 25 26 28 30 20 11 6 9 6 12 19 27 25 26 31 34 34 41 38 38 36 31 30 29 26 25 25 24 25 25 24 23 19 19 25 30 33 32 33 33 46 35
23 20 20 20 22 20 27 29 27 29 8 8 10 10 12 12 12 16 24 23 28 26 35 34 35 37 38 34 30 27 28 26 25 24 23 25 23 20 18 18 19 17 25 34 35 36 38 41 39
17 16 13 10 14 12 18 21 30 18 9 6 5 8 10 20 19 20 21 21 26 29 33 39 35 37 37 31 26 24 28 24 23 22 22 23 18 17 18 17 18 16 16 29 36 35 37 38 43
23 22 16 9 9 10 13 8 11 17 11 6 3 4 10 13 13 28 20 19 19 20 26 37 38 34 38 31 26 26 27 22 22 21 20 20 16 16 17 19 19 19 18 22 25 30 31 40 42
25 20 23 22 25 16 18 14 19 3 12 8 6 3 10 10 3 11 16 25 24 21 26 34 36 35 36 29 26 28 26 21 21 20 19 17 14 14 14 15 14 15 9 14 18 23 24 35 34
25 21 18 19 4 7 15 20 12 12 9 7 2 5 7 10 8 10 12 15 19 34 29 29 28 31 33 30 29 28 25 23 20 19 17 13 13 13 13 12 11 11 8 13 10 21 29 30 35
21 27 14 11 18 4 4 3 4 8 7 7 6 9 10 11 9 10 16 18 23 24 31 36 32 30 32 31 32 29 29 23 19 18 16 12 12 11 10 9 7 11 10 6 13 14 22 32 32
18 22 27 9 6 15 16 15 2 1 7 5 4 15 13 13 11 8 13 16 19 25 24 25 31 35 32 35 36 33 29 23 19 16 15 13 10 7 4 3 5 8 8 5 10 10 18 23 34

GFSSGP_700_spd_093.txt.gz
Wind_Speed
13 13 15 15 11 12 16 19 16 11 7 18 17 9 9 3 6 13 10 8 10 10 11 11 13 13 11 11 10 9 9 11 15 13 10 11 10 12 13 13 11 9 6 5 6 9 10 11 10
13 14 15 13 14 18 24 16 14 10 28 20 18 16 11 9 9 15 12 10 13 10 9 11 15 14 13 14 14 10 10 12 15 14 12 11 12 13 15 15 12 10 9 9 6 8 10 11 10
13 16 19 14 22 29 27 18 14 20 24 21 14 10 18 18 17 14 17 10 13 11 11 12 15 14 13 14 14 9 9 12 17 16 15 14 14 14 16 15 13 12 10 11 10 8 9 9 10
15 18 22 23 24 22 14 9 13 11 13 12 14 9 6 13 23 15 16 19 19 17 17 14 13 11 13 15 10 7 7 9 12 16 17 16 17 16 16 16 14 14 15 14 12 12 10 11 12
21 22 24 24 33 28 22 19 15 29 21 20 10 9 8 10 19 23 24 28 24 21 20 16 14 11 13 13 9 6 7 8 10 13 16 18 19 17 17 17 17 17 19 16 10 10 13 13 10
24 25 19 29 30 20 12 8 14 20 22 25 16 11 19 11 15 22 31 35 30 23 19 16 14 9 11 9 9 5 6 8 10 11 15 18 19 18 18 18 19 22 19 16 14 12 18 18 13
27 28 33 30 25 23 22 19 23 22 25 29 21 14 14 21 23 21 25 30 28 21 20 16 13 11 10 9 10 6 7 8 10 12 13 15 18 19 20 20 22 21 19 19 16 18 21 17 14
24 30 30 28 29 30 15 18 20 24 26 19 21 21 18 20 25 32 32 31 28 23 23 20 16 13 11 10 9 7 9 9 11 13 14 14 17 19 21 22 21 20 20 19 18 24 11 24 15
21 29 35 33 32 33 22 22 22 26 24 29 26 22 24 25 23 26 28 30 32 26 22 23 20 17 14 11 10 7 9 11 11 12 14 15 16 19 20 21 22 22 23 23 23 23 21 16 21
31 39 42 34 30 25 23 31 29 24 20 19 26 27 22 26 30 27 27 33 33 30 28 26 25 22 18 15 12 9 9 11 13 13 14 16 17 19 21 21 23 24 25 25 26 26 24 14 22
32 43 35 33 26 27 35 33 29 22 24 20 17 15 25 28 26 30 33 33 31 29 32 27 29 27 21 19 14 13 11 12 14 14 14 16 17 19 22 24 24 25 26 27 28 24 21 22 25
26 26 25 23 23 30 37 34 35 30 26 26 29 25 24 27 29 29 29 30 30 35 39 37 29 32 26 23 19 17 12 13 15 15 15 17 18 19 21 23 24 26 26 26 26 30 27 25 27
31 30 30 33 32 33 33 39 39 41 32 31 36 34 33 32 33 35 32 29 29 31 39 35 29 29 30 27 23 20 14 15 15 16 15 17 19 19 20 22 22 23 27 28 26 21 18 15 25
24 28 30 31 32 30 29 38 37 41 38 39 40 43 44 42 37 38 39 33 29 29 34 31 31 30 30 30 26 22 17 17 16 16 17 19 19 20 21 20 21 22 25 29 26 22 19 21 17
25 31 32 31 35 33 30 40 41 41 38 38 39 32 29 40 37 43 44 45 35 33 36 36 29 29 30 30 30 24 21 19 17 17 18 19 20 20 21 20 22 21 24 21 21 23 21 22 24
20 21 27 28 27 31 27 47 33 30 24 27 25 30 32 24 28 36 32 35 47 36 35 39 33 31 31 34 32 28 24 22 19 19 20 20 21 20 22 21 22 22 22 22 22 23 25 18 25
25 33 30 30 20 23 25 39 37 25 27 28 28 27 23 28 26 28 33 32 33 42 41 39 38 34 33 31 32 30 28 26 21 22 21 21 21 21 21 20 21 22 22 24 23 24 26 21 26
17 22 25 31 23 22 26 30 29 31 30 37 35 34 29 28 27 26 29 31 28 27 42 44 40 37 34 32 32 31 29 29 25 24 22 21 21 21 20 19 21 19 21 23 24 24 22 29 28
20 24 28 28 30 31 36 35 36 30 26 28 36 35 38 38 36 35 34 27 26 24 26 49 40 38 36 37 32 33 32 31 26 25 24 23 22 21 19 20 22 21 23 25 25 24 26 24 18
29 32 33 33 29 24 31 38 35 33 37 27 34 36 34 36 35 40 30 32 33 28 25 44 42 34 35 37 37 31 31 28 28 27 26 24 23 21 20 22 22 24 26 28 28 28 28 24 18
28 29 29 30 27 30 31 40 35 33 26 32 35 34 41 42 35 27 23 25 33 26 29 40 40 37 38 40 38 35 30 28 31 27 25 25 25 23 22 24 23 24 28 31 30 28 29 28 22
30 22 26 27 24 24 21 23 32 31 34 25 21 23 25 35 34 30 23 24 30 27 36 39 38 41 39 40 40 35 31 29 27 25 25 27 26 24 24 23 22 24 27 31 30 29 30 30 27
34 21 24 29 25 28 29 25 36 27 29 28 21 20 20 23 23 24 29 28 26 28 36 37 37 35 39 43 39 35 32 29 29 29 28 26 24 23 24 23 22 21 23 26 30 30 31 32 30
26 28 26 24 24 19 33 26 38 31 29 23 17 19 23 19 17 24 27 33 28 28 33 35 34 37 36 36 43 39 32 28 28 29 26 24 23 23 23 20 19 20 19 19 25 30 32 33 33
21 14 5 6 8 13 24 17 33 24 23 22 21 22 19 19 16 22 25 30 31 29 29 34 34 33 31 31 33 36 31 28 28 28 25 22 20 22 20 19 19 20 20 22 20 28 35 37 35
26 23 13 7 6 9 14 9 8 12 12 4 17 24 28 19 22 27 24 24 27 34 30 34 33 35 32 28 27 30 25 26 27 26 23 18 19 20 19 17 18 21 22 23 24 27 39 37 33
28 31 28 25 27 13 19 25 20 25 18 12 14 6 6 9 11 14 31 28 26 28 28 27 23 32 33 27 28 28 27 27 25 24 19 18 19 18 17 16 17 21 21 22 17 25 33 40 38
23 25 16 12 4 5 8 18 4 8 7 4 6 7 4 4 6 12 15 29 29 24 26 25 31 33 30 28 29 29 29 24 25 23 18 17 18 16 17 15 17 18 16 16 12 21 20 32 34
18 20 24 19 18 3 3 1 12 17 6 9 7 11 12 9 7 7 17 19 21 24 25 28 21 20 23 26 28 28 27 24 28 24 18 17 15 14 17 14 15 16 13 10 13 10 19 25 23
20 26 23 9 8 9 14 12 8 2 16 12 7 7 13 15 11 8 10 22 22 21 20 22 26 23 24 27 25 30 27 26 28 22 20 18 13 13 16 11 11 11 13 11 6 10 17 20 26

GFSSGP_700_spd_099.txt.gz
Wind_Speed
19 19 19 18 11 11 22 20 11 16 5 4 4 5 11 14 13 8 12 13 12 17 15 12 12 10 5 1 4 13 15 14 13 14 15 17 16 13 12 12 12 11 11 12 13 12 13 12 13
19 20 20 19 15 20 27 25 16 11 9 4 3 5 12 16 18 13 11 8 15 14 13 13 13 11 7 3 4 11 13 15 13 15 15 16 16 14 12 13 14 14 13 14 13 13 13 13 14
19 20 21 13 23 35 32 24 17 14 12 10 8 10 18 23 19 17 11 9 8 9 13 15 15 13 9 8 9 11 12 13 13 13 15 17 16 15 15 14 15 16 16 15 14 13 12 14 15
19 22 25 24 27 22 18 8 12 11 10 8 10 12 13 19 20 19 22 20 20 16 15 15 13 11 11 15 14 11 11 11 13 13 15 18 18 17 17 16 16 17 16 16 14 13 13 14 14
21 26 30 29 33 29 25 18 18 16 12 13 12 16 21 21 24 23 24 24 23 16 16 15 14 17 19 18 14 10 9 10 11 13 15 17 19 20 18 17 17 18 17 17 15 13 14 14 11
26 28 23 33 34 26 20 19 21 17 13 15 15 18 18 22 25 24 22 20 15 15 16 16 17 18 16 16 12 11 9 10 8 11 14 15 17 19 19 18 17 18 18 18 16 15 17 15 11
29 32 35 37 34 29 20 19 21 17 16 8 13 13 16 21 25 18 14 13 14 15 16 17 17 17 16 16 14 13 11 10 8 10 13 14 14 16 18 19 18 18 18 18 17 17 18 17 16
29 33 38 38 36 34 25 24 20 20 18 8 9 7 13 22 22 22 21 22 22 21 20 22 23 22 20 19 16 15 12 11 9 9 12 13 14 15 16 18 18 17 18 19 19 19 19 21 17
29 35 41 40 36 33 26 27 23 24 24 15 7 7 11 16 22 28 24 24 23 23 25 24 23 21 19 21 20 17 15 13 10 9 11 13 13 14 16 16 17 17 20 20 21 20 22 21 21
33 41 43 40 34 35 30 32 28 29 27 24 16 10 10 8 13 19 22 24 24 23 23 22 22 21 20 22 22 20 18 15 13 10 11 12 13 14 15 17 18 19 20 21 22 23 25 24 23
36 44 38 38 33 32 31 31 25 31 32 26 25 18 13 11 13 19 21 21 21 22 24 23 23 24 23 25 25 23 21 17 15 12 11 11 13 12 14 17 19 20 21 24 24 25 27 26 25
37 38 36 38 35 34 33 30 33 28 31 28 28 26 25 20 17 24 25 27 26 25 23 23 23 24 25 25 28 27 25 21 18 14 12 11 11 11 12 15 18 21 22 24 24 25 24 26 24
34 35 32 32 29 29 29 30 31 34 29 29 29 30 31 30 28 26 26 29 33 31 25 25 27 26 29 31 30 32 29 26 22 17 13 11 10 10 12 14 17 21 22 24 24 27 26 25 26
29 27 28 31 30 31 35 35 33 34 32 32 31 32 34 37 36 36 34 32 31 32 31 29 29 27 28 29 29 28 32 30 26 21 16 13 12 10 10 13 17 19 21 24 24 26 25 26 29
29 32 32 29 29 32 33 42 39 35 35 38 39 40 41 38 39 43 43 43 40 38 33 33 30 31 30 29 29 30 28 34 30 25 20 17 14 12 11 13 18 18 20 22 24 25 24 29 32
22 26 31 25 23 27 29 47 33 30 34 37 39 43 44 44 45 41 47 52 50 48 47 41 35 35 33 30 30 28 26 31 33 29 24 21 17 15 14 14 17 18 19 21 23 26 26 25 31
24 28 28 26 21 23 28 45 27 23 24 29 31 36 37 39 38 38 39 36 40 45 52 52 49 44 38 35 37 32 32 28 32 34 28 25 22 18 16 15 16 19 19 19 21 25 26 26 25
22 22 22 24 19 19 26 41 33 29 30 34 37 38 39 40 40 39 39 37 33 33 40 42 49 49 44 40 38 37 34 31 28 33 32 30 27 22 19 17 16 19 18 17 19 22 23 27 25
26 29 32 26 17 22 26 38 33 31 34 34 34 36 41 45 42 41 44 47 37 35 36 39 43 39 39 44 46 42 42 33 31 34 34 34 32 28 23 19 17 18 17 16 18 21 23 26 28
16 20 24 23 14 22 25 39 38 36 39 35 36 35 33 35 37 45 45 43 44 41 36 36 40 41 42 38 39 45 40 38 33 33 34 31 31 31 26 22 20 19 18 18 20 21 24 26 28
17 21 23 28 24 26 32 46 38 36 37 36 30 34 42 42 35 36 43 39 36 47 44 41 37 39 44 41 38 41 45 43 37 34 32 28 30 31 28 25 22 20 19 18 20 24 26 27 27
26 18 22 25 27 23 21 18 50 39 35 34 41 30 30 24 27 26 30 43 43 40 50 49 46 39 35 41 43 41 45 44 41 34 24 22 26 31 29 27 23 22 22 21 21 25 28 28 30
25 21 17 18 21 21 35 8 42 44 48 35 24 25 26 22 24 28 27 30 36 31 42 45 50 49 44 39 33 38 40 41 37 34 28 26 27 29 31 27 23 24 23 22 23 25 27 29 30
16 18 21 20 18 9 40 11 35 34 27 21 30 33 26 28 31 30 30 23 27 29 30 38 41 42 45 43 35 36 37 43 36 34 32 25 28 31 31 27 24 25 26 21 24 25 25 28 30
8 10 3 4 3 9 21 13 14 22 22 23 25 26 28 26 29 35 38 26 23 24 26 31 35 37 40 42 30 32 38 38 33 30 32 26 28 31 30 25 25 26 27 20 24 25 26 27 30
6 9 6 4 3 5 22 9 15 22 26 25 30 33 33 33 38 34 35 27 25 24 24 26 28 27 32 33 33 30 34 35 35 34 34 27 27 30 29 28 25 26 26 20 24 24 25 27 29
8 9 11 9 20 8 12 20 23 28 20 18 26 33 21 12 12 21 37 28 36 33 25 23 28 31 34 34 33 35 34 35 36 35 33 29 30 29 30 27 24 25 23 19 24 25 26 29 30
13 12 9 5 3 6 8 14 14 14 19 26 33 36 17 16 14 9 16 27 29 27 25 22 22 29 28 32 34 35 37 35 35 34 33 32 31 29 30 24 25 23 21 18 22 26 29 32 35
22 17 8 10 11 4 5 7 12 22 25 27 30 43 20 16 18 10 9 13 16 16 19 20 20 23 28 30 30 37 39 34 35 31 29 29 29 30 28 24 24 20 19 17 23 27 26 27 30
11 9 9 5 4 12 10 8 14 20 17 22 34 13 6 14 16 12 11 11 12 14 15 20 19 21 25 26 27 26 36 38 34 31 25 26 29 30 25 24 22 19 16 19 23 25 21 24 27

GFSSGP_700_spd_102.txt.gz
Wind_Speed
18 18 16 15 8 10 20 19 14 14 7 5 6 9 10 10 10 12 13 10 15 13 15 15 13 10 8 7 2 3 6 8 12 14 12 13 15 15 14 11 9 11 13 12 13 13 12 11 11
19 19 17 16 13 21 21 23 18 13 11 10 8 11 9 8 11 16 12 5 9 10 16 15 13 10 9 7 3 4 6 7 9 12 12 13 13 16 13 11 10 11 12 13 13 13 11 11 10
18 19 17 11 22 30 26 23 15 15 12 13 17 12 11 5 11 17 12 7 8 9 16 16 15 12 10 7 6 7 6 5 6 10 12 12 13 15 12 12 12 11 12 13 13 13 11 10 10
18 20 20 21 25 17 15 13 14 15 13 12 16 14 11 11 9 10 11 7 10 11 14 17 14 10 6 6 10 10 9 7 6 8 10 12 13 14 13 12 13 13 13 13 13 12 11 11 12
20 24 25 25 30 27 21 24 20 18 16 14 15 19 18 13 13 9 15 16 17 14 14 16 12 10 10 12 12 12 10 7 6 6 9 12 13 14 14 14 14 14 14 14 13 13 11 10 11
23 25 23 28 30 26 22 25 23 22 21 18 16 12 13 13 16 16 17 18 15 11 12 12 12 11 13 13 15 13 11 10 8 5 8 11 12 14 15 17 15 15 15 15 15 14 12 11 11
26 27 30 31 33 30 24 25 21 21 21 18 16 12 10 9 11 15 15 14 12 16 16 14 11 10 11 12 13 14 14 12 10 8 8 10 11 13 14 15 15 15 15 16 17 16 14 13 13
28 29 34 35 35 34 27 28 28 23 19 17 15 8 11 8 11 17 19 16 15 17 17 15 14 15 14 13 12 15 16 15 12 10 10 10 11 12 13 14 14 15 15 17 18 17 17 17 18
28 33 38 38 35 33 27 28 26 24 26 26 21 11 8 8 9 19 20 21 19 19 18 18 18 18 17 16 14 14 17 17 13 13 11 10 10 12 13 13 13 15 15 18 19 18 19 20 21
30 38 39 37 32 33 28 30 28 28 27 29 28 18 11 9 10 19 22 24 22 20 20 21 21 20 19 19 18 17 17 18 16 15 14 11 11 11 12 13 14 15 16 19 19 19 22 21 20
34 41 36 37 32 32 31 30 29 32 32 26 31 29 20 15 14 18 24 22 21 22 22 23 20 21 21 23 22 21 19 19 20 19 16 13 11 12 11 12 13 14 16 18 20 21 22 22 22
36 38 35 34 31 32 35 32 34 33 33 28 28 30 31 24 16 14 19 24 25 21 23 23 22 25 25 25 24 25 23 21 23 22 18 16 13 10 11 11 12 13 15 18 20 21 22 23 22
31 34 33 33 33 33 33 33 32 35 31 31 30 30 31 31 28 23 18 22 27 36 28 28 28 25 25 27 26 25 25 26 26 26 22 18 15 11 11 10 10 12 15 19 21 22 23 23 23
28 25 25 27 28 30 33 34 31 31 25 30 31 30 30 32 31 32 30 27 28 30 33 34 34 31 29 28 27 25 23 24 31 30 26 21 18 15 11 10 9 11 13 17 20 22 24 24 26
29 31 32 31 28 30 28 35 32 29 28 30 32 34 35 34 36 37 36 35 33 35 36 36 36 36 35 34 31 29 26 25 30 33 30 25 21 19 13 12 10 11 13 16 18 21 24 26 26
23 23 26 21 21 20 21 32 28 19 21 24 28 31 35 37 38 38 39 41 39 40 42 42 41 41 39 39 36 32 29 26 27 34 34 30 25 22 18 15 13 13 13 15 18 19 24 26 26
22 25 26 27 21 24 25 30 20 13 21 26 26 28 31 35 37 37 37 38 39 39 37 37 40 46 46 42 40 38 35 31 26 29 37 33 29 25 22 19 16 15 14 15 16 17 23 26 29
17 18 18 21 21 23 29 35 29 24 25 29 31 31 34 37 37 37 37 37 37 37 35 35 35 36 42 47 47 43 40 36 33 32 34 37 33 29 26 23 20 17 15 15 15 15 20 23 26
23 24 26 24 14 21 28 33 28 24 25 26 29 31 30 28 30 32 36 40 41 42 40 38 37 35 36 39 49 48 47 43 38 32 35 34 36 34 30 27 24 21 17 14 16 17 20 22 23
14 17 21 18 7 22 26 37 30 25 25 24 26 24 27 29 31 33 34 36 37 44 43 41 40 38 34 37 38 47 41 39 39 34 36 36 33 36 34 31 27 24 20 17 16 19 20 21 23
18 20 16 18 17 20 26 42 30 22 23 16 24 31 25 24 26 27 26 27 29 36 46 41 39 42 38 32 35 42 40 39 42 40 37 37 37 38 33 32 30 27 24 21 17 20 23 22 22
22 18 17 15 15 12 13 15 32 13 11 31 20 16 18 23 26 26 23 20 23 23 34 41 33 38 43 36 36 41 41 40 39 41 36 37 39 39 36 31 30 30 26 24 20 21 25 24 25
15 12 15 15 17 23 16 8 31 25 29 20 20 21 21 27 28 23 24 26 25 25 28 37 44 39 42 41 37 36 40 41 37 34 40 39 38 34 28 26 31 31 28 27 24 22 25 26 26
16 14 11 14 15 8 17 15 33 23 21 25 19 25 32 30 31 35 37 32 27 30 29 34 32 35 41 46 43 40 38 36 37 39 37 36 36 35 28 27 32 32 29 28 26 24 25 27 24
8 6 2 3 3 6 1 9 25 16 21 24 29 28 27 29 36 40 43 38 38 35 31 24 21 27 35 43 48 46 47 40 32 36 35 35 34 37 30 30 33 32 29 29 27 26 26 27 27
3 3 2 4 3 4 21 8 10 16 22 31 27 28 28 31 38 39 40 35 33 28 28 24 28 20 28 30 30 35 39 37 38 37 35 33 36 35 32 28 32 30 31 30 28 26 25 27 28
4 4 4 7 14 7 10 16 23 24 24 23 26 25 31 31 43 28 23 20 26 26 32 24 21 20 24 24 31 34 35 29 33 39 34 37 37 35 34 31 33 32 30 30 28 26 23 26 26
4 7 4 4 3 5 8 8 11 8 13 17 25 32 35 37 35 20 22 16 16 21 22 22 22 21 20 26 26 29 30 31 32 35 37 41 39 36 33 33 33 32 29 29 26 25 23 26 26
15 8 8 9 9 3 3 4 6 16 20 24 25 25 29 20 12 12 24 15 10 11 13 15 16 19 23 31 26 29 33 34 36 35 37 40 40 35 35 35 32 29 29 27 25 24 23 25 23
8 2 3 4 3 6 5 10 13 12 28 24 22 20 21 25 22 19 24 15 9 8 9 13 16 16 16 18 22 23 29 32 31 37 38 37 40 35 33 34 31 29 28 26 24 23 22 23 22

GFSSGP_700_spd_105.txt.gz
Wind_Speed
15 16 15 11 8 11 15 11 10 10 7 3 7 8 9 9 10 7 8 9 7 14 13 15 14 11 8 5 3 1 1 1 3 5 8 9 10 11 11 11 7 8 9 11 10 9 9 9 9
15 15 15 13 12 16 16 17 11 11 10 11 13 11 11 7 9 8 7 3 7 10 13 17 15 13 9 6 3 0 1 2 1 2 5 8 10 11 11 10 7 6 9 10 9 10 9 10 10
16 15 14 10 19 25 21 17 11 7 11 9 14 13 11 10 7 4 1 2 6 6 12 17 15 13 11 6 2 4 3 4 3 3 5 7 9 10 12 9 7 6 7 8 9 10 9 9 9
17 17 16 18 25 21 15 16 18 11 11 13 13 11 11 11 11 5 7 2 7 7 9 14 14 13 9 5 5 9 11 9 5 5 6 7 9 10 11 10 8 8 7 8 8 10 8 7 8
20 21 20 24 29 27 22 23 23 21 17 16 18 15 12 14 14 11 11 9 10 10 11 15 16 14 9 9 11 10 10 9 9 7 7 8 9 10 11 11 10 9 10 8 9 10 8 7 8
21 23 19 25 30 23 21 22 23 21 20 19 20 17 14 18 20 17 13 14 13 14 14 15 17 14 11 9 9 10 9 11 12 9 8 8 9 10 11 12 11 10 11 11 11 11 10 8 8
24 24 26 28 32 30 23 24 26 23 20 19 18 18 17 17 18 22 18 17 18 17 18 19 19 15 12 9 8 8 10 11 13 12 9 8 10 10 11 11 11 12 12 12 12 12 12 10 11
26 26 27 31 32 33 24 26 27 27 25 20 16 12 16 16 18 21 18 21 22 21 22 22 20 17 14 10 9 8 10 12 14 14 13 10 11 11 10 10 10 12 13 14 14 13 14 13 13
26 30 31 34 30 30 24 24 24 26 23 24 24 22 16 19 16 22 21 25 24 26 27 26 22 18 16 13 12 10 10 14 15 14 15 12 12 11 10 9 10 12 14 14 15 15 16 16 16
28 35 36 34 30 30 26 26 27 28 27 26 26 23 23 18 19 20 26 28 26 29 27 25 23 22 17 17 16 15 13 15 15 16 15 15 14 12 10 10 10 12 14 16 16 17 17 19 19
33 39 34 34 30 30 28 29 28 31 32 25 26 27 26 24 22 19 28 30 29 30 26 27 25 24 20 22 22 19 17 17 19 18 17 17 16 14 11 10 11 11 13 16 17 18 19 18 20
34 36 34 34 29 30 31 29 30 33 31 28 26 26 26 29 26 24 23 30 30 29 26 28 30 27 23 27 26 22 23 20 20 20 20 19 17 15 13 11 11 12 12 15 18 19 19 20 20
29 28 29 29 30 30 30 31 29 32 24 26 27 26 27 26 31 29 26 29 32 33 30 30 32 30 25 27 27 26 25 24 24 23 23 22 20 17 16 13 11 11 12 15 18 19 20 21 21
28 28 27 25 23 24 25 25 25 25 22 24 25 26 26 29 27 29 31 29 32 32 38 35 36 37 41 31 30 30 27 25 26 25 26 26 25 19 18 16 13 10 12 14 17 19 21 23 23
28 31 31 31 27 27 23 29 29 21 20 23 25 27 28 28 29 30 32 34 35 34 34 36 38 36 39 36 37 33 29 27 28 27 26 30 27 24 20 19 16 12 12 14 17 18 21 24 25
22 24 22 13 15 16 18 21 20 19 16 20 24 24 24 26 28 30 32 37 38 39 39 37 36 39 37 40 41 40 36 34 32 28 27 30 32 29 25 21 20 16 15 15 16 17 20 22 25
21 19 20 23 21 19 19 15 14 12 15 19 22 26 27 27 27 30 30 32 35 39 40 41 39 40 43 44 42 44 44 40 37 32 28 28 35 35 30 26 22 20 18 16 16 17 18 22 24
14 16 16 17 16 22 28 32 27 23 22 23 24 25 26 29 31 32 32 33 33 36 38 39 36 38 39 43 49 50 46 45 41 37 33 31 33 39 35 31 27 24 21 18 17 17 17 19 21
20 23 25 26 19 24 24 26 24 20 22 23 22 23 25 22 20 26 30 32 34 34 37 41 41 40 37 39 38 44 52 52 48 45 38 34 32 37 38 35 32 27 25 20 20 19 18 19 20
16 17 21 20 12 19 23 31 28 23 20 18 19 20 20 22 22 23 27 32 35 35 35 38 45 43 42 40 39 37 39 48 53 49 45 39 35 35 39 39 37 32 28 25 23 21 19 20 20
22 23 21 20 17 20 24 26 15 3 13 17 12 14 13 16 17 17 19 22 27 33 34 34 37 45 44 42 40 41 37 42 49 51 47 42 36 34 38 41 41 37 32 29 26 24 22 22 20
20 18 15 14 13 9 12 10 12 7 8 12 11 10 12 14 16 21 19 18 18 23 28 29 30 37 45 43 43 44 41 40 40 49 43 38 41 38 40 40 41 39 36 33 29 26 25 24 23
15 7 8 10 14 16 13 11 10 10 11 12 12 10 18 24 26 26 26 25 27 29 27 29 28 34 38 43 38 43 43 37 35 39 40 41 44 41 39 39 39 40 37 33 32 29 28 27 26
9 8 10 13 14 8 17 15 11 4 4 9 14 20 25 21 23 26 31 36 34 39 35 32 31 28 32 45 46 39 43 39 34 39 39 38 31 43 42 37 39 40 35 34 34 31 29 29 29
13 8 3 4 4 4 5 13 20 22 18 14 18 22 21 23 26 32 38 42 44 35 36 39 37 31 29 36 43 44 45 43 40 34 37 39 38 37 43 39 35 31 36 33 35 33 31 30 31
12 12 6 5 4 1 5 9 5 11 14 17 20 23 24 24 30 37 40 39 36 35 28 29 30 32 29 24 38 40 47 47 44 40 32 33 38 35 37 39 32 29 32 34 34 33 33 32 31
9 6 8 2 7 6 10 12 17 21 19 20 19 24 25 29 35 32 26 24 27 26 24 23 26 27 27 22 27 33 43 45 48 44 40 34 39 39 41 39 37 35 34 32 34 33 33 32 31
10 9 4 5 4 6 6 9 9 5 11 18 20 26 28 25 23 26 27 24 24 24 16 14 19 25 25 23 28 30 35 38 37 38 38 39 41 43 41 39 37 39 34 33 35 34 32 31 30
13 12 11 10 7 4 5 6 9 7 8 15 22 30 31 28 29 26 28 22 22 22 16 12 13 17 22 21 22 28 29 32 31 34 35 35 38 39 40 39 37 36 34 35 34 33 32 31 28
11 9 13 7 4 6 6 12 15 18 22 22 28 31 30 31 29 24 28 22 27 20 16 12 11 11 19 20 26 27 22 25 32 33 34 35 39 39 42 39 38 38 32 36 35 33 30 29 27

GFSSGP_700_spd_108.txt.gz
Wind_Speed
13 12 10 9 7 8 12 7 7 4 3 5 7 6 6 7 7 6 5 3 4 10 14 17 16 13 10 6 4 3 4 3 2 1 1 2 4 5 7 9 8 4 5 7 7 6 6 8 8
15 11 10 10 10 15 12 11 7 9 14 12 8 9 6 4 8 10 6 3 2 10 12 16 17 14 10 7 5 1 2 1 2 1 1 3 4 5 6 8 6 4 4 6 7 7 7 8 9
17 13 8 6 13 18 12 11 8 4 9 14 10 11 11 11 14 12 8 6 7 8 10 16 18 14 11 8 6 2 3 4 4 3 3 4 5 5 7 8 5 3 3 6 7 7 7 8 8
17 16 12 15 22 17 13 9 12 10 8 12 14 8 14 17 17 14 12 9 13 10 9 16 18 16 12 9 6 6 10 7 5 5 4 5 6 6 8 8 6 4 3 6 6 8 7 7 7
17 17 12 19 25 20 21 22 23 19 19 17 16 11 15 18 18 16 15 13 15 14 11 15 19 17 13 11 9 8 7 7 6 7 6 6 6 7 9 9 7 6 4 5 7 8 7 6 7
19 19 13 21 23 19 19 21 21 21 17 17 19 19 17 22 22 17 16 17 15 17 14 16 22 20 16 13 11 9 9 7 7 9 9 8 8 8 9 10 9 9 8 7 8 9 9 7 8
17 14 19 23 27 23 18 22 23 20 14 10 15 16 12 20 22 22 20 21 18 18 20 19 22 23 19 16 14 10 9 9 9 10 11 10 9 9 10 10 10 10 10 10 10 10 11 10 11
20 16 17 21 25 24 18 20 22 21 13 22 20 10 12 22 20 24 23 27 24 22 23 24 25 25 21 19 16 13 10 11 11 12 12 11 10 10 10 10 10 11 11 11 11 12 13 13 14
23 18 21 24 20 17 19 16 18 25 22 21 22 23 24 20 21 22 25 28 28 28 26 27 27 28 24 21 16 15 12 12 14 14 14 13 12 10 10 10 11 11 12 12 13 14 15 16 16
26 21 22 23 22 23 24 23 19 22 19 23 24 22 23 20 22 23 24 29 30 32 30 30 30 31 27 23 20 18 15 12 14 16 15 14 13 12 12 12 12 13 14 13 14 15 16 19 20
23 29 21 27 27 27 26 28 27 28 26 26 24 25 26 26 24 25 24 27 31 34 33 33 33 33 27 24 21 22 18 15 14 17 18 16 16 15 14 14 14 14 13 13 14 16 17 18 19
27 27 29 26 26 27 28 29 31 30 31 26 27 25 27 25 22 27 28 25 32 35 35 36 36 36 31 32 25 27 25 20 19 19 19 20 18 17 16 16 15 15 14 13 14 16 18 19 20
30 27 27 27 28 27 28 30 29 31 26 26 27 26 25 26 23 24 31 28 29 35 37 36 38 38 38 37 32 29 27 24 23 23 23 21 20 19 18 17 18 17 15 14 15 15 18 20 22
17 25 27 26 28 27 27 26 22 27 21 24 24 25 24 25 25 24 27 33 31 32 37 41 38 37 39 37 33 29 27 26 26 28 28 25 24 23 21 20 19 19 17 16 15 15 17 19 22
31 30 24 25 27 26 22 27 29 24 22 25 23 23 23 24 24 25 27 33 38 35 39 40 42 41 39 37 37 34 33 31 31 31 31 30 28 28 25 23 22 20 20 18 15 14 17 21 23
22 20 20 13 9 12 14 22 16 12 17 18 17 16 19 19 23 25 28 29 33 39 39 40 40 40 45 40 40 40 39 38 34 32 35 33 30 30 31 28 25 23 22 20 17 15 17 20 23
19 24 20 16 13 14 17 17 11 12 14 16 19 18 16 16 22 29 27 28 28 32 39 42 42 43 42 44 44 42 44 47 42 40 38 36 34 32 33 32 29 27 25 24 20 17 17 20 20
20 24 20 19 13 12 18 25 24 24 24 24 21 19 16 21 26 26 27 28 29 30 30 34 42 45 49 49 48 49 48 47 50 47 44 42 39 34 33 35 35 32 29 26 23 20 18 20 19
24 21 23 22 21 21 22 23 20 19 20 20 18 16 18 23 24 23 23 24 27 30 31 32 34 39 42 46 49 51 53 52 50 52 49 46 45 40 38 37 39 37 33 30 26 23 22 21 20
23 23 24 20 16 17 19 23 22 22 22 19 16 15 20 17 19 23 25 26 27 29 31 33 35 36 43 44 47 46 46 50 56 58 55 54 50 44 40 39 39 41 39 35 31 27 25 23 22
26 25 21 20 17 21 22 27 17 9 9 12 13 14 14 14 15 16 17 21 24 26 26 29 32 35 38 43 49 49 49 47 51 53 59 60 55 48 45 41 40 41 42 38 34 31 29 27 24
25 21 22 20 16 14 6 8 7 11 10 10 6 10 12 11 13 16 19 23 22 25 27 28 30 33 36 41 45 53 54 54 49 45 44 51 60 57 50 47 43 41 42 43 39 36 33 31 28
20 18 16 15 16 17 19 13 13 12 13 9 8 10 13 15 20 20 21 22 24 27 27 32 35 36 38 39 43 48 56 56 51 46 44 47 51 56 52 50 46 44 42 43 43 40 37 35 32
14 11 12 13 14 16 21 18 14 15 12 9 15 15 16 21 20 20 23 26 29 32 35 35 39 41 43 45 45 43 49 57 53 49 46 44 48 51 49 50 48 44 43 41 40 40 38 37 34
15 12 11 11 9 11 4 13 16 10 12 10 16 18 22 22 20 25 27 33 36 38 40 41 39 40 46 50 47 44 43 52 51 49 46 44 44 42 46 49 49 48 43 40 41 40 37 39 36
19 19 16 11 11 5 6 9 7 14 17 15 15 17 19 18 21 26 31 30 32 34 36 36 38 37 39 49 50 46 44 45 55 45 49 45 45 42 42 37 43 47 45 44 41 37 35 36 37
12 16 13 9 13 12 17 12 9 8 4 9 14 12 14 18 18 23 24 31 32 34 33 34 32 28 30 38 44 46 39 41 49 49 49 49 40 44 45 44 40 44 45 43 40 40 42 43 39
10 10 5 8 5 12 11 15 11 10 9 10 10 13 20 27 30 30 36 29 29 31 26 29 27 21 23 29 29 34 33 34 41 49 51 51 44 40 46 48 46 45 45 41 40 34 34 40 39
12 11 10 9 11 7 10 8 4 11 10 13 17 25 30 31 31 31 32 29 31 29 28 28 26 23 18 24 23 26 29 24 30 39 50 49 47 45 41 45 49 45 47 47 41 34 35 38 35
17 14 15 16 12 14 15 19 7 12 16 23 27 26 30 32 30 30 33 29 33 31 31 27 25 22 10 21 22 21 23 31 26 33 36 42 47 50 46 42 45 44 45 45 42 32 35 35 34

GFSSGP_700_spd_114.txt.gz
Wind_Speed
7 6 7 6 5 9 17 20 9 2 7 10 10 11 8 6 3 4 3 15 12 13 14 18 18 14 14 10 7 6 5 3 2 2 2 3 3 3 2 3 4 3 4 6 7 6 5 4 5
7 6 4 1 12 15 21 7 2 2 4 10 12 10 5 8 15 11 14 13 15 16 16 18 18 16 15 12 10 7 4 2 2 3 2 3 4 4 3 1 2 3 3 5 6 5 6 6 5
6 4 2 6 14 20 20 7 3 5 10 10 5 9 7 11 17 25 26 17 15 17 18 18 19 18 17 15 12 10 6 3 3 5 3 2 3 4 4 2 1 1 2 4 5 6 6 6 6
6 4 7 12 18 19 22 18 8 5 7 12 5 6 10 20 21 26 20 12 15 15 18 19 21 21 20 18 14 12 6 5 6 6 5 4 3 4 4 4 2 2 1 3 5 6 6 7 7
5 4 15 18 21 19 17 20 9 6 10 10 9 11 12 20 24 22 20 15 18 19 18 19 22 23 22 19 17 15 8 6 7 7 8 6 5 5 6 6 5 4 3 4 6 6 7 9 9
8 5 14 20 19 18 17 10 14 13 13 13 14 15 13 16 22 30 18 17 18 22 21 20 23 24 24 23 20 17 11 9 9 10 9 9 8 6 6 7 7 7 7 7 7 8 9 10 10
9 10 21 23 25 23 19 14 12 11 12 12 13 18 12 17 22 29 17 18 20 22 24 24 24 25 27 25 22 19 14 13 12 11 11 11 11 9 8 8 9 9 9 10 10 10 11 12 13
12 13 21 24 26 26 19 24 23 11 11 16 17 13 8 18 23 26 21 19 22 25 25 25 22 24 27 27 25 23 18 17 15 14 13 13 13 12 10 10 10 10 10 11 12 12 14 14 15
12 16 19 23 21 22 21 15 20 14 18 18 11 17 22 22 24 25 21 17 20 27 29 29 29 28 27 29 28 27 22 19 17 16 15 15 14 13 13 11 10 11 12 13 13 14 15 16 16
19 18 23 19 20 23 25 21 17 17 17 19 17 16 22 20 22 26 24 22 11 22 31 34 33 31 29 30 30 29 25 21 20 18 17 16 15 15 14 14 12 13 13 13 14 15 16 17 17
20 29 21 23 24 24 24 26 25 26 26 22 23 23 22 24 23 23 21 19 20 12 24 35 36 34 33 32 32 33 29 24 23 21 18 17 18 17 18 16 15 14 14 14 15 15 16 17 17
26 28 28 27 26 26 28 27 28 27 28 24 26 28 27 30 31 30 21 17 15 19 24 22 34 36 39 37 35 35 34 28 24 24 22 20 20 20 20 17 15 16 16 16 16 16 16 17 18
24 26 29 30 28 31 28 30 33 31 29 28 27 29 32 31 32 27 21 20 21 21 22 28 25 38 36 39 37 36 37 34 28 28 26 24 23 22 21 19 19 17 18 17 18 17 17 16 16
26 29 29 25 27 29 29 31 27 29 27 27 26 28 30 29 28 22 20 17 17 19 21 26 30 21 35 36 37 37 38 38 34 32 31 29 26 25 24 22 21 20 20 18 18 19 19 18 16
19 26 29 31 32 34 29 39 35 28 20 27 28 27 22 24 23 21 14 14 23 27 27 32 29 32 30 27 34 36 36 39 40 36 30 31 31 29 29 26 24 23 23 22 20 20 20 20 18
30 30 35 28 25 28 27 46 24 20 15 18 20 23 23 22 20 12 12 25 25 33 38 42 41 34 32 36 35 31 34 37 40 40 37 33 33 33 32 30 28 28 27 26 24 22 22 21 20
22 34 31 38 26 27 27 32 20 11 16 16 15 15 15 16 13 13 25 28 34 37 39 39 36 34 34 34 35 35 33 34 37 40 40 39 37 39 38 35 33 32 32 32 29 26 25 24 22
28 30 33 38 29 23 30 31 25 25 23 22 19 16 18 17 15 26 28 34 36 33 29 32 32 35 38 37 36 37 36 36 34 37 40 41 42 41 41 41 38 37 35 32 34 32 26 27 25
34 35 38 39 35 36 35 29 28 24 25 26 26 26 23 22 21 27 31 30 31 30 28 27 30 34 36 37 37 41 42 40 40 42 39 40 44 45 43 42 45 40 40 36 35 35 33 30 29
36 40 42 40 36 34 38 39 38 34 33 32 28 26 22 19 28 26 32 37 34 27 24 27 30 31 33 37 39 39 39 42 46 48 48 46 45 47 51 47 49 47 45 42 40 39 37 36 33
37 38 40 43 39 38 37 38 34 32 34 35 29 24 21 26 26 22 26 32 23 22 22 25 28 29 31 34 36 40 42 44 45 45 46 47 52 53 56 51 52 51 50 49 46 43 40 38 39
36 30 34 37 33 30 32 25 35 32 34 26 38 28 28 28 23 20 25 22 17 24 24 25 27 29 30 31 33 36 39 43 46 47 51 52 46 50 53 55 56 55 52 51 49 47 45 42 42
36 34 30 28 24 28 34 30 28 32 34 23 24 28 28 33 27 23 18 17 22 27 28 28 28 30 32 34 36 38 39 40 42 47 51 52 55 57 53 57 53 59 60 56 51 52 50 48 44
23 22 28 29 28 22 40 31 34 36 33 28 29 25 23 26 22 14 16 23 28 26 27 30 31 33 35 37 40 42 45 46 47 46 47 51 54 57 60 53 55 53 54 54 54 52 51 51 48
18 18 10 5 10 15 28 27 34 6 3 34 33 17 17 19 13 14 20 23 23 26 28 29 31 32 35 38 40 43 47 49 52 53 53 51 51 55 58 57 52 55 52 52 52 48 50 51 53
14 14 11 6 7 15 18 13 8 7 18 28 21 13 12 12 11 18 22 23 25 27 28 30 33 36 36 39 42 44 45 48 52 54 55 56 54 55 57 59 60 54 52 53 52 47 46 53 54
17 24 22 17 22 18 19 11 8 14 14 12 11 6 6 7 12 21 25 31 32 34 36 41 44 44 41 41 42 44 45 48 50 51 52 54 57 60 59 57 58 58 49 54 57 52 48 54 53
15 6 6 8 4 10 17 19 5 6 5 3 3 6 12 15 16 22 29 35 39 42 44 41 41 40 39 40 42 42 44 47 47 47 46 49 54 55 57 53 50 50 53 55 57 52 49 51 52
17 21 14 9 8 4 6 6 10 6 9 5 9 12 18 21 25 26 30 34 33 34 35 35 37 38 39 41 38 41 41 42 42 37 36 35 36 42 49 47 48 48 50 51 52 49 48 49 49
18 18 19 22 15 17 18 18 11 8 6 8 13 18 23 24 26 28 36 35 33 33 31 34 35 37 35 36 36 34 37 29 29 34 29 29 28 30 40 44 46 47 47 47 45 47 47 46 46

GFSSGP_700_spd_117.txt.gz
Wind_Speed
3 4 6 4 4 7 12 6 15 10 7 2 2 7 7 5 7 6 7 13 13 12 9 13 20 19 18 14 9 9 9 5 1 1 2 3 5 6 5 2 4 7 10 11 11 10 9 8 6
4 5 9 7 5 9 12 16 7 3 2 5 6 7 11 9 12 13 14 18 10 14 12 15 23 21 20 17 14 12 10 6 2 2 4 4 4 5 5 3 3 4 7 10 11 11 10 9 8
5 6 7 2 7 14 10 9 12 10 6 6 9 11 6 14 19 19 21 19 19 15 15 17 23 23 21 20 17 14 12 8 5 5 6 5 4 4 5 5 3 3 4 6 8 9 10 9 8
5 7 5 11 13 14 19 19 19 15 11 13 12 5 6 12 20 25 24 21 19 19 17 21 23 26 24 23 20 17 15 10 7 8 9 7 6 6 6 7 6 5 5 6 7 8 8 8 7
9 8 9 14 14 7 5 24 13 12 9 5 7 9 8 17 19 21 23 18 19 19 17 18 22 26 25 24 22 20 17 12 9 11 11 10 8 7 7 8 8 7 7 6 8 8 9 9 9
12 6 10 16 14 18 18 10 10 7 8 8 6 11 11 20 21 24 25 20 18 19 21 20 22 26 28 26 25 23 20 15 12 13 12 12 11 9 8 9 9 9 8 8 8 9 9 10 10
8 10 15 18 20 18 14 20 16 14 9 8 8 7 16 16 14 24 28 20 20 21 23 22 21 27 29 29 27 25 23 19 15 14 14 13 13 12 10 9 9 9 9 9 9 9 10 10 11
9 12 19 22 21 24 11 19 14 14 11 13 13 15 17 22 21 22 25 26 19 23 25 26 23 25 29 30 29 27 26 22 18 17 16 16 15 15 13 11 9 9 9 10 10 11 11 12 12
12 17 25 23 19 16 15 24 20 8 9 14 15 17 20 23 25 24 28 26 24 21 26 28 26 25 28 30 31 30 29 27 22 20 18 17 16 15 15 13 11 10 10 10 10 11 12 12 13
16 24 27 21 15 20 23 25 24 28 20 14 14 13 19 27 32 34 33 31 29 26 28 29 32 30 28 30 33 33 32 30 25 22 20 18 17 16 16 16 14 12 11 11 10 11 13 12 13
15 27 21 23 21 24 28 31 29 30 30 31 28 25 25 27 25 29 33 32 22 22 23 28 34 37 33 30 32 34 34 32 28 24 22 21 19 19 18 18 16 14 13 12 11 12 12 14 14
20 22 25 29 27 29 31 32 39 38 37 35 31 28 30 29 34 38 37 29 22 25 27 28 27 33 38 34 34 34 36 34 32 27 25 23 21 20 20 18 18 17 15 14 14 12 14 14 15
21 23 26 29 29 32 35 37 41 41 36 34 36 34 33 37 39 38 37 26 21 26 26 27 30 28 29 37 39 40 35 36 35 32 28 26 24 23 21 21 19 19 18 17 16 16 16 16 15
26 26 31 31 33 32 31 39 38 38 34 33 32 31 27 30 31 32 27 22 24 29 28 31 34 36 32 28 34 36 38 38 38 37 33 29 28 27 26 24 22 21 20 20 19 17 17 18 18
16 27 29 26 27 30 26 44 38 32 26 21 19 21 28 29 27 22 19 20 27 31 31 33 33 31 34 34 24 41 39 32 36 35 36 33 30 28 29 28 26 24 24 24 21 20 20 20 19
27 31 41 34 25 25 18 49 39 33 22 27 28 27 23 24 24 22 16 29 34 32 36 38 33 33 34 34 39 39 25 32 36 35 38 40 34 31 31 32 31 29 29 28 26 23 22 21 21
15 27 32 38 18 25 27 43 41 31 20 22 24 19 17 18 21 20 22 30 36 37 38 41 39 38 35 32 32 30 32 33 37 37 39 40 38 35 35 35 34 32 33 32 29 27 26 24 23
26 22 27 36 30 31 40 39 34 25 32 28 23 26 23 18 22 27 29 33 36 35 38 38 37 38 38 36 34 32 33 33 35 34 35 36 37 38 39 39 37 35 37 36 33 31 29 27 26
23 29 36 38 35 29 33 40 38 35 28 26 24 24 25 23 26 33 36 39 39 34 36 37 34 32 34 35 32 32 35 37 37 38 38 37 38 37 41 44 43 40 41 39 38 34 32 30 29
26 31 37 38 35 34 37 40 39 37 37 35 32 32 34 35 38 34 37 40 36 36 36 34 37 32 29 30 32 33 33 35 38 41 42 42 42 44 43 44 46 44 48 44 41 39 35 33 33
33 35 36 40 32 27 30 35 35 36 40 38 37 39 41 41 47 40 46 43 37 35 32 34 32 27 27 27 30 33 34 35 37 39 42 44 45 47 46 47 49 48 51 50 44 40 38 37 36
37 31 32 28 26 18 26 16 37 37 35 39 35 40 31 33 37 41 46 39 28 23 22 28 26 25 27 28 30 32 34 36 37 39 41 43 45 48 50 52 53 49 51 49 52 47 43 42 40
38 27 23 26 28 24 37 11 37 28 28 30 15 17 33 39 33 39 36 29 21 18 23 25 27 28 29 30 32 33 35 37 38 39 42 43 44 47 49 51 53 55 55 57 52 46 42 46 44
30 22 20 22 18 10 37 14 42 33 24 13 17 22 30 30 36 28 22 18 23 23 23 29 27 28 31 33 35 37 39 39 41 41 43 43 44 47 50 53 55 55 54 51 52 54 52 49 48
22 18 6 5 3 11 17 17 27 20 14 14 24 35 20 17 13 11 14 15 18 23 27 27 30 31 32 33 35 37 39 40 42 43 44 46 47 48 50 52 56 58 57 55 49 50 48 49 47
17 14 8 4 2 6 19 8 8 12 18 16 19 19 22 20 15 8 10 18 21 21 26 32 34 37 38 40 44 45 44 43 42 44 47 48 49 49 51 54 56 57 61 60 54 47 46 45 42
14 19 15 13 19 11 12 20 11 24 4 11 6 6 3 9 8 9 17 16 21 26 32 36 39 40 42 45 43 41 40 41 43 44 44 46 49 51 51 52 58 60 60 61 59 54 48 48 44
18 5 5 6 3 4 6 14 2 6 1 11 13 15 10 8 10 12 17 26 30 33 38 40 39 40 40 40 39 37 37 39 42 44 47 48 49 48 48 48 53 59 63 63 58 52 55 59 48
16 17 11 6 6 3 3 3 7 9 8 6 6 7 11 14 16 21 25 27 32 44 44 42 41 41 41 40 38 37 37 39 39 42 44 46 44 41 36 39 46 57 61 64 58 52 51 52 50
14 16 21 19 10 10 5 11 14 7 3 8 11 13 17 15 19 28 31 38 46 43 39 38 39 39 41 40 38 38 37 34 33 30 32 31 30 32 33 30 31 40 53 60 55 48 51 50 52

GFSSGP_700_spd_120.txt.gz
Wind_Speed
7 6 5 7 6 6 7 1 13 4 10 7 3 4 7 9 12 11 10 11 12 11 12 13 19 21 20 18 14 11 9 8 5 3 5 6 7 6 6 4 4 7 10 12 12 11 9 7 6
7 7 7 8 8 6 3 10 5 1 8 6 6 6 10 13 17 20 17 10 9 12 14 14 18 24 24 23 19 16 14 12 8 6 6 7 8 7 6 5 5 6 8 11 12 11 9 8 7
8 7 6 6 12 10 5 6 12 9 5 7 11 14 16 11 15 18 17 14 13 12 12 16 18 26 26 25 22 20 17 15 11 8 9 9 9 9 8 7 6 7 8 9 11 12 11 11 10
7 7 8 12 14 10 11 16 23 13 14 13 11 9 10 14 15 16 17 17 19 19 21 21 22 26 28 27 26 23 20 18 13 10 11 11 11 10 10 9 8 7 7 9 12 13 13 12 11
8 9 12 14 15 11 6 8 12 5 7 7 6 8 10 11 13 18 20 20 19 18 22 19 22 26 31 29 27 25 22 20 16 13 13 14 12 11 11 11 10 9 9 9 10 11 11 11 11
8 9 12 16 15 11 5 12 9 8 9 11 8 9 13 15 17 21 25 23 19 17 19 21 19 22 29 31 29 27 25 23 18 16 15 16 15 14 12 11 11 10 10 10 9 10 11 11 11
9 12 16 15 15 13 10 6 11 7 8 9 8 12 19 17 15 21 25 26 22 18 18 22 23 21 26 32 31 29 28 26 22 19 17 17 17 17 14 12 12 11 12 12 11 11 11 10 11
13 15 21 19 16 17 13 5 8 7 6 8 10 11 16 18 15 17 25 32 27 20 20 22 26 23 24 32 34 33 31 30 26 22 19 18 18 18 17 15 12 12 12 12 12 12 12 11 12
15 20 24 20 18 19 14 15 11 12 11 12 14 15 15 19 24 28 28 32 33 30 24 25 26 29 25 27 34 35 34 32 30 26 22 20 19 18 18 17 15 13 13 11 11 11 12 11 12
16 24 22 18 18 21 22 21 22 21 20 19 17 16 17 21 27 33 34 34 36 37 32 26 25 29 33 27 29 36 36 34 33 30 26 22 20 19 19 19 19 17 15 13 11 11 12 12 12
19 27 19 21 18 18 24 26 27 30 30 25 27 25 23 24 28 32 35 36 37 33 33 30 30 34 34 32 28 31 37 37 35 33 29 25 23 22 22 21 21 19 17 15 13 12 12 13 13
23 23 21 21 20 23 25 28 31 33 35 36 35 35 36 32 32 34 39 37 35 36 36 37 30 30 28 29 30 30 35 38 37 35 32 29 27 26 24 23 22 22 20 18 17 15 15 15 14
25 25 24 26 27 29 31 33 33 33 25 30 31 35 35 34 37 38 38 39 40 41 42 40 37 29 28 28 27 30 33 36 38 37 35 34 32 29 28 26 25 24 23 23 20 19 18 18 16
26 27 28 27 28 30 33 34 33 32 27 29 30 31 28 26 28 36 35 34 38 42 40 39 37 35 30 28 28 34 36 32 36 38 38 39 37 35 32 31 29 26 25 25 24 21 21 20 19
23 30 29 27 22 23 23 40 32 25 22 28 25 23 23 21 20 25 26 32 31 34 36 37 35 36 32 31 27 33 28 42 43 39 49 44 41 39 38 35 33 29 27 26 26 24 24 22 20
27 31 36 26 14 13 15 46 31 23 22 29 26 24 28 30 23 20 32 34 31 31 36 36 34 33 33 36 35 35 36 30 37 47 48 61 56 37 34 34 34 32 32 30 30 28 26 25 23
21 31 33 30 16 10 18 44 25 28 32 24 19 23 27 20 22 25 32 31 33 29 37 36 33 35 34 36 36 34 35 36 35 40 44 61 53 49 41 35 34 33 34 35 34 32 30 26 25
25 24 27 22 21 24 27 41 41 35 32 28 25 26 26 21 23 29 32 33 35 34 30 39 37 35 34 32 35 39 40 39 38 39 37 38 37 27 53 42 41 36 38 38 37 36 35 31 27
22 24 29 29 26 29 30 36 39 37 37 35 30 26 28 29 29 35 33 38 38 39 35 32 33 38 40 38 38 39 39 37 37 38 39 37 36 35 36 40 48 40 38 41 41 40 38 36 31
20 26 31 36 32 31 37 39 34 35 35 37 36 31 35 33 37 38 40 39 45 45 44 41 40 41 38 39 41 41 38 36 37 39 40 42 41 39 40 40 42 46 49 48 46 46 42 40 38
26 27 29 31 29 23 32 41 38 43 38 37 36 37 30 23 37 42 40 40 46 47 44 41 40 36 36 38 40 39 37 35 34 36 39 42 44 45 45 45 46 44 44 47 49 45 44 48 40
36 25 28 32 30 24 26 20 40 48 39 35 33 29 19 22 30 40 45 46 46 38 34 32 32 32 32 35 34 36 36 34 34 35 36 37 42 45 47 47 48 49 48 49 44 44 45 46 53
40 30 29 27 32 29 49 7 37 32 36 26 21 21 22 29 30 33 40 43 33 19 19 22 23 26 30 34 36 36 36 37 37 36 38 39 39 40 44 47 49 51 51 50 51 49 50 46 45
22 26 27 24 19 7 34 17 24 15 11 10 10 11 21 29 32 33 32 19 14 13 14 18 21 27 29 32 35 37 38 38 39 40 42 41 41 41 42 45 48 50 52 53 51 50 52 51 48
21 20 5 4 3 6 7 10 11 7 13 10 20 24 19 22 30 27 23 16 7 7 10 17 22 26 30 33 37 40 42 42 43 43 43 44 44 44 44 46 48 51 52 54 55 54 53 53 51
18 21 9 4 3 4 17 8 7 6 7 13 13 18 22 4 16 19 9 4 8 12 17 19 23 29 34 35 37 39 42 44 45 45 45 45 45 45 45 47 50 52 54 54 54 58 57 53 50
9 12 11 9 17 6 6 10 10 9 10 13 7 16 10 13 16 5 5 11 15 16 20 26 30 35 38 39 40 40 41 42 44 44 43 44 43 43 44 45 47 51 55 57 57 59 60 57 53
15 11 6 8 3 5 4 6 6 2 11 14 9 8 7 7 7 10 14 22 24 26 31 34 38 40 40 40 41 41 42 43 42 42 42 42 43 43 44 45 46 49 54 57 60 61 65 62 56
15 18 11 8 8 3 2 5 4 9 8 8 11 9 9 11 11 18 21 25 32 38 38 38 37 38 38 39 40 42 42 41 40 39 40 41 42 42 44 44 45 48 52 55 59 61 62 66 59
15 22 23 11 6 12 8 11 14 11 8 11 14 7 8 10 20 21 26 32 38 40 41 38 36 37 39 40 41 40 37 36 37 38 39 41 41 39 39 35 36 41 43 43 48 54 59 62 61

GFSSGP_700_spd_123.txt.gz
Wind_Speed
7 7 7 7 6 4 2 2 6 7 7 7 7 6 5 4 4 6 4 7 13 11 10 11 15 19 20 19 16 14 12 12 9 8 8 9 9 9 9 6 5 7 9 10 11 10 10 10 9
8 7 7 8 6 4 3 10 9 4 5 6 6 7 8 11 16 17 10 7 7 8 10 12 13 20 23 22 20 18 16 15 12 10 9 10 10 11 10 7 6 7 8 10 11 12 12 12 11
9 6 7 6 8 5 6 7 11 4 6 5 8 10 12 12 12 11 9 8 9 10 10 11 15 17 26 26 23 22 20 18 16 12 11 11 12 12 12 9 7 7 9 10 12 13 13 13 12
9 7 9 11 12 7 6 7 18 6 6 6 10 8 7 11 15 13 13 12 13 14 16 20 21 21 24 29 27 25 23 21 19 15 13 13 13 13 13 12 9 8 9 10 11 12 13 13 12
8 8 13 12 11 9 6 7 11 4 2 6 9 9 10 11 12 15 16 17 18 18 17 18 23 21 23 31 30 28 25 23 22 19 15 14 15 14 14 13 12 11 10 10 11 12 14 14 13
9 9 12 15 10 9 5 1 1 2 3 6 8 13 14 12 16 19 19 20 20 19 20 21 19 19 21 29 32 30 28 26 25 22 19 16 16 17 16 15 14 13 13 12 12 12 13 13 14
11 12 17 17 13 11 3 4 9 6 4 7 9 12 15 18 19 19 19 22 22 21 21 21 19 20 20 23 32 32 30 28 28 26 23 18 17 18 19 17 16 15 15 14 13 13 13 14 14
14 15 19 19 16 11 7 7 10 9 11 11 11 9 12 13 13 18 22 25 27 28 25 23 21 20 23 22 25 33 32 31 30 29 27 22 20 20 20 20 18 16 15 16 15 15 14 14 14
14 19 20 18 17 13 12 15 14 14 14 12 14 15 12 12 19 22 24 27 29 31 31 27 24 24 24 24 23 30 34 34 33 32 31 27 23 21 20 19 19 19 17 16 16 15 15 15 15
16 23 18 17 18 22 20 20 22 25 21 19 20 15 16 19 21 24 28 29 31 33 34 29 30 28 27 26 25 26 34 36 36 35 34 30 27 24 21 21 21 21 20 18 17 17 17 16 16
20 25 20 21 21 24 27 24 24 26 27 25 26 24 23 26 27 28 29 32 34 35 35 35 29 25 27 32 33 29 30 36 38 37 36 35 30 27 25 24 23 23 22 22 19 19 17 16 17
21 22 21 23 23 26 27 29 29 27 25 25 25 26 29 32 33 35 37 37 38 38 38 38 37 36 32 32 32 31 30 32 37 39 38 37 34 31 29 27 25 23 23 23 23 22 20 19 19
22 22 21 23 25 26 28 30 30 31 20 25 28 32 30 30 33 31 33 40 42 41 39 38 42 41 38 33 34 30 27 29 34 37 38 38 37 34 31 30 29 27 26 26 26 24 23 22 22
23 24 24 26 26 27 29 30 30 27 26 28 25 24 21 17 20 25 30 38 39 41 42 39 41 44 43 38 35 34 31 38 33 35 40 42 40 38 36 35 33 32 30 28 28 27 26 25 25
25 27 25 23 21 24 24 32 30 24 17 23 25 23 22 18 16 24 26 34 35 36 34 32 32 32 34 37 33 32 31 30 38 37 43 43 42 41 39 38 38 36 34 31 31 31 29 29 27
27 27 24 11 11 21 24 33 26 23 24 23 21 17 19 21 21 23 32 34 35 33 34 32 30 31 31 33 35 33 32 31 33 38 36 48 44 44 38 41 42 40 38 36 35 34 32 31 29
18 19 22 20 15 14 17 32 20 26 30 32 30 26 23 22 21 27 32 35 36 33 34 34 27 28 30 31 32 30 31 32 33 35 36 37 37 46 50 55 57 50 45 41 40 38 35 36 32
20 20 19 18 16 19 25 37 30 26 26 26 27 30 27 25 21 30 32 34 34 33 39 34 31 25 30 34 31 31 32 33 35 39 41 43 38 40 46 51 58 75 71 41 41 40 39 39 37
22 22 24 20 17 23 30 39 32 29 27 28 27 28 30 31 31 30 36 36 37 35 40 38 34 32 29 35 35 33 36 37 38 41 43 44 40 43 46 46 45 30 45 51 41 39 40 42 42
18 24 24 23 19 21 30 41 39 35 33 33 35 34 35 33 33 33 33 39 37 36 39 41 38 38 37 37 38 36 36 39 41 46 42 41 43 45 45 46 39 37 41 61 60 55 52 51 47
20 24 25 26 24 31 34 41 39 34 36 21 21 27 21 18 23 29 36 37 41 39 42 41 40 43 43 44 43 41 40 40 41 39 39 39 42 44 46 46 43 40 38 42 45 54 54 56 54
27 21 26 30 27 26 15 21 43 27 19 26 27 24 24 20 24 30 36 38 39 40 40 34 33 36 40 42 42 42 40 41 41 39 38 38 38 41 46 46 47 46 46 48 47 46 44 52 51
24 24 29 31 26 26 24 11 26 31 19 15 16 13 16 22 27 33 36 38 39 37 41 41 32 30 33 36 37 37 38 42 44 40 41 40 39 37 40 45 47 48 49 50 50 51 49 50 48
17 20 21 20 24 11 34 16 17 15 7 13 15 18 18 24 30 34 32 29 27 25 22 23 23 21 24 25 27 32 40 42 43 42 41 41 41 40 38 41 46 48 48 49 51 53 52 50 49
16 15 5 3 2 6 5 8 14 17 10 12 15 14 18 24 19 28 28 23 19 21 19 17 18 20 20 22 26 31 34 40 42 44 44 43 43 43 43 43 44 46 48 50 50 51 53 53 52
12 15 11 4 3 5 10 9 14 17 11 11 16 20 8 13 15 16 19 18 16 16 13 13 16 22 24 27 31 34 37 40 44 46 46 46 45 44 43 44 44 45 47 49 51 52 52 52 52
9 13 17 15 8 3 10 12 15 15 14 9 9 9 16 23 21 19 12 13 16 23 22 22 28 33 33 31 34 36 38 41 43 45 47 47 47 46 44 43 44 44 45 48 50 52 54 54 55
17 13 5 6 3 5 6 12 15 12 11 11 12 7 6 9 7 7 13 16 23 29 33 33 33 34 31 36 41 41 40 42 44 45 46 46 46 46 46 45 45 45 46 47 49 52 54 56 57
20 19 16 12 8 4 3 7 11 9 10 12 13 8 7 13 10 13 18 22 27 34 38 38 36 36 34 34 36 38 41 43 43 43 43 43 43 44 45 46 46 46 47 47 48 51 53 56 57
20 22 22 17 8 13 8 15 13 16 12 10 11 17 14 15 13 20 19 23 30 35 38 36 35 35 35 35 36 37 37 38 38 39 40 41 41 42 43 43 43 44 44 43 46 48 50 53 55

GFSSGP_700_spd_126.txt.gz
Wind_Speed
8 7 7 10 6 2 1 4 3 5 3 2 2 3 4 5 7 3 6 7 14 11 10 10 11 12 15 15 14 14 13 12 11 11 13 12 13 12 11 10 9 8 7 9 10 11 11 11 11
8 7 8 10 6 2 3 6 7 3 4 5 3 2 2 4 3 6 3 8 10 10 9 8 9 12 17 18 17 17 17 15 15 13 13 13 13 14 14 12 11 9 8 9 10 11 11 11 12
8 7 9 6 5 5 6 10 10 2 4 3 4 5 7 8 6 8 6 3 5 7 8 8 10 11 15 21 21 20 20 19 17 17 15 14 14 14 15 14 12 11 10 10 10 11 10 11 11
8 8 9 10 10 4 4 5 7 4 7 3 1 3 5 4 9 9 8 9 10 11 13 15 17 18 15 19 25 24 23 22 21 19 17 15 15 15 15 15 14 12 11 11 10 11 11 12 11
8 9 12 12 9 6 3 2 2 4 6 6 4 4 6 9 10 9 12 14 15 15 16 17 17 17 18 18 25 27 26 25 23 21 20 17 16 16 15 15 15 14 13 12 12 11 12 12 12
10 9 11 13 11 6 3 6 5 5 6 5 6 8 9 10 8 12 14 16 17 15 15 16 17 16 16 16 23 29 29 27 25 23 22 21 18 17 17 16 16 16 15 13 13 13 12 13 13
12 12 15 15 14 11 5 9 11 10 10 8 8 8 9 10 12 15 17 18 19 17 17 18 18 17 16 18 19 24 31 29 27 25 25 23 21 19 19 18 17 16 16 15 14 13 14 14 13
13 14 15 16 15 13 10 12 14 15 13 12 12 6 9 12 14 16 18 19 20 20 19 21 21 20 19 19 21 22 28 31 29 28 27 27 25 22 21 19 18 17 16 15 15 14 14 15 14
14 15 15 15 15 10 9 15 15 17 18 15 12 9 10 9 12 17 20 23 24 25 24 24 25 24 22 22 21 22 23 30 32 31 30 30 29 26 24 22 20 19 18 17 16 16 16 16 16
15 19 14 14 15 18 20 21 22 20 21 20 19 16 16 17 19 22 24 26 28 28 28 29 28 26 25 23 22 22 23 26 32 34 33 32 32 29 27 26 24 22 20 20 18 17 17 18 17
18 20 17 16 19 24 25 24 24 21 18 17 21 23 24 25 27 28 29 30 32 33 32 30 30 31 30 27 27 27 26 27 30 35 35 34 34 33 31 29 28 26 25 22 21 20 19 18 19
19 19 18 18 18 23 24 26 24 20 19 21 20 21 23 27 30 30 31 33 36 38 37 36 35 33 33 33 32 32 29 27 30 33 36 36 36 35 33 32 31 30 28 26 25 23 22 21 22
18 20 21 21 21 22 24 24 24 25 20 21 22 22 26 29 30 29 27 28 30 32 33 36 37 36 38 39 39 36 32 29 29 30 35 38 38 36 36 35 34 33 32 30 29 28 25 24 25
22 23 23 25 23 23 26 26 24 22 23 18 19 22 22 24 26 25 22 20 23 26 27 29 28 30 33 37 36 35 30 30 32 30 31 36 38 43 39 38 38 35 33 32 31 31 29 29 28
21 25 23 20 21 22 26 26 21 12 14 17 17 19 20 26 25 26 25 24 24 27 28 27 28 29 26 29 28 27 28 29 31 30 31 39 44 52 47 43 41 37 36 34 32 33 33 33 32
25 27 23 7 16 17 24 28 21 20 25 27 26 26 25 27 27 27 28 27 26 26 31 29 27 27 27 22 23 25 26 27 29 30 30 29 30 50 59 38 43 38 36 35 36 38 38 37 34
18 16 19 20 16 16 14 21 20 21 25 28 24 24 27 29 31 31 32 31 31 29 30 29 29 28 26 22 22 24 25 26 24 25 28 27 28 30 33 30 44 49 44 33 39 40 43 40 40
12 12 20 23 24 20 22 28 23 20 21 21 21 22 24 25 25 30 31 31 34 34 34 32 30 31 28 26 24 24 24 26 28 29 29 32 35 34 36 36 34 38 41 44 54 56 44 45 50
17 19 23 24 19 24 26 27 25 27 27 27 24 25 28 28 28 30 30 30 29 30 35 34 35 32 34 31 29 30 29 28 28 30 32 34 38 42 39 37 38 39 41 44 44 53 57 60 53
18 19 20 21 15 23 28 35 33 22 24 25 19 19 20 22 26 29 27 28 28 28 31 35 35 33 35 35 35 35 35 33 32 35 38 39 40 42 40 37 39 42 44 45 43 42 50 46 57
18 16 18 22 22 24 33 29 1 25 20 14 24 24 21 22 23 23 25 28 28 31 32 32 36 37 32 34 36 37 35 35 38 39 40 40 40 40 40 41 40 44 46 45 43 43 44 37 59
21 17 18 20 21 20 25 10 27 6 9 26 19 19 18 17 21 24 26 29 30 32 34 35 35 38 43 38 37 40 41 38 40 42 41 38 40 43 41 39 41 46 47 46 44 41 39 31 46
18 12 14 17 19 21 11 13 7 19 29 18 15 13 14 19 21 26 29 31 31 31 33 34 33 32 32 37 42 43 42 43 39 42 42 42 43 43 43 40 38 41 48 46 44 43 42 40 43
14 15 19 18 18 8 17 17 16 16 17 18 18 13 16 21 22 22 31 32 30 33 35 29 29 31 31 33 35 37 36 38 40 42 43 42 43 42 43 43 42 40 43 47 45 44 45 45 46
17 14 4 2 4 6 9 12 23 26 24 21 13 9 13 17 20 21 14 26 19 25 34 23 21 23 23 25 27 30 32 35 37 38 40 43 42 42 41 43 43 43 43 45 47 46 46 47 48
10 16 9 4 3 4 5 8 11 19 22 19 12 11 8 9 17 18 17 11 12 18 19 24 25 26 27 22 25 31 33 38 36 39 42 45 45 44 42 43 44 45 44 45 48 48 48 49 50
11 15 16 19 11 4 8 17 22 24 22 22 18 8 7 1 9 5 6 9 11 15 20 23 27 27 26 25 28 36 40 41 42 42 43 47 47 46 45 43 43 43 45 45 46 49 50 50 50
23 14 6 7 2 4 7 14 19 21 19 20 18 8 6 8 10 12 10 12 15 19 25 29 31 33 30 28 29 29 28 38 44 45 45 47 47 47 46 43 42 43 44 44 45 48 51 51 51
21 20 15 13 10 4 2 10 14 18 18 13 11 5 8 11 13 12 15 19 20 25 31 36 38 33 32 32 33 33 34 33 35 39 41 41 41 43 42 42 41 42 44 44 45 47 50 52 52
22 26 26 16 7 12 6 25 28 21 15 15 7 11 12 13 15 16 18 22 22 26 31 37 36 33 31 32 32 33 34 32 32 34 36 37 36 36 38 39 40 41 41 43 46 47 48 50 51

GFSSGP_700_spd_129.txt.gz
Wind_Speed
7 7 8 9 4 1 2 5 6 4 0 5 7 7 5 2 7 2 4 5 8 10 7 9 9 9 11 12 11 11 11 10 9 8 11 14 16 16 15 14 12 11 8 7 7 9 9 9 8
6 7 8 10 4 1 6 5 4 4 4 6 7 6 5 4 2 2 4 2 5 6 6 5 6 8 12 14 15 14 14 13 12 12 11 14 15 16 15 15 14 12 11 8 7 7 8 9 10
7 7 8 6 3 3 6 3 7 2 5 3 1 3 3 3 5 5 5 4 5 5 6 6 7 8 10 14 18 19 17 17 16 15 14 13 15 16 16 15 14 13 12 10 8 7 8 9 10
7 8 9 9 6 1 4 1 3 4 5 3 3 3 3 4 4 4 2 2 4 5 7 9 10 11 12 14 18 21 21 20 19 19 17 16 15 16 16 15 14 14 13 12 10 8 8 9 10
8 10 12 8 4 3 4 6 4 4 5 5 4 3 2 2 3 3 6 7 9 9 9 8 8 9 11 12 16 21 24 23 22 21 20 18 17 16 16 16 14 14 14 12 11 9 8 8 9
10 10 11 9 4 3 5 8 8 4 5 6 8 6 6 6 8 7 9 12 14 12 11 10 10 10 9 9 13 17 23 26 26 24 22 21 20 19 17 16 15 14 13 12 11 11 9 8 9
11 12 14 12 10 6 5 8 12 9 7 9 9 8 11 11 11 13 14 16 16 16 14 13 12 12 13 12 11 15 19 24 28 27 25 24 23 22 20 19 17 16 14 12 13 12 11 10 9
12 13 14 13 10 5 9 11 14 13 11 10 10 7 10 12 15 16 19 19 18 20 19 17 17 16 14 14 16 16 19 22 28 30 29 27 26 26 24 22 20 18 17 14 13 13 13 11 11
13 15 14 11 7 5 9 14 14 12 16 15 13 13 13 12 16 20 21 21 23 22 21 21 18 20 19 17 16 16 17 20 25 31 32 30 29 28 27 26 24 21 20 19 16 16 15 13 12
15 16 12 11 12 12 13 13 16 17 19 19 21 21 20 20 21 23 25 25 25 25 24 24 24 22 22 21 20 19 18 17 22 29 33 32 31 31 30 29 27 26 24 22 23 20 19 17 14
15 16 13 15 18 20 18 17 16 15 17 17 21 25 29 30 30 32 32 30 29 29 28 27 27 27 25 24 25 24 24 24 21 25 31 34 34 33 32 31 31 30 28 27 26 24 23 19 17
16 16 15 15 17 19 18 18 15 15 18 19 20 22 23 27 31 34 36 36 36 36 33 29 28 28 28 28 28 29 31 29 25 24 27 34 37 34 33 33 33 32 32 30 29 29 27 24 21
16 19 18 19 18 17 18 19 19 17 17 19 20 21 25 26 26 27 28 27 28 31 31 27 25 24 25 27 29 31 31 31 30 29 28 28 35 38 38 36 36 36 35 32 33 31 29 29 27
20 21 20 19 18 19 18 18 16 17 20 18 17 20 24 26 26 25 21 23 25 24 29 28 21 22 23 25 26 27 26 26 25 26 26 26 27 36 39 39 40 36 34 38 37 34 32 31 30
17 19 18 19 21 19 20 16 11 13 17 17 16 18 21 24 26 27 24 23 24 24 23 23 23 22 23 24 25 27 24 19 22 24 23 26 26 28 33 38 34 39 44 49 38 39 37 38 33
21 23 18 10 8 15 19 19 18 21 24 23 24 28 29 30 31 30 30 28 24 24 23 23 24 25 24 24 23 24 23 19 20 22 23 25 25 23 25 26 34 47 42 51 45 39 37 41 37
19 15 13 13 16 16 17 19 18 20 24 23 22 27 30 32 32 31 29 28 28 26 24 25 24 25 27 25 24 22 21 20 21 21 22 22 23 23 22 23 22 27 38 37 51 51 48 51 40
12 12 16 17 17 21 23 23 22 20 20 21 22 24 26 28 31 32 33 31 29 29 26 22 24 26 28 26 25 24 26 23 21 21 22 23 24 26 25 25 28 30 33 37 34 40 47 41 43
18 21 24 24 20 22 21 25 24 21 22 19 16 18 18 19 20 23 26 28 27 25 25 24 24 25 28 29 28 27 27 29 28 26 27 27 27 28 29 31 30 28 30 33 31 37 40 41 42
20 22 24 22 9 20 22 29 29 22 11 16 10 14 16 16 17 19 22 24 26 24 24 25 26 27 28 29 30 30 29 31 34 34 34 34 34 34 35 35 34 33 32 31 35 37 40 41 41
19 19 19 19 20 20 21 17 6 7 18 11 14 15 16 16 16 16 19 22 24 25 25 27 28 29 30 31 32 31 32 34 37 38 39 40 41 40 40 37 37 38 38 34 34 36 39 42 43
21 20 16 15 14 7 14 8 14 18 9 15 18 13 10 10 15 19 23 23 25 26 26 28 29 30 32 34 36 36 35 36 38 37 39 41 45 45 43 41 41 43 42 40 38 38 38 39 40
14 8 11 13 14 19 8 9 6 7 13 10 9 14 9 10 15 16 16 19 22 22 27 28 32 33 35 35 33 34 34 38 40 41 43 40 43 43 44 46 47 45 44 43 42 44 42 40 39
9 9 13 17 16 8 10 14 4 8 3 15 14 14 11 10 8 12 17 14 19 12 16 19 26 33 38 39 39 39 42 43 43 43 47 45 44 43 44 46 49 49 45 45 44 45 48 45 42
17 13 4 3 3 5 2 9 18 21 20 16 18 14 12 7 8 11 11 13 14 8 9 14 19 22 19 25 35 40 42 45 43 42 45 43 41 42 44 46 51 50 48 46 46 46 48 49 46
8 16 8 4 3 3 5 8 9 15 21 19 19 18 10 5 2 4 5 9 8 9 13 18 19 23 25 26 24 27 30 33 44 46 41 43 45 43 47 50 50 49 50 49 49 48 48 50 51
10 15 16 15 14 6 11 17 23 25 17 16 17 17 9 7 7 6 10 13 11 12 16 20 24 27 31 29 27 26 28 31 33 35 45 47 46 46 47 50 52 53 50 50 50 50 50 50 52
20 14 6 9 4 6 7 12 17 18 12 11 18 17 10 9 10 10 12 15 16 18 22 24 28 32 32 30 28 29 30 32 33 32 34 37 47 52 53 49 50 49 49 46 46 48 49 49 51
22 23 19 15 10 4 7 10 11 13 16 22 12 11 14 9 12 14 16 16 18 20 22 26 31 35 34 32 29 28 30 30 30 29 29 30 33 36 38 40 41 41 41 41 43 47 47 48 50
25 28 22 18 10 10 11 21 15 20 11 11 13 14 14 14 14 18 18 19 21 22 23 26 29 33 33 29 27 28 27 27 26 24 24 25 26 30 32 34 36 37 39 41 43 45 47 46 48